<?xml version="1.0" encoding="UTF-8"?>
<gpx version="1.1" creator="2bulu-scraper" xmlns="http://www.topografix.com/GPX/1/1">
  <metadata><name>方山野路子刺激</name><desc>source: 2bulu.com trackId=81437942; exported 2026-09-01T14:52:46.669Z</desc>
    <bounds minlat="28.820858" minlon="105.289721" maxlat="28.834224" maxlon="105.324415"/>
    <link href="https://www.2bulu.com/track/t-IfWHvTcjdTfp%252FR2KBg5Tzw%253D%253D.htm"><text>2bulu 源页面</text></link>
  </metadata>
  <wpt lat="28.832869267939667" lon="105.29071576468222"><ele>0</ele><name></name></wpt>
  <wpt lat="28.832779894405135" lon="105.29198504512743"><ele>0</ele><name></name></wpt>
  <wpt lat="28.832453358884433" lon="105.29354561965027"><ele>0</ele><name></name></wpt>
  <wpt lat="28.83262573390023" lon="105.29455137086981"><ele>0</ele><name></name></wpt>
  <wpt lat="28.832841500387985" lon="105.29463500574532"><ele>0</ele><name></name></wpt>
  <wpt lat="28.83355937391073" lon="105.29486399619225"><ele>0</ele><name></name></wpt>
  <wpt lat="28.834113827766338" lon="105.29509894849629"><ele>0</ele><name></name></wpt>
  <wpt lat="28.834133231991988" lon="105.29514085688687"><ele>0</ele><name></name></wpt>
  <wpt lat="28.83416340091887" lon="105.29558908497502"><ele>0</ele><name></name></wpt>
  <wpt lat="28.833975257805616" lon="105.29607438832144"><ele>0</ele><name></name></wpt>
  <wpt lat="28.83394364971567" lon="105.29604971407923"><ele>0</ele><name></name></wpt>
  <wpt lat="28.833722168710484" lon="105.29632485449584"><ele>0</ele><name></name></wpt>
  <wpt lat="28.83289887030934" lon="105.29685910771617"><ele>0</ele><name></name></wpt>
  <wpt lat="28.832282208508612" lon="105.29714943201714"><ele>0</ele><name></name></wpt>
  <wpt lat="28.832313667866483" lon="105.29719626430786"><ele>0</ele><name></name></wpt>
  <wpt lat="28.83226921101442" lon="105.30065418858904"><ele>0</ele><name></name></wpt>
  <wpt lat="28.83277967756634" lon="105.30049248467897"><ele>0</ele><name>
          路口
        </name></wpt>
  <wpt lat="28.83278476851022" lon="105.30100803194709"><ele>0</ele><name></name></wpt>
  <wpt lat="28.832783929071905" lon="105.301007929763"><ele>0</ele><name></name></wpt>
  <wpt lat="28.832463651431745" lon="105.30128742058749"><ele>0</ele><name></name></wpt>
  <wpt lat="28.832335998739673" lon="105.30132827021056"><ele>0</ele><name></name></wpt>
  <wpt lat="28.832229382105055" lon="105.30138872920796"><ele>0</ele><name>
          爬
        </name></wpt>
  <wpt lat="28.832229382105055" lon="105.30138872920796"><ele>0</ele><name>
          爬
        </name></wpt>
  <wpt lat="28.83212614801674" lon="105.30160479998608"><ele>0</ele><name></name></wpt>
  <wpt lat="28.832393450976973" lon="105.30216401540847"><ele>0</ele><name></name></wpt>
  <wpt lat="28.8330495385762" lon="105.30283454444259"><ele>0</ele><name></name></wpt>
  <wpt lat="28.831567138399567" lon="105.30726640197032"><ele>0</ele><name></name></wpt>
  <wpt lat="28.832113091120267" lon="105.31139239343477"><ele>0</ele><name></name></wpt>
  <wpt lat="28.829142232870097" lon="105.31817058115372"><ele>0</ele><name></name></wpt>
  <wpt lat="28.829143835325905" lon="105.31817209697266"><ele>0</ele><name>
          薄刀岭
        </name></wpt>
  <wpt lat="28.829700012033488" lon="105.32186474838375"><ele>0</ele><name></name></wpt>
  <wpt lat="28.829840396128763" lon="105.32308756513314"><ele>0</ele><name></name></wpt>
  <wpt lat="28.82727055214132" lon="105.32386331352845"><ele>0</ele><name></name></wpt>
  <wpt lat="28.825945019246838" lon="105.32100753555578"><ele>0</ele><name></name></wpt>
  <wpt lat="28.826067752309058" lon="105.3197809533282"><ele>0</ele><name></name></wpt>
  <wpt lat="28.82655714559535" lon="105.31979072887039"><ele>0</ele><name></name></wpt>
  <wpt lat="28.826960454738828" lon="105.31982309448797"><ele>0</ele><name></name></wpt>
  <wpt lat="28.825565356343567" lon="105.31636102700425"><ele>0</ele><name></name></wpt>
  <wpt lat="28.824657255668406" lon="105.31483559095528"><ele>0</ele><name></name></wpt>
  <wpt lat="28.824478476017784" lon="105.31443330173622"><ele>0</ele><name></name></wpt>
  <wpt lat="28.823451922020553" lon="105.30923356572156"><ele>0</ele><name></name></wpt>
  <wpt lat="28.82215987589828" lon="105.3096915957786"><ele>0</ele><name></name></wpt>
  <wpt lat="28.82161075240968" lon="105.30597514075303"><ele>0</ele><name></name></wpt>
  <wpt lat="28.82177709693441" lon="105.3026945789966"><ele>0</ele><name></name></wpt>
  <wpt lat="28.824624887921033" lon="105.30171750263158"><ele>0</ele><name></name></wpt>
  <wpt lat="28.824625908905876" lon="105.30102102048772"><ele>0</ele><name></name></wpt>
  <wpt lat="28.829324050884466" lon="105.29812639275501"><ele>0</ele><name></name></wpt>
  <wpt lat="28.8317135775982" lon="105.29502098529771"><ele>0</ele><name></name></wpt>
  <trk><name>方山野路子刺激</name>
      <trkseg>
        <trkpt lat="28.832876" lon="105.290503"><ele>276.26685</ele><time>2026-03-31T21:40:39.000Z</time></trkpt>
        <trkpt lat="28.832891" lon="105.290556"><ele>276.65997</ele><time>2026-03-31T21:40:47.000Z</time></trkpt>
        <trkpt lat="28.832904" lon="105.290608"><ele>276.72</ele><time>2026-03-31T21:40:53.000Z</time></trkpt>
        <trkpt lat="28.832894" lon="105.290668"><ele>276.8785</ele><time>2026-03-31T21:40:58.000Z</time></trkpt>
        <trkpt lat="28.832869" lon="105.290716"><ele>277.10782</ele><time>2026-03-31T21:41:02.000Z</time></trkpt>
        <trkpt lat="28.832844" lon="105.290758"><ele>277.93988</ele><time>2026-03-31T21:41:08.000Z</time></trkpt>
        <trkpt lat="28.832789" lon="105.290778"><ele>278.7247</ele><time>2026-03-31T21:41:13.000Z</time></trkpt>
        <trkpt lat="28.832737" lon="105.290795"><ele>279.50723</ele><time>2026-03-31T21:41:17.000Z</time></trkpt>
        <trkpt lat="28.832685" lon="105.29081"><ele>280.90997</ele><time>2026-03-31T21:41:21.000Z</time></trkpt>
        <trkpt lat="28.832635" lon="105.290818"><ele>281.7966</ele><time>2026-03-31T21:41:25.000Z</time></trkpt>
        <trkpt lat="28.832584" lon="105.290836"><ele>282.85297</ele><time>2026-03-31T21:41:30.000Z</time></trkpt>
        <trkpt lat="28.832533" lon="105.290859"><ele>283.2775</ele><time>2026-03-31T21:41:35.000Z</time></trkpt>
        <trkpt lat="28.832485" lon="105.290887"><ele>284.32812</ele><time>2026-03-31T21:41:40.000Z</time></trkpt>
        <trkpt lat="28.832444" lon="105.290908"><ele>285.2073</ele><time>2026-03-31T21:41:45.000Z</time></trkpt>
        <trkpt lat="28.832413" lon="105.290916"><ele>293.01965</ele><time>2026-03-31T21:41:48.000Z</time></trkpt>
        <trkpt lat="28.832377" lon="105.290947"><ele>292.78378</ele><time>2026-03-31T21:41:52.000Z</time></trkpt>
        <trkpt lat="28.832348" lon="105.29099"><ele>293.0977</ele><time>2026-03-31T21:41:56.000Z</time></trkpt>
        <trkpt lat="28.832322" lon="105.291035"><ele>293.5802</ele><time>2026-03-31T21:42:00.000Z</time></trkpt>
        <trkpt lat="28.832302" lon="105.29109"><ele>294.02316</ele><time>2026-03-31T21:42:05.000Z</time></trkpt>
        <trkpt lat="28.8323" lon="105.291147"><ele>293.42813</ele><time>2026-03-31T21:42:10.000Z</time></trkpt>
        <trkpt lat="28.832306" lon="105.291207"><ele>293.07797</ele><time>2026-03-31T21:42:16.000Z</time></trkpt>
        <trkpt lat="28.832312" lon="105.291266"><ele>292.84525</ele><time>2026-03-31T21:42:22.000Z</time></trkpt>
        <trkpt lat="28.832318" lon="105.291322"><ele>293.07315</ele><time>2026-03-31T21:42:29.000Z</time></trkpt>
        <trkpt lat="28.832332" lon="105.291374"><ele>293.61545</ele><time>2026-03-31T21:42:34.000Z</time></trkpt>
        <trkpt lat="28.832343" lon="105.291432"><ele>294.27652</ele><time>2026-03-31T21:42:39.000Z</time></trkpt>
        <trkpt lat="28.83236" lon="105.291479"><ele>294.60095</ele><time>2026-03-31T21:42:43.000Z</time></trkpt>
        <trkpt lat="28.832393" lon="105.291519"><ele>294.7014</ele><time>2026-03-31T21:42:47.000Z</time></trkpt>
        <trkpt lat="28.832426" lon="105.291557"><ele>294.67703</ele><time>2026-03-31T21:42:51.000Z</time></trkpt>
        <trkpt lat="28.832462" lon="105.2916"><ele>294.695</ele><time>2026-03-31T21:42:56.000Z</time></trkpt>
        <trkpt lat="28.832501" lon="105.291636"><ele>295.00278</ele><time>2026-03-31T21:43:01.000Z</time></trkpt>
        <trkpt lat="28.832538" lon="105.291664"><ele>295.33005</ele><time>2026-03-31T21:43:06.000Z</time></trkpt>
        <trkpt lat="28.83258" lon="105.291693"><ele>295.93756</ele><time>2026-03-31T21:43:12.000Z</time></trkpt>
        <trkpt lat="28.83262" lon="105.29172"><ele>296.55072</ele><time>2026-03-31T21:43:17.000Z</time></trkpt>
        <trkpt lat="28.832661" lon="105.291746"><ele>297.20627</ele><time>2026-03-31T21:43:22.000Z</time></trkpt>
        <trkpt lat="28.832701" lon="105.291772"><ele>297.984</ele><time>2026-03-31T21:43:27.000Z</time></trkpt>
        <trkpt lat="28.832738" lon="105.291811"><ele>298.91138</ele><time>2026-03-31T21:43:32.000Z</time></trkpt>
        <trkpt lat="28.832762" lon="105.291855"><ele>300.12228</ele><time>2026-03-31T21:43:37.000Z</time></trkpt>
        <trkpt lat="28.832776" lon="105.291906"><ele>301.3014</ele><time>2026-03-31T21:43:43.000Z</time></trkpt>
        <trkpt lat="28.832778" lon="105.291963"><ele>303.03024</ele><time>2026-03-31T21:43:49.000Z</time></trkpt>
        <trkpt lat="28.832765" lon="105.292012"><ele>304.98724</ele><time>2026-03-31T21:44:17.000Z</time></trkpt>
        <trkpt lat="28.832729" lon="105.292057"><ele>305.8144</ele><time>2026-03-31T21:44:21.000Z</time></trkpt>
        <trkpt lat="28.832715" lon="105.292107"><ele>306.13388</ele><time>2026-03-31T21:44:25.000Z</time></trkpt>
        <trkpt lat="28.832699" lon="105.292158"><ele>306.3797</ele><time>2026-03-31T21:44:29.000Z</time></trkpt>
        <trkpt lat="28.832683" lon="105.292209"><ele>306.95282</ele><time>2026-03-31T21:44:34.000Z</time></trkpt>
        <trkpt lat="28.832634" lon="105.292224"><ele>307.81693</ele><time>2026-03-31T21:44:40.000Z</time></trkpt>
        <trkpt lat="28.832583" lon="105.292222"><ele>308.79813</ele><time>2026-03-31T21:44:45.000Z</time></trkpt>
        <trkpt lat="28.832528" lon="105.292204"><ele>309.28137</ele><time>2026-03-31T21:44:50.000Z</time></trkpt>
        <trkpt lat="28.832482" lon="105.292191"><ele>310.23062</ele><time>2026-03-31T21:44:54.000Z</time></trkpt>
        <trkpt lat="28.83243" lon="105.29219"><ele>310.9098</ele><time>2026-03-31T21:44:58.000Z</time></trkpt>
        <trkpt lat="28.832383" lon="105.292192"><ele>311.53943</ele><time>2026-03-31T21:45:02.000Z</time></trkpt>
        <trkpt lat="28.832336" lon="105.29221"><ele>311.34286</ele><time>2026-03-31T21:45:06.000Z</time></trkpt>
        <trkpt lat="28.832291" lon="105.292245"><ele>311.5485</ele><time>2026-03-31T21:45:11.000Z</time></trkpt>
        <trkpt lat="28.832275" lon="105.292303"><ele>311.74057</ele><time>2026-03-31T21:45:16.000Z</time></trkpt>
        <trkpt lat="28.832289" lon="105.292353"><ele>312.00574</ele><time>2026-03-31T21:45:20.000Z</time></trkpt>
        <trkpt lat="28.832316" lon="105.292396"><ele>312.19186</ele><time>2026-03-31T21:45:25.000Z</time></trkpt>
        <trkpt lat="28.832342" lon="105.292438"><ele>312.28748</ele><time>2026-03-31T21:45:30.000Z</time></trkpt>
        <trkpt lat="28.832373" lon="105.292487"><ele>312.47696</ele><time>2026-03-31T21:45:35.000Z</time></trkpt>
        <trkpt lat="28.832409" lon="105.292525"><ele>313.07318</ele><time>2026-03-31T21:45:40.000Z</time></trkpt>
        <trkpt lat="28.832443" lon="105.292566"><ele>313.32764</ele><time>2026-03-31T21:45:45.000Z</time></trkpt>
        <trkpt lat="28.832477" lon="105.292606"><ele>314.0626</ele><time>2026-03-31T21:45:50.000Z</time></trkpt>
        <trkpt lat="28.83251" lon="105.292645"><ele>314.6263</ele><time>2026-03-31T21:45:55.000Z</time></trkpt>
        <trkpt lat="28.83255" lon="105.292676"><ele>314.8729</ele><time>2026-03-31T21:46:00.000Z</time></trkpt>
        <trkpt lat="28.832592" lon="105.292713"><ele>315.4187</ele><time>2026-03-31T21:46:06.000Z</time></trkpt>
        <trkpt lat="28.832628" lon="105.292754"><ele>316.2028</ele><time>2026-03-31T21:46:11.000Z</time></trkpt>
        <trkpt lat="28.832659" lon="105.292794"><ele>316.63373</ele><time>2026-03-31T21:46:16.000Z</time></trkpt>
        <trkpt lat="28.832692" lon="105.292831"><ele>317.09085</ele><time>2026-03-31T21:46:21.000Z</time></trkpt>
        <trkpt lat="28.832723" lon="105.292877"><ele>318.09158</ele><time>2026-03-31T21:46:28.000Z</time></trkpt>
        <trkpt lat="28.832754" lon="105.292926"><ele>318.40912</ele><time>2026-03-31T21:46:34.000Z</time></trkpt>
        <trkpt lat="28.832774" lon="105.292972"><ele>319.30075</ele><time>2026-03-31T21:46:39.000Z</time></trkpt>
        <trkpt lat="28.832775" lon="105.293025"><ele>320.62433</ele><time>2026-03-31T21:46:45.000Z</time></trkpt>
        <trkpt lat="28.832749" lon="105.29308"><ele>321.48944</ele><time>2026-03-31T21:46:51.000Z</time></trkpt>
        <trkpt lat="28.832709" lon="105.293109"><ele>323.1047</ele><time>2026-03-31T21:46:56.000Z</time></trkpt>
        <trkpt lat="28.832661" lon="105.293126"><ele>324.55197</ele><time>2026-03-31T21:47:02.000Z</time></trkpt>
        <trkpt lat="28.832623" lon="105.293162"><ele>325.53827</ele><time>2026-03-31T21:47:08.000Z</time></trkpt>
        <trkpt lat="28.832597" lon="105.293216"><ele>326.2393</ele><time>2026-03-31T21:47:13.000Z</time></trkpt>
        <trkpt lat="28.832561" lon="105.293257"><ele>327.32474</ele><time>2026-03-31T21:47:19.000Z</time></trkpt>
        <trkpt lat="28.832523" lon="105.293289"><ele>327.86902</ele><time>2026-03-31T21:47:24.000Z</time></trkpt>
        <trkpt lat="28.832495" lon="105.293336"><ele>329.08276</ele><time>2026-03-31T21:47:29.000Z</time></trkpt>
        <trkpt lat="28.832487" lon="105.293394"><ele>330.0445</ele><time>2026-03-31T21:47:35.000Z</time></trkpt>
        <trkpt lat="28.832471" lon="105.293454"><ele>330.57202</ele><time>2026-03-31T21:47:41.000Z</time></trkpt>
        <trkpt lat="28.832458" lon="105.293515"><ele>331.16907</ele><time>2026-03-31T21:47:46.000Z</time></trkpt>
        <trkpt lat="28.832447" lon="105.293575"><ele>332.094</ele><time>2026-03-31T21:47:50.000Z</time></trkpt>
        <trkpt lat="28.832443" lon="105.293636"><ele>332.97635</ele><time>2026-03-31T21:47:55.000Z</time></trkpt>
        <trkpt lat="28.832454" lon="105.293685"><ele>333.6531</ele><time>2026-03-31T21:48:00.000Z</time></trkpt>
        <trkpt lat="28.832467" lon="105.293735"><ele>334.14368</ele><time>2026-03-31T21:48:04.000Z</time></trkpt>
        <trkpt lat="28.832496" lon="105.293779"><ele>334.41312</ele><time>2026-03-31T21:48:10.000Z</time></trkpt>
        <trkpt lat="28.832503" lon="105.293833"><ele>334.2778</ele><time>2026-03-31T21:48:16.000Z</time></trkpt>
        <trkpt lat="28.832523" lon="105.293892"><ele>334.50275</ele><time>2026-03-31T21:48:21.000Z</time></trkpt>
        <trkpt lat="28.83256" lon="105.293934"><ele>335.33505</ele><time>2026-03-31T21:48:25.000Z</time></trkpt>
        <trkpt lat="28.83259" lon="105.293971"><ele>336.16376</ele><time>2026-03-31T21:48:29.000Z</time></trkpt>
        <trkpt lat="28.8326" lon="105.294032"><ele>336.71277</ele><time>2026-03-31T21:48:34.000Z</time></trkpt>
        <trkpt lat="28.832612" lon="105.294081"><ele>337.7688</ele><time>2026-03-31T21:48:39.000Z</time></trkpt>
        <trkpt lat="28.832597" lon="105.294129"><ele>338.5813</ele><time>2026-03-31T21:48:43.000Z</time></trkpt>
        <trkpt lat="28.832586" lon="105.294182"><ele>339.01355</ele><time>2026-03-31T21:48:47.000Z</time></trkpt>
        <trkpt lat="28.832593" lon="105.294235"><ele>339.3581</ele><time>2026-03-31T21:48:51.000Z</time></trkpt>
        <trkpt lat="28.832584" lon="105.294293"><ele>341.34116</ele><time>2026-03-31T21:48:56.000Z</time></trkpt>
        <trkpt lat="28.832582" lon="105.294343"><ele>343.3633</ele><time>2026-03-31T21:49:06.000Z</time></trkpt>
        <trkpt lat="28.832595" lon="105.294392"><ele>344.22458</ele><time>2026-03-31T21:49:14.000Z</time></trkpt>
        <trkpt lat="28.832606" lon="105.29444"><ele>346.5212</ele><time>2026-03-31T21:49:53.000Z</time></trkpt>
        <trkpt lat="28.83261" lon="105.294491"><ele>347.28055</ele><time>2026-03-31T21:49:59.000Z</time></trkpt>
        <trkpt lat="28.832589" lon="105.294538"><ele>348.0243</ele><time>2026-03-31T21:50:05.000Z</time></trkpt>
        <trkpt lat="28.832633" lon="105.294555"><ele>350.02835</ele><time>2026-03-31T21:50:12.000Z</time></trkpt>
        <trkpt lat="28.832682" lon="105.294546"><ele>350.90698</ele><time>2026-03-31T21:50:18.000Z</time></trkpt>
        <trkpt lat="28.832729" lon="105.294574"><ele>352.30887</ele><time>2026-03-31T21:50:23.000Z</time></trkpt>
        <trkpt lat="28.832779" lon="105.294576"><ele>353.78427</ele><time>2026-03-31T21:50:29.000Z</time></trkpt>
        <trkpt lat="28.832815" lon="105.294608"><ele>356.2776</ele><time>2026-03-31T21:50:34.000Z</time></trkpt>
        <trkpt lat="28.832849" lon="105.294643"><ele>357.99466</ele><time>2026-03-31T21:50:39.000Z</time></trkpt>
        <trkpt lat="28.832893" lon="105.294671"><ele>359.6258</ele><time>2026-03-31T21:50:45.000Z</time></trkpt>
        <trkpt lat="28.832938" lon="105.294647"><ele>361.21295</ele><time>2026-03-31T21:50:51.000Z</time></trkpt>
        <trkpt lat="28.832979" lon="105.294614"><ele>360.9032</ele><time>2026-03-31T21:50:57.000Z</time></trkpt>
        <trkpt lat="28.833026" lon="105.294598"><ele>360.88907</ele><time>2026-03-31T21:51:02.000Z</time></trkpt>
        <trkpt lat="28.833076" lon="105.294592"><ele>361.33966</ele><time>2026-03-31T21:51:06.000Z</time></trkpt>
        <trkpt lat="28.833121" lon="105.294607"><ele>360.82855</ele><time>2026-03-31T21:51:10.000Z</time></trkpt>
        <trkpt lat="28.833169" lon="105.294622"><ele>359.27936</ele><time>2026-03-31T21:51:16.000Z</time></trkpt>
        <trkpt lat="28.833212" lon="105.294607"><ele>358.14673</ele><time>2026-03-31T21:51:21.000Z</time></trkpt>
        <trkpt lat="28.83325" lon="105.294578"><ele>358.5803</ele><time>2026-03-31T21:51:25.000Z</time></trkpt>
        <trkpt lat="28.833292" lon="105.294599"><ele>360.2344</ele><time>2026-03-31T21:51:48.000Z</time></trkpt>
        <trkpt lat="28.833327" lon="105.29464"><ele>359.86444</ele><time>2026-03-31T21:51:52.000Z</time></trkpt>
        <trkpt lat="28.833356" lon="105.294685"><ele>361.06427</ele><time>2026-03-31T21:51:58.000Z</time></trkpt>
        <trkpt lat="28.83337" lon="105.29473"><ele>362.89117</ele><time>2026-03-31T21:52:06.000Z</time></trkpt>
        <trkpt lat="28.833396" lon="105.294771"><ele>364.74402</ele><time>2026-03-31T21:52:13.000Z</time></trkpt>
        <trkpt lat="28.83344" lon="105.294772"><ele>365.86774</ele><time>2026-03-31T21:52:19.000Z</time></trkpt>
        <trkpt lat="28.833464" lon="105.294816"><ele>367.68262</ele><time>2026-03-31T21:52:26.000Z</time></trkpt>
        <trkpt lat="28.833506" lon="105.294844"><ele>369.3714</ele><time>2026-03-31T21:52:34.000Z</time></trkpt>
        <trkpt lat="28.833554" lon="105.294867"><ele>370.6435</ele><time>2026-03-31T21:52:43.000Z</time></trkpt>
        <trkpt lat="28.833595" lon="105.294859"><ele>373.7917</ele><time>2026-03-31T21:52:52.000Z</time></trkpt>
        <trkpt lat="28.83364" lon="105.294845"><ele>376.04916</ele><time>2026-03-31T21:52:58.000Z</time></trkpt>
        <trkpt lat="28.833689" lon="105.29485"><ele>375.94177</ele><time>2026-03-31T21:53:06.000Z</time></trkpt>
        <trkpt lat="28.833733" lon="105.294823"><ele>377.2412</ele><time>2026-03-31T21:53:12.000Z</time></trkpt>
        <trkpt lat="28.833773" lon="105.294791"><ele>378.43472</ele><time>2026-03-31T21:53:18.000Z</time></trkpt>
        <trkpt lat="28.833819" lon="105.294767"><ele>378.16483</ele><time>2026-03-31T21:53:25.000Z</time></trkpt>
        <trkpt lat="28.833859" lon="105.294726"><ele>379.42734</ele><time>2026-03-31T21:53:32.000Z</time></trkpt>
        <trkpt lat="28.833896" lon="105.294694"><ele>380.2563</ele><time>2026-03-31T21:53:37.000Z</time></trkpt>
        <trkpt lat="28.833927" lon="105.294666"><ele>382.8436</ele><time>2026-03-31T21:53:44.000Z</time></trkpt>
        <trkpt lat="28.833968" lon="105.294655"><ele>385.32837</ele><time>2026-03-31T21:53:54.000Z</time></trkpt>
        <trkpt lat="28.834001" lon="105.294694"><ele>386.24075</ele><time>2026-03-31T21:54:00.000Z</time></trkpt>
        <trkpt lat="28.834024" lon="105.294735"><ele>387.6433</ele><time>2026-03-31T21:54:14.000Z</time></trkpt>
        <trkpt lat="28.834013" lon="105.294793"><ele>388.25162</ele><time>2026-03-31T21:54:23.000Z</time></trkpt>
        <trkpt lat="28.834019" lon="105.294846"><ele>389.2026</ele><time>2026-03-31T21:54:34.000Z</time></trkpt>
        <trkpt lat="28.83403" lon="105.294898"><ele>391.16016</ele><time>2026-03-31T21:54:54.000Z</time></trkpt>
        <trkpt lat="28.83405" lon="105.294949"><ele>392.51575</ele><time>2026-03-31T21:55:01.000Z</time></trkpt>
        <trkpt lat="28.834055" lon="105.294994"><ele>395.2328</ele><time>2026-03-31T21:55:22.000Z</time></trkpt>
        <trkpt lat="28.834061" lon="105.295048"><ele>398.11713</ele><time>2026-03-31T21:55:49.000Z</time></trkpt>
        <trkpt lat="28.834077" lon="105.295097"><ele>400.2299</ele><time>2026-03-31T21:56:15.000Z</time></trkpt>
        <trkpt lat="28.83411" lon="105.295096"><ele>403.72507</ele><time>2026-03-31T21:56:33.000Z</time></trkpt>
        <trkpt lat="28.834133" lon="105.295141"><ele>405.4465</ele><time>2026-03-31T21:56:43.000Z</time></trkpt>
        <trkpt lat="28.834164" lon="105.295181"><ele>407.25818</ele><time>2026-03-31T21:59:19.000Z</time></trkpt>
        <trkpt lat="28.83417" lon="105.29523"><ele>409.27957</ele><time>2026-03-31T21:59:26.000Z</time></trkpt>
        <trkpt lat="28.834183" lon="105.295278"><ele>411.12607</ele><time>2026-03-31T21:59:33.000Z</time></trkpt>
        <trkpt lat="28.834198" lon="105.295325"><ele>413.45847</ele><time>2026-03-31T21:59:47.000Z</time></trkpt>
        <trkpt lat="28.834202" lon="105.295356"><ele>417.48245</ele><time>2026-03-31T22:00:14.000Z</time></trkpt>
        <trkpt lat="28.834206" lon="105.295402"><ele>419.89062</ele><time>2026-03-31T22:00:29.000Z</time></trkpt>
        <trkpt lat="28.834224" lon="105.295444"><ele>422.6151</ele><time>2026-03-31T22:00:34.000Z</time></trkpt>
        <trkpt lat="28.834222" lon="105.295486"><ele>425.46872</ele><time>2026-03-31T22:01:00.000Z</time></trkpt>
        <trkpt lat="28.834186" lon="105.295491"><ele>428.94272</ele><time>2026-03-31T22:01:18.000Z</time></trkpt>
        <trkpt lat="28.834161" lon="105.295513"><ele>432.6067</ele><time>2026-03-31T22:01:46.000Z</time></trkpt>
        <trkpt lat="28.834132" lon="105.295525"><ele>436.73013</ele><time>2026-03-31T22:01:59.000Z</time></trkpt>
        <trkpt lat="28.834106" lon="105.295572"><ele>439.84427</ele><time>2026-03-31T22:02:27.000Z</time></trkpt>
        <trkpt lat="28.834163" lon="105.295589"><ele>441.54022</ele><time>2026-03-31T22:02:32.000Z</time></trkpt>
        <trkpt lat="28.834116" lon="105.295607"><ele>443.8057</ele><time>2026-03-31T22:02:38.000Z</time></trkpt>
        <trkpt lat="28.834068" lon="105.295612"><ele>445.0895</ele><time>2026-03-31T22:04:04.000Z</time></trkpt>
        <trkpt lat="28.834042" lon="105.295573"><ele>447.57272</ele><time>2026-03-31T22:04:26.000Z</time></trkpt>
        <trkpt lat="28.834066" lon="105.295623"><ele>448.96124</ele><time>2026-03-31T22:04:49.000Z</time></trkpt>
        <trkpt lat="28.834024" lon="105.295643"><ele>452.10822</ele><time>2026-03-31T22:07:00.000Z</time></trkpt>
        <trkpt lat="28.834012" lon="105.295708"><ele>452.98978</ele><time>2026-03-31T22:07:06.000Z</time></trkpt>
        <trkpt lat="28.834018" lon="105.295763"><ele>453.82288</ele><time>2026-03-31T22:07:11.000Z</time></trkpt>
        <trkpt lat="28.834023" lon="105.295819"><ele>455.13202</ele><time>2026-03-31T22:07:22.000Z</time></trkpt>
        <trkpt lat="28.833999" lon="105.295868"><ele>456.61053</ele><time>2026-03-31T22:07:31.000Z</time></trkpt>
        <trkpt lat="28.834006" lon="105.295926"><ele>458.4156</ele><time>2026-03-31T22:08:00.000Z</time></trkpt>
        <trkpt lat="28.834038" lon="105.295977"><ele>459.19415</ele><time>2026-03-31T22:08:02.000Z</time></trkpt>
        <trkpt lat="28.834085" lon="105.296"><ele>459.5071</ele><time>2026-03-31T22:08:04.000Z</time></trkpt>
        <trkpt lat="28.834041" lon="105.296033"><ele>459.30423</ele><time>2026-03-31T22:08:09.000Z</time></trkpt>
        <trkpt lat="28.834071" lon="105.296083"><ele>461.80994</ele><time>2026-03-31T22:08:26.000Z</time></trkpt>
        <trkpt lat="28.83401" lon="105.296085"><ele>461.8954</ele><time>2026-03-31T22:08:31.000Z</time></trkpt>
        <trkpt lat="28.833973" lon="105.296067"><ele>464.23056</ele><time>2026-03-31T22:09:02.000Z</time></trkpt>
        <trkpt lat="28.834003" lon="105.296036"><ele>467.47104</ele><time>2026-03-31T22:09:24.000Z</time></trkpt>
        <trkpt lat="28.834079" lon="105.29602"><ele>466.88696</ele><time>2026-03-31T22:09:26.000Z</time></trkpt>
        <trkpt lat="28.834045" lon="105.296074"><ele>465.6876</ele><time>2026-03-31T22:09:28.000Z</time></trkpt>
        <trkpt lat="28.834006" lon="105.296103"><ele>465.45468</ele><time>2026-03-31T22:09:29.000Z</time></trkpt>
        <trkpt lat="28.833959" lon="105.296097"><ele>465.3477</ele><time>2026-03-31T22:09:31.000Z</time></trkpt>
        <trkpt lat="28.833939" lon="105.296053"><ele>467.22098</ele><time>2026-03-31T22:09:52.000Z</time></trkpt>
        <trkpt lat="28.83393" lon="105.296002"><ele>467.53378</ele><time>2026-03-31T22:10:19.000Z</time></trkpt>
        <trkpt lat="28.833888" lon="105.296018"><ele>469.19034</ele><time>2026-03-31T22:15:35.000Z</time></trkpt>
        <trkpt lat="28.833923" lon="105.296077"><ele>468.74225</ele><time>2026-03-31T22:15:41.000Z</time></trkpt>
        <trkpt lat="28.833934" lon="105.296002"><ele>469.1957</ele><time>2026-03-31T22:17:41.000Z</time></trkpt>
        <trkpt lat="28.833991" lon="105.296006"><ele>468.77106</ele><time>2026-03-31T22:18:10.000Z</time></trkpt>
        <trkpt lat="28.83404" lon="105.295998"><ele>468.7479</ele><time>2026-03-31T22:18:11.000Z</time></trkpt>
        <trkpt lat="28.834077" lon="105.295958"><ele>468.47668</ele><time>2026-03-31T22:18:13.000Z</time></trkpt>
        <trkpt lat="28.83403" lon="105.295968"><ele>468.8987</ele><time>2026-03-31T22:18:17.000Z</time></trkpt>
        <trkpt lat="28.833989" lon="105.295994"><ele>469.53937</ele><time>2026-03-31T22:19:33.000Z</time></trkpt>
        <trkpt lat="28.833945" lon="105.296008"><ele>470.0467</ele><time>2026-03-31T22:20:02.000Z</time></trkpt>
        <trkpt lat="28.833902" lon="105.296024"><ele>471.08368</ele><time>2026-03-31T22:20:25.000Z</time></trkpt>
        <trkpt lat="28.833859" lon="105.296052"><ele>470.87878</ele><time>2026-03-31T22:21:35.000Z</time></trkpt>
        <trkpt lat="28.833857" lon="105.296071"><ele>475.5992</ele><time>2026-03-31T22:23:49.000Z</time></trkpt>
        <trkpt lat="28.833824" lon="105.296066"><ele>479.22778</ele><time>2026-03-31T22:24:09.000Z</time></trkpt>
        <trkpt lat="28.833806" lon="105.296063"><ele>483.84464</ele><time>2026-03-31T22:26:18.000Z</time></trkpt>
        <trkpt lat="28.833816" lon="105.29609"><ele>488.58734</ele><time>2026-03-31T22:26:30.000Z</time></trkpt>
        <trkpt lat="28.833838" lon="105.296104"><ele>493.13107</ele><time>2026-03-31T22:26:53.000Z</time></trkpt>
        <trkpt lat="28.833818" lon="105.296155"><ele>495.31326</ele><time>2026-03-31T22:27:32.000Z</time></trkpt>
        <trkpt lat="28.833794" lon="105.296187"><ele>498.3299</ele><time>2026-03-31T22:27:38.000Z</time></trkpt>
        <trkpt lat="28.833786" lon="105.296237"><ele>501.1239</ele><time>2026-03-31T22:28:14.000Z</time></trkpt>
        <trkpt lat="28.833753" lon="105.296277"><ele>501.8836</ele><time>2026-03-31T22:28:21.000Z</time></trkpt>
        <trkpt lat="28.83372" lon="105.296314"><ele>502.74884</ele><time>2026-03-31T22:28:48.000Z</time></trkpt>
        <trkpt lat="28.833693" lon="105.296362"><ele>504.12476</ele><time>2026-03-31T22:28:55.000Z</time></trkpt>
        <trkpt lat="28.833673" lon="105.296411"><ele>504.16547</ele><time>2026-03-31T22:29:02.000Z</time></trkpt>
        <trkpt lat="28.833663" lon="105.296468"><ele>504.132</ele><time>2026-03-31T22:29:15.000Z</time></trkpt>
        <trkpt lat="28.833668" lon="105.296525"><ele>504.30444</ele><time>2026-03-31T22:29:24.000Z</time></trkpt>
        <trkpt lat="28.83366" lon="105.296577"><ele>504.77332</ele><time>2026-03-31T22:29:29.000Z</time></trkpt>
        <trkpt lat="28.833622" lon="105.296618"><ele>503.91888</ele><time>2026-03-31T22:29:35.000Z</time></trkpt>
        <trkpt lat="28.833586" lon="105.296655"><ele>505.04224</ele><time>2026-03-31T22:29:42.000Z</time></trkpt>
        <trkpt lat="28.833542" lon="105.296639"><ele>505.26556</ele><time>2026-03-31T22:29:48.000Z</time></trkpt>
        <trkpt lat="28.833501" lon="105.296609"><ele>506.38037</ele><time>2026-03-31T22:29:57.000Z</time></trkpt>
        <trkpt lat="28.833447" lon="105.2966"><ele>506.81467</ele><time>2026-03-31T22:30:03.000Z</time></trkpt>
        <trkpt lat="28.833423" lon="105.296644"><ele>506.4091</ele><time>2026-03-31T22:30:08.000Z</time></trkpt>
        <trkpt lat="28.833431" lon="105.296699"><ele>505.848</ele><time>2026-03-31T22:30:14.000Z</time></trkpt>
        <trkpt lat="28.833413" lon="105.296754"><ele>505.6813</ele><time>2026-03-31T22:30:20.000Z</time></trkpt>
        <trkpt lat="28.833367" lon="105.296757"><ele>507.60245</ele><time>2026-03-31T22:30:26.000Z</time></trkpt>
        <trkpt lat="28.833328" lon="105.296746"><ele>504.7715</ele><time>2026-03-31T22:33:12.000Z</time></trkpt>
        <trkpt lat="28.833298" lon="105.29679"><ele>505.06213</ele><time>2026-03-31T22:33:17.000Z</time></trkpt>
        <trkpt lat="28.833284" lon="105.296843"><ele>504.97885</ele><time>2026-03-31T22:33:23.000Z</time></trkpt>
        <trkpt lat="28.833257" lon="105.296897"><ele>505.25513</ele><time>2026-03-31T22:33:28.000Z</time></trkpt>
        <trkpt lat="28.833213" lon="105.29692"><ele>505.9034</ele><time>2026-03-31T22:33:33.000Z</time></trkpt>
        <trkpt lat="28.833166" lon="105.296951"><ele>506.55426</ele><time>2026-03-31T22:33:38.000Z</time></trkpt>
        <trkpt lat="28.83312" lon="105.296937"><ele>506.37482</ele><time>2026-03-31T22:33:43.000Z</time></trkpt>
        <trkpt lat="28.833073" lon="105.296923"><ele>506.0269</ele><time>2026-03-31T22:33:48.000Z</time></trkpt>
        <trkpt lat="28.833023" lon="105.296916"><ele>505.56824</ele><time>2026-03-31T22:33:52.000Z</time></trkpt>
        <trkpt lat="28.832967" lon="105.29691"><ele>505.47382</ele><time>2026-03-31T22:33:57.000Z</time></trkpt>
        <trkpt lat="28.832925" lon="105.296883"><ele>504.96268</ele><time>2026-03-31T22:34:01.000Z</time></trkpt>
        <trkpt lat="28.832884" lon="105.296848"><ele>504.54315</ele><time>2026-03-31T22:34:07.000Z</time></trkpt>
        <trkpt lat="28.832855" lon="105.296822"><ele>501.46005</ele><time>2026-03-31T22:34:12.000Z</time></trkpt>
        <trkpt lat="28.832813" lon="105.296808"><ele>500.17432</ele><time>2026-03-31T22:34:20.000Z</time></trkpt>
        <trkpt lat="28.832761" lon="105.29682"><ele>499.7977</ele><time>2026-03-31T22:34:25.000Z</time></trkpt>
        <trkpt lat="28.832713" lon="105.296839"><ele>499.28537</ele><time>2026-03-31T22:34:33.000Z</time></trkpt>
        <trkpt lat="28.832678" lon="105.296878"><ele>499.1876</ele><time>2026-03-31T22:34:38.000Z</time></trkpt>
        <trkpt lat="28.832633" lon="105.296895"><ele>499.37073</ele><time>2026-03-31T22:34:44.000Z</time></trkpt>
        <trkpt lat="28.832583" lon="105.296884"><ele>499.70694</ele><time>2026-03-31T22:34:50.000Z</time></trkpt>
        <trkpt lat="28.832529" lon="105.296872"><ele>499.52777</ele><time>2026-03-31T22:34:55.000Z</time></trkpt>
        <trkpt lat="28.832483" lon="105.296876"><ele>499.9874</ele><time>2026-03-31T22:35:00.000Z</time></trkpt>
        <trkpt lat="28.832439" lon="105.296895"><ele>500.56104</ele><time>2026-03-31T22:35:07.000Z</time></trkpt>
        <trkpt lat="28.832423" lon="105.296946"><ele>500.781</ele><time>2026-03-31T22:35:12.000Z</time></trkpt>
        <trkpt lat="28.832404" lon="105.296992"><ele>500.55728</ele><time>2026-03-31T22:35:17.000Z</time></trkpt>
        <trkpt lat="28.832386" lon="105.297044"><ele>500.8627</ele><time>2026-03-31T22:35:22.000Z</time></trkpt>
        <trkpt lat="28.832339" lon="105.297047"><ele>501.72443</ele><time>2026-03-31T22:35:29.000Z</time></trkpt>
        <trkpt lat="28.832294" lon="105.297035"><ele>502.51532</ele><time>2026-03-31T22:35:38.000Z</time></trkpt>
        <trkpt lat="28.832252" lon="105.29706"><ele>502.523</ele><time>2026-03-31T22:35:54.000Z</time></trkpt>
        <trkpt lat="28.832262" lon="105.297115"><ele>502.43542</ele><time>2026-03-31T22:35:58.000Z</time></trkpt>
        <trkpt lat="28.832289" lon="105.297165"><ele>501.49594</ele><time>2026-03-31T22:36:03.000Z</time></trkpt>
        <trkpt lat="28.832318" lon="105.297205"><ele>501.62396</ele><time>2026-03-31T22:36:24.000Z</time></trkpt>
        <trkpt lat="28.832336" lon="105.297261"><ele>502.0436</ele><time>2026-03-31T22:36:32.000Z</time></trkpt>
        <trkpt lat="28.83235" lon="105.297319"><ele>502.40744</ele><time>2026-03-31T22:36:38.000Z</time></trkpt>
        <trkpt lat="28.832368" lon="105.297374"><ele>502.62158</ele><time>2026-03-31T22:36:46.000Z</time></trkpt>
        <trkpt lat="28.832369" lon="105.297427"><ele>502.65466</ele><time>2026-03-31T22:36:51.000Z</time></trkpt>
        <trkpt lat="28.832369" lon="105.297483"><ele>502.53265</ele><time>2026-03-31T22:36:55.000Z</time></trkpt>
        <trkpt lat="28.832369" lon="105.29754"><ele>502.51468</ele><time>2026-03-31T22:36:59.000Z</time></trkpt>
        <trkpt lat="28.832371" lon="105.297603"><ele>502.04724</ele><time>2026-03-31T22:37:04.000Z</time></trkpt>
        <trkpt lat="28.832387" lon="105.297656"><ele>501.6286</ele><time>2026-03-31T22:37:08.000Z</time></trkpt>
        <trkpt lat="28.832413" lon="105.297703"><ele>501.67426</ele><time>2026-03-31T22:37:12.000Z</time></trkpt>
        <trkpt lat="28.832447" lon="105.297742"><ele>501.76828</ele><time>2026-03-31T22:37:16.000Z</time></trkpt>
        <trkpt lat="28.832479" lon="105.297783"><ele>501.4614</ele><time>2026-03-31T22:37:20.000Z</time></trkpt>
        <trkpt lat="28.832513" lon="105.297816"><ele>500.95132</ele><time>2026-03-31T22:37:24.000Z</time></trkpt>
        <trkpt lat="28.83254" lon="105.297867"><ele>501.5512</ele><time>2026-03-31T22:37:33.000Z</time></trkpt>
        <trkpt lat="28.832528" lon="105.297918"><ele>501.9184</ele><time>2026-03-31T22:37:48.000Z</time></trkpt>
        <trkpt lat="28.832493" lon="105.297963"><ele>501.76837</ele><time>2026-03-31T22:37:52.000Z</time></trkpt>
        <trkpt lat="28.832448" lon="105.298"><ele>501.8184</ele><time>2026-03-31T22:37:57.000Z</time></trkpt>
        <trkpt lat="28.832414" lon="105.298035"><ele>501.96188</ele><time>2026-03-31T22:38:02.000Z</time></trkpt>
        <trkpt lat="28.832382" lon="105.298075"><ele>501.84122</ele><time>2026-03-31T22:38:07.000Z</time></trkpt>
        <trkpt lat="28.832347" lon="105.298119"><ele>501.91507</ele><time>2026-03-31T22:38:11.000Z</time></trkpt>
        <trkpt lat="28.832315" lon="105.298179"><ele>501.82663</ele><time>2026-03-31T22:38:14.000Z</time></trkpt>
        <trkpt lat="28.832293" lon="105.298245"><ele>501.29636</ele><time>2026-03-31T22:38:17.000Z</time></trkpt>
        <trkpt lat="28.83227" lon="105.298295"><ele>500.58493</ele><time>2026-03-31T22:38:21.000Z</time></trkpt>
        <trkpt lat="28.832235" lon="105.29833"><ele>500.06308</ele><time>2026-03-31T22:38:25.000Z</time></trkpt>
        <trkpt lat="28.832194" lon="105.298364"><ele>499.4754</ele><time>2026-03-31T22:38:29.000Z</time></trkpt>
        <trkpt lat="28.832162" lon="105.298406"><ele>499.0921</ele><time>2026-03-31T22:38:33.000Z</time></trkpt>
        <trkpt lat="28.832129" lon="105.298448"><ele>498.81363</ele><time>2026-03-31T22:38:37.000Z</time></trkpt>
        <trkpt lat="28.832096" lon="105.298498"><ele>498.49335</ele><time>2026-03-31T22:38:42.000Z</time></trkpt>
        <trkpt lat="28.832068" lon="105.29855"><ele>498.69547</ele><time>2026-03-31T22:38:47.000Z</time></trkpt>
        <trkpt lat="28.832037" lon="105.298605"><ele>498.81787</ele><time>2026-03-31T22:38:52.000Z</time></trkpt>
        <trkpt lat="28.831997" lon="105.298653"><ele>498.7292</ele><time>2026-03-31T22:38:56.000Z</time></trkpt>
        <trkpt lat="28.831962" lon="105.2987"><ele>498.33545</ele><time>2026-03-31T22:39:00.000Z</time></trkpt>
        <trkpt lat="28.831926" lon="105.298742"><ele>498.14453</ele><time>2026-03-31T22:39:04.000Z</time></trkpt>
        <trkpt lat="28.831889" lon="105.298788"><ele>497.84702</ele><time>2026-03-31T22:39:09.000Z</time></trkpt>
        <trkpt lat="28.831861" lon="105.298833"><ele>497.07913</ele><time>2026-03-31T22:39:13.000Z</time></trkpt>
        <trkpt lat="28.831849" lon="105.298888"><ele>496.37402</ele><time>2026-03-31T22:39:17.000Z</time></trkpt>
        <trkpt lat="28.831835" lon="105.298947"><ele>495.73328</ele><time>2026-03-31T22:39:22.000Z</time></trkpt>
        <trkpt lat="28.831828" lon="105.299011"><ele>495.50403</ele><time>2026-03-31T22:39:27.000Z</time></trkpt>
        <trkpt lat="28.831834" lon="105.299066"><ele>495.02258</ele><time>2026-03-31T22:39:31.000Z</time></trkpt>
        <trkpt lat="28.831851" lon="105.299115"><ele>494.57355</ele><time>2026-03-31T22:39:34.000Z</time></trkpt>
        <trkpt lat="28.831877" lon="105.299166"><ele>493.74326</ele><time>2026-03-31T22:39:39.000Z</time></trkpt>
        <trkpt lat="28.831897" lon="105.299212"><ele>493.59256</ele><time>2026-03-31T22:39:43.000Z</time></trkpt>
        <trkpt lat="28.831914" lon="105.299274"><ele>493.12988</ele><time>2026-03-31T22:39:48.000Z</time></trkpt>
        <trkpt lat="28.831924" lon="105.299328"><ele>493.15387</ele><time>2026-03-31T22:39:52.000Z</time></trkpt>
        <trkpt lat="28.831922" lon="105.299384"><ele>492.78784</ele><time>2026-03-31T22:39:56.000Z</time></trkpt>
        <trkpt lat="28.831924" lon="105.299443"><ele>492.4761</ele><time>2026-03-31T22:40:01.000Z</time></trkpt>
        <trkpt lat="28.831934" lon="105.29951"><ele>492.67303</ele><time>2026-03-31T22:40:05.000Z</time></trkpt>
        <trkpt lat="28.831939" lon="105.299564"><ele>492.5994</ele><time>2026-03-31T22:40:09.000Z</time></trkpt>
        <trkpt lat="28.831926" lon="105.299617"><ele>492.64725</ele><time>2026-03-31T22:40:13.000Z</time></trkpt>
        <trkpt lat="28.831896" lon="105.299665"><ele>492.7375</ele><time>2026-03-31T22:40:17.000Z</time></trkpt>
        <trkpt lat="28.831861" lon="105.299707"><ele>492.80606</ele><time>2026-03-31T22:40:21.000Z</time></trkpt>
        <trkpt lat="28.831827" lon="105.299748"><ele>492.65897</ele><time>2026-03-31T22:40:25.000Z</time></trkpt>
        <trkpt lat="28.831802" lon="105.299799"><ele>492.09805</ele><time>2026-03-31T22:40:29.000Z</time></trkpt>
        <trkpt lat="28.831778" lon="105.299853"><ele>491.7835</ele><time>2026-03-31T22:40:33.000Z</time></trkpt>
        <trkpt lat="28.83175" lon="105.299907"><ele>491.27658</ele><time>2026-03-31T22:40:37.000Z</time></trkpt>
        <trkpt lat="28.831733" lon="105.299961"><ele>490.6731</ele><time>2026-03-31T22:40:41.000Z</time></trkpt>
        <trkpt lat="28.831739" lon="105.300014"><ele>490.38947</ele><time>2026-03-31T22:40:45.000Z</time></trkpt>
        <trkpt lat="28.83176" lon="105.300066"><ele>490.2369</ele><time>2026-03-31T22:40:49.000Z</time></trkpt>
        <trkpt lat="28.831783" lon="105.30011"><ele>489.84918</ele><time>2026-03-31T22:40:53.000Z</time></trkpt>
        <trkpt lat="28.831792" lon="105.300162"><ele>489.65277</ele><time>2026-03-31T22:40:57.000Z</time></trkpt>
        <trkpt lat="28.831786" lon="105.30022"><ele>489.487</ele><time>2026-03-31T22:41:01.000Z</time></trkpt>
        <trkpt lat="28.831765" lon="105.300276"><ele>489.6799</ele><time>2026-03-31T22:41:06.000Z</time></trkpt>
        <trkpt lat="28.831746" lon="105.300335"><ele>489.66574</ele><time>2026-03-31T22:41:10.000Z</time></trkpt>
        <trkpt lat="28.831741" lon="105.300395"><ele>490.56787</ele><time>2026-03-31T22:41:15.000Z</time></trkpt>
        <trkpt lat="28.831735" lon="105.300455"><ele>490.67166</ele><time>2026-03-31T22:41:19.000Z</time></trkpt>
        <trkpt lat="28.831717" lon="105.30051"><ele>490.54825</ele><time>2026-03-31T22:41:22.000Z</time></trkpt>
        <trkpt lat="28.831698" lon="105.300564"><ele>490.66516</ele><time>2026-03-31T22:41:26.000Z</time></trkpt>
        <trkpt lat="28.831699" lon="105.300622"><ele>491.219</ele><time>2026-03-31T22:41:30.000Z</time></trkpt>
        <trkpt lat="28.831718" lon="105.300672"><ele>492.75455</ele><time>2026-03-31T22:41:34.000Z</time></trkpt>
        <trkpt lat="28.831732" lon="105.300723"><ele>493.53726</ele><time>2026-03-31T22:41:38.000Z</time></trkpt>
        <trkpt lat="28.831766" lon="105.300765"><ele>493.12656</ele><time>2026-03-31T22:41:44.000Z</time></trkpt>
        <trkpt lat="28.831811" lon="105.300789"><ele>492.80014</ele><time>2026-03-31T22:41:48.000Z</time></trkpt>
        <trkpt lat="28.831863" lon="105.300787"><ele>492.28116</ele><time>2026-03-31T22:41:53.000Z</time></trkpt>
        <trkpt lat="28.83192" lon="105.30078"><ele>491.23685</ele><time>2026-03-31T22:41:58.000Z</time></trkpt>
        <trkpt lat="28.831966" lon="105.300774"><ele>490.1069</ele><time>2026-03-31T22:42:02.000Z</time></trkpt>
        <trkpt lat="28.832021" lon="105.300763"><ele>489.51135</ele><time>2026-03-31T22:42:07.000Z</time></trkpt>
        <trkpt lat="28.832068" lon="105.300738"><ele>489.96124</ele><time>2026-03-31T22:42:10.000Z</time></trkpt>
        <trkpt lat="28.832111" lon="105.300718"><ele>489.93115</ele><time>2026-03-31T22:42:32.000Z</time></trkpt>
        <trkpt lat="28.832157" lon="105.300687"><ele>489.53912</ele><time>2026-03-31T22:42:35.000Z</time></trkpt>
        <trkpt lat="28.832203" lon="105.300672"><ele>489.5854</ele><time>2026-03-31T22:42:38.000Z</time></trkpt>
        <trkpt lat="28.832258" lon="105.300659"><ele>489.98392</ele><time>2026-03-31T22:42:42.000Z</time></trkpt>
        <trkpt lat="28.832302" lon="105.300641"><ele>489.71445</ele><time>2026-03-31T22:42:46.000Z</time></trkpt>
        <trkpt lat="28.832346" lon="105.300617"><ele>490.31836</ele><time>2026-03-31T22:42:50.000Z</time></trkpt>
        <trkpt lat="28.832385" lon="105.30057"><ele>490.78494</ele><time>2026-03-31T22:42:54.000Z</time></trkpt>
        <trkpt lat="28.832426" lon="105.300523"><ele>491.89548</ele><time>2026-03-31T22:42:58.000Z</time></trkpt>
        <trkpt lat="28.832476" lon="105.300512"><ele>492.02258</ele><time>2026-03-31T22:43:03.000Z</time></trkpt>
        <trkpt lat="28.832542" lon="105.300499"><ele>492.32623</ele><time>2026-03-31T22:43:07.000Z</time></trkpt>
        <trkpt lat="28.832594" lon="105.300487"><ele>492.0218</ele><time>2026-03-31T22:43:09.000Z</time></trkpt>
        <trkpt lat="28.832645" lon="105.300473"><ele>492.0491</ele><time>2026-03-31T22:43:12.000Z</time></trkpt>
        <trkpt lat="28.832687" lon="105.300448"><ele>492.49155</ele><time>2026-03-31T22:43:16.000Z</time></trkpt>
        <trkpt lat="28.83273" lon="105.300474"><ele>491.6237</ele><time>2026-03-31T22:43:23.000Z</time></trkpt>
        <trkpt lat="28.832772" lon="105.300489"><ele>489.96426</ele><time>2026-03-31T22:43:34.000Z</time></trkpt>
        <trkpt lat="28.832785" lon="105.30053"><ele>492.81705</ele><time>2026-03-31T22:44:23.000Z</time></trkpt>
        <trkpt lat="28.832811" lon="105.300572"><ele>493.5481</ele><time>2026-03-31T22:44:29.000Z</time></trkpt>
        <trkpt lat="28.832816" lon="105.30062"><ele>496.25574</ele><time>2026-03-31T22:44:57.000Z</time></trkpt>
        <trkpt lat="28.832816" lon="105.300675"><ele>499.0265</ele><time>2026-03-31T22:45:01.000Z</time></trkpt>
        <trkpt lat="28.832802" lon="105.30072"><ele>501.08838</ele><time>2026-03-31T22:45:04.000Z</time></trkpt>
        <trkpt lat="28.832805" lon="105.300771"><ele>501.81628</ele><time>2026-03-31T22:45:28.000Z</time></trkpt>
        <trkpt lat="28.832805" lon="105.300827"><ele>502.00885</ele><time>2026-03-31T22:45:36.000Z</time></trkpt>
        <trkpt lat="28.832786" lon="105.300873"><ele>503.70715</ele><time>2026-03-31T22:45:55.000Z</time></trkpt>
        <trkpt lat="28.832783" lon="105.300924"><ele>504.45602</ele><time>2026-03-31T22:46:08.000Z</time></trkpt>
        <trkpt lat="28.832791" lon="105.300977"><ele>506.1123</ele><time>2026-03-31T22:46:15.000Z</time></trkpt>
        <trkpt lat="28.832781" lon="105.301027"><ele>507.6181</ele><time>2026-03-31T22:46:42.000Z</time></trkpt>
        <trkpt lat="28.832759" lon="105.301071"><ele>508.48737</ele><time>2026-03-31T22:47:04.000Z</time></trkpt>
        <trkpt lat="28.832715" lon="105.301104"><ele>510.49045</ele><time>2026-03-31T22:47:13.000Z</time></trkpt>
        <trkpt lat="28.832675" lon="105.301129"><ele>512.6857</ele><time>2026-03-31T22:47:21.000Z</time></trkpt>
        <trkpt lat="28.832669" lon="105.301181"><ele>513.5143</ele><time>2026-03-31T22:48:03.000Z</time></trkpt>
        <trkpt lat="28.832663" lon="105.301234"><ele>514.0386</ele><time>2026-03-31T22:48:08.000Z</time></trkpt>
        <trkpt lat="28.832633" lon="105.30128"><ele>515.18756</ele><time>2026-03-31T22:48:13.000Z</time></trkpt>
        <trkpt lat="28.83259" lon="105.301299"><ele>516.11835</ele><time>2026-03-31T22:48:20.000Z</time></trkpt>
        <trkpt lat="28.832535" lon="105.301322"><ele>516.0459</ele><time>2026-03-31T22:48:26.000Z</time></trkpt>
        <trkpt lat="28.832488" lon="105.30133"><ele>516.9447</ele><time>2026-03-31T22:48:32.000Z</time></trkpt>
        <trkpt lat="28.832464" lon="105.301287"><ele>517.92017</ele><time>2026-03-31T22:48:42.000Z</time></trkpt>
        <trkpt lat="28.832418" lon="105.301273"><ele>517.52765</ele><time>2026-03-31T22:49:00.000Z</time></trkpt>
        <trkpt lat="28.832404" lon="105.301339"><ele>517.23376</ele><time>2026-03-31T22:49:14.000Z</time></trkpt>
        <trkpt lat="28.832358" lon="105.301345"><ele>518.57806</ele><time>2026-03-31T22:49:23.000Z</time></trkpt>
        <trkpt lat="28.832317" lon="105.301313"><ele>519.0153</ele><time>2026-03-31T22:51:52.000Z</time></trkpt>
        <trkpt lat="28.832363" lon="105.301312"><ele>519.53845</ele><time>2026-03-31T22:52:56.000Z</time></trkpt>
        <trkpt lat="28.83241" lon="105.30129"><ele>520.15356</ele><time>2026-03-31T22:52:59.000Z</time></trkpt>
        <trkpt lat="28.832366" lon="105.301263"><ele>519.5955</ele><time>2026-03-31T22:54:02.000Z</time></trkpt>
        <trkpt lat="28.832324" lon="105.301299"><ele>519.89026</ele><time>2026-03-31T22:54:05.000Z</time></trkpt>
        <trkpt lat="28.832289" lon="105.301335"><ele>521.53595</ele><time>2026-03-31T22:54:11.000Z</time></trkpt>
        <trkpt lat="28.832262" lon="105.301356"><ele>525.38873</ele><time>2026-03-31T22:54:43.000Z</time></trkpt>
        <trkpt lat="28.832208" lon="105.301335"><ele>526.39526</ele><time>2026-03-31T22:54:52.000Z</time></trkpt>
        <trkpt lat="28.832242" lon="105.301371"><ele>528.36865</ele><time>2026-03-31T22:55:02.000Z</time></trkpt>
        <trkpt lat="28.832343" lon="105.301512"><ele>528.74023</ele><time>2026-03-31T22:55:06.000Z</time></trkpt>
        <trkpt lat="28.832371" lon="105.301556"><ele>527.62573</ele><time>2026-03-31T22:55:09.000Z</time></trkpt>
        <trkpt lat="28.832332" lon="105.301489"><ele>527.9439</ele><time>2026-03-31T22:55:15.000Z</time></trkpt>
        <trkpt lat="28.832301" lon="105.301443"><ele>527.2296</ele><time>2026-03-31T22:55:27.000Z</time></trkpt>
        <trkpt lat="28.832258" lon="105.301415"><ele>527.289</ele><time>2026-03-31T22:55:34.000Z</time></trkpt>
        <trkpt lat="28.832236" lon="105.301405"><ele>531.94293</ele><time>2026-03-31T22:55:45.000Z</time></trkpt>
        <trkpt lat="28.832211" lon="105.301352"><ele>532.34875</ele><time>2026-03-31T22:56:17.000Z</time></trkpt>
        <trkpt lat="28.832174" lon="105.30138"><ele>533.62634</ele><time>2026-03-31T22:56:20.000Z</time></trkpt>
        <trkpt lat="28.832142" lon="105.301456"><ele>533.67255</ele><time>2026-03-31T22:56:22.000Z</time></trkpt>
        <trkpt lat="28.832091" lon="105.301519"><ele>533.726</ele><time>2026-03-31T22:56:24.000Z</time></trkpt>
        <trkpt lat="28.83206" lon="105.301557"><ele>533.70984</ele><time>2026-03-31T22:56:25.000Z</time></trkpt>
        <trkpt lat="28.832095" lon="105.301505"><ele>534.2724</ele><time>2026-03-31T22:57:07.000Z</time></trkpt>
        <trkpt lat="28.832121" lon="105.301443"><ele>535.1972</ele><time>2026-03-31T22:57:10.000Z</time></trkpt>
        <trkpt lat="28.832134" lon="105.301392"><ele>536.0388</ele><time>2026-03-31T22:57:38.000Z</time></trkpt>
        <trkpt lat="28.832152" lon="105.301346"><ele>536.7828</ele><time>2026-03-31T22:59:51.000Z</time></trkpt>
        <trkpt lat="28.832188" lon="105.30131"><ele>536.82715</ele><time>2026-03-31T23:01:24.000Z</time></trkpt>
        <trkpt lat="28.83217" lon="105.301358"><ele>537.15454</ele><time>2026-03-31T23:02:23.000Z</time></trkpt>
        <trkpt lat="28.83213" lon="105.301376"><ele>538.58777</ele><time>2026-03-31T23:03:54.000Z</time></trkpt>
        <trkpt lat="28.832086" lon="105.301389"><ele>539.5969</ele><time>2026-03-31T23:05:46.000Z</time></trkpt>
        <trkpt lat="28.832109" lon="105.301398"><ele>543.9672</ele><time>2026-03-31T23:07:50.000Z</time></trkpt>
        <trkpt lat="28.832145" lon="105.301424"><ele>546.5462</ele><time>2026-03-31T23:08:18.000Z</time></trkpt>
        <trkpt lat="28.832128" lon="105.30147"><ele>548.038</ele><time>2026-03-31T23:08:46.000Z</time></trkpt>
        <trkpt lat="28.832127" lon="105.301513"><ele>550.75464</ele><time>2026-03-31T23:09:48.000Z</time></trkpt>
        <trkpt lat="28.832115" lon="105.301535"><ele>555.39435</ele><time>2026-03-31T23:10:15.000Z</time></trkpt>
        <trkpt lat="28.832118" lon="105.301567"><ele>559.8481</ele><time>2026-03-31T23:11:02.000Z</time></trkpt>
        <trkpt lat="28.832129" lon="105.301597"><ele>565.0372</ele><time>2026-03-31T23:11:25.000Z</time></trkpt>
        <trkpt lat="28.832126" lon="105.301605"><ele>571.43866</ele><time>2026-03-31T23:13:28.000Z</time></trkpt>
        <trkpt lat="28.832156" lon="105.301661"><ele>571.3027</ele><time>2026-03-31T23:15:57.000Z</time></trkpt>
        <trkpt lat="28.832175" lon="105.301707"><ele>571.3741</ele><time>2026-03-31T23:16:02.000Z</time></trkpt>
        <trkpt lat="28.832204" lon="105.301742"><ele>568.7749</ele><time>2026-03-31T23:16:15.000Z</time></trkpt>
        <trkpt lat="28.832238" lon="105.301796"><ele>568.7345</ele><time>2026-03-31T23:16:21.000Z</time></trkpt>
        <trkpt lat="28.832267" lon="105.301837"><ele>568.05273</ele><time>2026-03-31T23:16:24.000Z</time></trkpt>
        <trkpt lat="28.832304" lon="105.301884"><ele>568.0675</ele><time>2026-03-31T23:16:28.000Z</time></trkpt>
        <trkpt lat="28.832334" lon="105.301932"><ele>568.8307</ele><time>2026-03-31T23:16:30.000Z</time></trkpt>
        <trkpt lat="28.832359" lon="105.301987"><ele>569.42664</ele><time>2026-03-31T23:16:33.000Z</time></trkpt>
        <trkpt lat="28.832366" lon="105.302057"><ele>571.54095</ele><time>2026-03-31T23:16:36.000Z</time></trkpt>
        <trkpt lat="28.83236" lon="105.302115"><ele>573.89575</ele><time>2026-03-31T23:16:39.000Z</time></trkpt>
        <trkpt lat="28.832384" lon="105.30216"><ele>576.2359</ele><time>2026-03-31T23:16:43.000Z</time></trkpt>
        <trkpt lat="28.832431" lon="105.302175"><ele>577.59204</ele><time>2026-03-31T23:16:48.000Z</time></trkpt>
        <trkpt lat="28.832474" lon="105.302193"><ele>578.3554</ele><time>2026-03-31T23:16:53.000Z</time></trkpt>
        <trkpt lat="28.832517" lon="105.302216"><ele>578.7404</ele><time>2026-03-31T23:16:58.000Z</time></trkpt>
        <trkpt lat="28.832558" lon="105.302229"><ele>575.56744</ele><time>2026-03-31T23:17:25.000Z</time></trkpt>
        <trkpt lat="28.832604" lon="105.302245"><ele>572.91785</ele><time>2026-03-31T23:17:34.000Z</time></trkpt>
        <trkpt lat="28.832654" lon="105.302269"><ele>569.9356</ele><time>2026-03-31T23:17:37.000Z</time></trkpt>
        <trkpt lat="28.832686" lon="105.302305"><ele>566.9091</ele><time>2026-03-31T23:17:40.000Z</time></trkpt>
        <trkpt lat="28.832717" lon="105.302342"><ele>564.1963</ele><time>2026-03-31T23:17:44.000Z</time></trkpt>
        <trkpt lat="28.832744" lon="105.30238"><ele>561.6345</ele><time>2026-03-31T23:17:49.000Z</time></trkpt>
        <trkpt lat="28.832768" lon="105.302429"><ele>559.3811</ele><time>2026-03-31T23:17:53.000Z</time></trkpt>
        <trkpt lat="28.83279" lon="105.302475"><ele>557.688</ele><time>2026-03-31T23:17:56.000Z</time></trkpt>
        <trkpt lat="28.832823" lon="105.302511"><ele>555.9518</ele><time>2026-03-31T23:18:01.000Z</time></trkpt>
        <trkpt lat="28.832863" lon="105.302536"><ele>553.8347</ele><time>2026-03-31T23:18:06.000Z</time></trkpt>
        <trkpt lat="28.832905" lon="105.302554"><ele>552.16095</ele><time>2026-03-31T23:18:11.000Z</time></trkpt>
        <trkpt lat="28.83294" lon="105.302583"><ele>550.5878</ele><time>2026-03-31T23:18:15.000Z</time></trkpt>
        <trkpt lat="28.832969" lon="105.302621"><ele>547.88385</ele><time>2026-03-31T23:18:19.000Z</time></trkpt>
        <trkpt lat="28.832989" lon="105.302665"><ele>545.8369</ele><time>2026-03-31T23:18:23.000Z</time></trkpt>
        <trkpt lat="28.833015" lon="105.302712"><ele>542.1729</ele><time>2026-03-31T23:18:27.000Z</time></trkpt>
        <trkpt lat="28.833038" lon="105.302753"><ele>539.94135</ele><time>2026-03-31T23:18:31.000Z</time></trkpt>
        <trkpt lat="28.83305" lon="105.302802"><ele>537.9678</ele><time>2026-03-31T23:18:36.000Z</time></trkpt>
        <trkpt lat="28.833035" lon="105.302855"><ele>535.733</ele><time>2026-03-31T23:18:41.000Z</time></trkpt>
        <trkpt lat="28.833011" lon="105.302899"><ele>535.69604</ele><time>2026-03-31T23:18:51.000Z</time></trkpt>
        <trkpt lat="28.832968" lon="105.30292"><ele>536.78094</ele><time>2026-03-31T23:18:57.000Z</time></trkpt>
        <trkpt lat="28.832921" lon="105.302928"><ele>536.74023</ele><time>2026-03-31T23:19:04.000Z</time></trkpt>
        <trkpt lat="28.832878" lon="105.302944"><ele>536.9643</ele><time>2026-03-31T23:19:20.000Z</time></trkpt>
        <trkpt lat="28.832828" lon="105.30295"><ele>537.64923</ele><time>2026-03-31T23:19:26.000Z</time></trkpt>
        <trkpt lat="28.832783" lon="105.302961"><ele>538.4083</ele><time>2026-03-31T23:19:31.000Z</time></trkpt>
        <trkpt lat="28.832756" lon="105.302963"><ele>542.5282</ele><time>2026-03-31T23:19:34.000Z</time></trkpt>
        <trkpt lat="28.83272" lon="105.302957"><ele>548.55774</ele><time>2026-03-31T23:19:37.000Z</time></trkpt>
        <trkpt lat="28.832682" lon="105.302951"><ele>554.0909</ele><time>2026-03-31T23:19:40.000Z</time></trkpt>
        <trkpt lat="28.832641" lon="105.302946"><ele>557.9472</ele><time>2026-03-31T23:19:43.000Z</time></trkpt>
        <trkpt lat="28.832587" lon="105.302945"><ele>560.3276</ele><time>2026-03-31T23:19:46.000Z</time></trkpt>
        <trkpt lat="28.832536" lon="105.302948"><ele>562.13446</ele><time>2026-03-31T23:19:49.000Z</time></trkpt>
        <trkpt lat="28.832487" lon="105.302951"><ele>563.49884</ele><time>2026-03-31T23:19:52.000Z</time></trkpt>
        <trkpt lat="28.832436" lon="105.30296"><ele>564.4057</ele><time>2026-03-31T23:19:56.000Z</time></trkpt>
        <trkpt lat="28.832388" lon="105.302968"><ele>565.5992</ele><time>2026-03-31T23:20:00.000Z</time></trkpt>
        <trkpt lat="28.832349" lon="105.302995"><ele>567.1968</ele><time>2026-03-31T23:20:04.000Z</time></trkpt>
        <trkpt lat="28.832307" lon="105.303036"><ele>568.134</ele><time>2026-03-31T23:20:07.000Z</time></trkpt>
        <trkpt lat="28.832264" lon="105.303074"><ele>569.45514</ele><time>2026-03-31T23:20:10.000Z</time></trkpt>
        <trkpt lat="28.832217" lon="105.30309"><ele>570.36914</ele><time>2026-03-31T23:20:14.000Z</time></trkpt>
        <trkpt lat="28.832169" lon="105.303084"><ele>570.9734</ele><time>2026-03-31T23:20:18.000Z</time></trkpt>
        <trkpt lat="28.832117" lon="105.303082"><ele>572.4156</ele><time>2026-03-31T23:20:22.000Z</time></trkpt>
        <trkpt lat="28.83207" lon="105.303074"><ele>573.4597</ele><time>2026-03-31T23:20:26.000Z</time></trkpt>
        <trkpt lat="28.832027" lon="105.303057"><ele>575.2792</ele><time>2026-03-31T23:20:30.000Z</time></trkpt>
        <trkpt lat="28.831984" lon="105.303037"><ele>576.0033</ele><time>2026-03-31T23:20:34.000Z</time></trkpt>
        <trkpt lat="28.831942" lon="105.303014"><ele>577.1948</ele><time>2026-03-31T23:20:39.000Z</time></trkpt>
        <trkpt lat="28.831894" lon="105.303003"><ele>577.605</ele><time>2026-03-31T23:20:44.000Z</time></trkpt>
        <trkpt lat="28.831852" lon="105.302991"><ele>579.24774</ele><time>2026-03-31T23:20:48.000Z</time></trkpt>
        <trkpt lat="28.831794" lon="105.302988"><ele>580.8668</ele><time>2026-03-31T23:20:55.000Z</time></trkpt>
        <trkpt lat="28.831746" lon="105.30299"><ele>581.8319</ele><time>2026-03-31T23:20:59.000Z</time></trkpt>
        <trkpt lat="28.831696" lon="105.302993"><ele>581.7729</ele><time>2026-03-31T23:21:04.000Z</time></trkpt>
        <trkpt lat="28.831649" lon="105.302997"><ele>581.16907</ele><time>2026-03-31T23:21:09.000Z</time></trkpt>
        <trkpt lat="28.831605" lon="105.303019"><ele>580.9128</ele><time>2026-03-31T23:21:14.000Z</time></trkpt>
        <trkpt lat="28.831553" lon="105.303043"><ele>580.7941</ele><time>2026-03-31T23:21:19.000Z</time></trkpt>
        <trkpt lat="28.831506" lon="105.30307"><ele>580.6244</ele><time>2026-03-31T23:21:23.000Z</time></trkpt>
        <trkpt lat="28.831459" lon="105.303098"><ele>581.0588</ele><time>2026-03-31T23:21:28.000Z</time></trkpt>
        <trkpt lat="28.831415" lon="105.303123"><ele>581.0213</ele><time>2026-03-31T23:21:33.000Z</time></trkpt>
        <trkpt lat="28.831373" lon="105.303145"><ele>581.7744</ele><time>2026-03-31T23:21:38.000Z</time></trkpt>
        <trkpt lat="28.83133" lon="105.303162"><ele>582.15643</ele><time>2026-03-31T23:21:42.000Z</time></trkpt>
        <trkpt lat="28.831275" lon="105.303166"><ele>583.58057</ele><time>2026-03-31T23:21:46.000Z</time></trkpt>
        <trkpt lat="28.831227" lon="105.303168"><ele>584.3776</ele><time>2026-03-31T23:21:50.000Z</time></trkpt>
        <trkpt lat="28.831174" lon="105.303171"><ele>585.9302</ele><time>2026-03-31T23:21:54.000Z</time></trkpt>
        <trkpt lat="28.831129" lon="105.303178"><ele>587.5952</ele><time>2026-03-31T23:21:58.000Z</time></trkpt>
        <trkpt lat="28.83108" lon="105.303184"><ele>589.20245</ele><time>2026-03-31T23:22:02.000Z</time></trkpt>
        <trkpt lat="28.831032" lon="105.303183"><ele>590.17596</ele><time>2026-03-31T23:22:06.000Z</time></trkpt>
        <trkpt lat="28.830983" lon="105.303193"><ele>591.3799</ele><time>2026-03-31T23:22:11.000Z</time></trkpt>
        <trkpt lat="28.830939" lon="105.303223"><ele>591.7525</ele><time>2026-03-31T23:22:16.000Z</time></trkpt>
        <trkpt lat="28.830905" lon="105.303263"><ele>590.9625</ele><time>2026-03-31T23:22:21.000Z</time></trkpt>
        <trkpt lat="28.83088" lon="105.303316"><ele>588.99335</ele><time>2026-03-31T23:22:26.000Z</time></trkpt>
        <trkpt lat="28.830852" lon="105.303367"><ele>587.4994</ele><time>2026-03-31T23:22:31.000Z</time></trkpt>
        <trkpt lat="28.830825" lon="105.303415"><ele>586.5343</ele><time>2026-03-31T23:22:35.000Z</time></trkpt>
        <trkpt lat="28.830795" lon="105.303451"><ele>584.7603</ele><time>2026-03-31T23:22:41.000Z</time></trkpt>
        <trkpt lat="28.83075" lon="105.303495"><ele>584.23724</ele><time>2026-03-31T23:22:45.000Z</time></trkpt>
        <trkpt lat="28.830714" lon="105.30354"><ele>583.649</ele><time>2026-03-31T23:22:49.000Z</time></trkpt>
        <trkpt lat="28.830701" lon="105.303592"><ele>582.95233</ele><time>2026-03-31T23:22:54.000Z</time></trkpt>
        <trkpt lat="28.830688" lon="105.303648"><ele>582.59106</ele><time>2026-03-31T23:22:59.000Z</time></trkpt>
        <trkpt lat="28.83067" lon="105.303703"><ele>581.8421</ele><time>2026-03-31T23:23:05.000Z</time></trkpt>
        <trkpt lat="28.830653" lon="105.303752"><ele>581.80817</ele><time>2026-03-31T23:23:10.000Z</time></trkpt>
        <trkpt lat="28.830633" lon="105.303801"><ele>582.0053</ele><time>2026-03-31T23:23:14.000Z</time></trkpt>
        <trkpt lat="28.830602" lon="105.303849"><ele>581.68463</ele><time>2026-03-31T23:23:19.000Z</time></trkpt>
        <trkpt lat="28.830578" lon="105.303898"><ele>579.75385</ele><time>2026-03-31T23:23:24.000Z</time></trkpt>
        <trkpt lat="28.830539" lon="105.303954"><ele>575.77563</ele><time>2026-03-31T23:23:28.000Z</time></trkpt>
        <trkpt lat="28.830504" lon="105.303987"><ele>575.00305</ele><time>2026-03-31T23:23:32.000Z</time></trkpt>
        <trkpt lat="28.830478" lon="105.30403"><ele>574.4844</ele><time>2026-03-31T23:23:36.000Z</time></trkpt>
        <trkpt lat="28.830451" lon="105.304074"><ele>574.5344</ele><time>2026-03-31T23:23:41.000Z</time></trkpt>
        <trkpt lat="28.830424" lon="105.304132"><ele>574.1418</ele><time>2026-03-31T23:23:45.000Z</time></trkpt>
        <trkpt lat="28.830403" lon="105.304182"><ele>574.0333</ele><time>2026-03-31T23:23:48.000Z</time></trkpt>
        <trkpt lat="28.830393" lon="105.304235"><ele>574.20514</ele><time>2026-03-31T23:23:51.000Z</time></trkpt>
        <trkpt lat="28.830395" lon="105.3043"><ele>573.7011</ele><time>2026-03-31T23:23:55.000Z</time></trkpt>
        <trkpt lat="28.830419" lon="105.304353"><ele>573.0947</ele><time>2026-03-31T23:24:00.000Z</time></trkpt>
        <trkpt lat="28.830462" lon="105.304367"><ele>572.6647</ele><time>2026-03-31T23:24:05.000Z</time></trkpt>
        <trkpt lat="28.830506" lon="105.304385"><ele>572.0818</ele><time>2026-03-31T23:24:11.000Z</time></trkpt>
        <trkpt lat="28.830551" lon="105.304407"><ele>570.6645</ele><time>2026-03-31T23:24:17.000Z</time></trkpt>
        <trkpt lat="28.830595" lon="105.304443"><ele>568.4304</ele><time>2026-03-31T23:24:22.000Z</time></trkpt>
        <trkpt lat="28.830624" lon="105.304481"><ele>566.915</ele><time>2026-03-31T23:24:26.000Z</time></trkpt>
        <trkpt lat="28.830654" lon="105.304532"><ele>566.18115</ele><time>2026-03-31T23:24:31.000Z</time></trkpt>
        <trkpt lat="28.830677" lon="105.304587"><ele>566.6375</ele><time>2026-03-31T23:24:35.000Z</time></trkpt>
        <trkpt lat="28.830695" lon="105.304645"><ele>566.68427</ele><time>2026-03-31T23:24:39.000Z</time></trkpt>
        <trkpt lat="28.830702" lon="105.304705"><ele>566.80444</ele><time>2026-03-31T23:24:44.000Z</time></trkpt>
        <trkpt lat="28.830697" lon="105.304757"><ele>566.95337</ele><time>2026-03-31T23:24:49.000Z</time></trkpt>
        <trkpt lat="28.830695" lon="105.304821"><ele>566.7429</ele><time>2026-03-31T23:24:54.000Z</time></trkpt>
        <trkpt lat="28.830699" lon="105.304873"><ele>565.8774</ele><time>2026-03-31T23:24:59.000Z</time></trkpt>
        <trkpt lat="28.830695" lon="105.304924"><ele>565.03705</ele><time>2026-03-31T23:25:05.000Z</time></trkpt>
        <trkpt lat="28.830713" lon="105.304972"><ele>565.12396</ele><time>2026-03-31T23:25:09.000Z</time></trkpt>
        <trkpt lat="28.830734" lon="105.30502"><ele>564.96814</ele><time>2026-03-31T23:25:13.000Z</time></trkpt>
        <trkpt lat="28.830755" lon="105.305073"><ele>565.71515</ele><time>2026-03-31T23:25:17.000Z</time></trkpt>
        <trkpt lat="28.830795" lon="105.305103"><ele>564.983</ele><time>2026-03-31T23:25:24.000Z</time></trkpt>
        <trkpt lat="28.830842" lon="105.305113"><ele>564.2752</ele><time>2026-03-31T23:25:29.000Z</time></trkpt>
        <trkpt lat="28.830896" lon="105.305113"><ele>563.9038</ele><time>2026-03-31T23:25:33.000Z</time></trkpt>
        <trkpt lat="28.830944" lon="105.305126"><ele>563.3536</ele><time>2026-03-31T23:25:37.000Z</time></trkpt>
        <trkpt lat="28.830998" lon="105.305156"><ele>563.02435</ele><time>2026-03-31T23:25:41.000Z</time></trkpt>
        <trkpt lat="28.831042" lon="105.305195"><ele>562.7811</ele><time>2026-03-31T23:25:45.000Z</time></trkpt>
        <trkpt lat="28.831065" lon="105.305241"><ele>561.784</ele><time>2026-03-31T23:25:50.000Z</time></trkpt>
        <trkpt lat="28.831094" lon="105.305286"><ele>560.8217</ele><time>2026-03-31T23:25:55.000Z</time></trkpt>
        <trkpt lat="28.831132" lon="105.30532"><ele>560.31384</ele><time>2026-03-31T23:26:00.000Z</time></trkpt>
        <trkpt lat="28.83116" lon="105.305361"><ele>559.98114</ele><time>2026-03-31T23:26:04.000Z</time></trkpt>
        <trkpt lat="28.831187" lon="105.30541"><ele>559.4837</ele><time>2026-03-31T23:26:08.000Z</time></trkpt>
        <trkpt lat="28.831208" lon="105.30546"><ele>559.691</ele><time>2026-03-31T23:26:12.000Z</time></trkpt>
        <trkpt lat="28.831216" lon="105.305516"><ele>559.68774</ele><time>2026-03-31T23:26:16.000Z</time></trkpt>
        <trkpt lat="28.831224" lon="105.305574"><ele>560.86255</ele><time>2026-03-31T23:26:20.000Z</time></trkpt>
        <trkpt lat="28.831226" lon="105.305627"><ele>561.4814</ele><time>2026-03-31T23:26:24.000Z</time></trkpt>
        <trkpt lat="28.831231" lon="105.305681"><ele>562.5044</ele><time>2026-03-31T23:26:28.000Z</time></trkpt>
        <trkpt lat="28.831229" lon="105.305743"><ele>563.0271</ele><time>2026-03-31T23:26:33.000Z</time></trkpt>
        <trkpt lat="28.831216" lon="105.305796"><ele>563.0081</ele><time>2026-03-31T23:26:38.000Z</time></trkpt>
        <trkpt lat="28.831212" lon="105.305859"><ele>563.0408</ele><time>2026-03-31T23:26:44.000Z</time></trkpt>
        <trkpt lat="28.831211" lon="105.305919"><ele>563.54816</ele><time>2026-03-31T23:26:48.000Z</time></trkpt>
        <trkpt lat="28.831204" lon="105.305984"><ele>564.03705</ele><time>2026-03-31T23:26:52.000Z</time></trkpt>
        <trkpt lat="28.831187" lon="105.30604"><ele>564.83185</ele><time>2026-03-31T23:26:56.000Z</time></trkpt>
        <trkpt lat="28.831175" lon="105.30609"><ele>566.1832</ele><time>2026-03-31T23:27:00.000Z</time></trkpt>
        <trkpt lat="28.831197" lon="105.306136"><ele>567.1548</ele><time>2026-03-31T23:27:06.000Z</time></trkpt>
        <trkpt lat="28.831227" lon="105.306177"><ele>568.0965</ele><time>2026-03-31T23:27:13.000Z</time></trkpt>
        <trkpt lat="28.83125" lon="105.306222"><ele>568.62854</ele><time>2026-03-31T23:27:17.000Z</time></trkpt>
        <trkpt lat="28.831274" lon="105.306271"><ele>568.4759</ele><time>2026-03-31T23:27:22.000Z</time></trkpt>
        <trkpt lat="28.831287" lon="105.306332"><ele>567.40094</ele><time>2026-03-31T23:27:28.000Z</time></trkpt>
        <trkpt lat="28.831303" lon="105.306384"><ele>566.41174</ele><time>2026-03-31T23:27:32.000Z</time></trkpt>
        <trkpt lat="28.831324" lon="105.306437"><ele>566.39685</ele><time>2026-03-31T23:27:36.000Z</time></trkpt>
        <trkpt lat="28.831333" lon="105.306497"><ele>566.30347</ele><time>2026-03-31T23:27:41.000Z</time></trkpt>
        <trkpt lat="28.831309" lon="105.306545"><ele>566.1729</ele><time>2026-03-31T23:27:46.000Z</time></trkpt>
        <trkpt lat="28.831288" lon="105.306596"><ele>566.43695</ele><time>2026-03-31T23:27:51.000Z</time></trkpt>
        <trkpt lat="28.831286" lon="105.30665"><ele>566.0916</ele><time>2026-03-31T23:27:56.000Z</time></trkpt>
        <trkpt lat="28.831305" lon="105.306705"><ele>566.7017</ele><time>2026-03-31T23:28:02.000Z</time></trkpt>
        <trkpt lat="28.831334" lon="105.30676"><ele>566.40845</ele><time>2026-03-31T23:28:07.000Z</time></trkpt>
        <trkpt lat="28.831357" lon="105.306815"><ele>566.5876</ele><time>2026-03-31T23:28:11.000Z</time></trkpt>
        <trkpt lat="28.831377" lon="105.306865"><ele>566.7239</ele><time>2026-03-31T23:28:28.000Z</time></trkpt>
        <trkpt lat="28.831404" lon="105.306923"><ele>566.6947</ele><time>2026-03-31T23:28:33.000Z</time></trkpt>
        <trkpt lat="28.831431" lon="105.306978"><ele>567.42255</ele><time>2026-03-31T23:28:37.000Z</time></trkpt>
        <trkpt lat="28.831456" lon="105.307027"><ele>567.5622</ele><time>2026-03-31T23:28:41.000Z</time></trkpt>
        <trkpt lat="28.831484" lon="105.307074"><ele>567.2895</ele><time>2026-03-31T23:28:45.000Z</time></trkpt>
        <trkpt lat="28.831508" lon="105.307127"><ele>567.203</ele><time>2026-03-31T23:28:49.000Z</time></trkpt>
        <trkpt lat="28.831527" lon="105.307175"><ele>566.99164</ele><time>2026-03-31T23:28:53.000Z</time></trkpt>
        <trkpt lat="28.831553" lon="105.307231"><ele>567.3366</ele><time>2026-03-31T23:28:58.000Z</time></trkpt>
        <trkpt lat="28.831572" lon="105.307278"><ele>567.73785</ele><time>2026-03-31T23:29:02.000Z</time></trkpt>
        <trkpt lat="28.831597" lon="105.307315"><ele>570.0817</ele><time>2026-03-31T23:29:08.000Z</time></trkpt>
        <trkpt lat="28.83162" lon="105.307362"><ele>570.6706</ele><time>2026-03-31T23:29:12.000Z</time></trkpt>
        <trkpt lat="28.831644" lon="105.307412"><ele>570.6054</ele><time>2026-03-31T23:29:16.000Z</time></trkpt>
        <trkpt lat="28.831661" lon="105.307461"><ele>570.11304</ele><time>2026-03-31T23:29:20.000Z</time></trkpt>
        <trkpt lat="28.831684" lon="105.30751"><ele>570.5299</ele><time>2026-03-31T23:29:25.000Z</time></trkpt>
        <trkpt lat="28.831702" lon="105.307556"><ele>571.7919</ele><time>2026-03-31T23:29:35.000Z</time></trkpt>
        <trkpt lat="28.831725" lon="105.307604"><ele>573.07947</ele><time>2026-03-31T23:29:42.000Z</time></trkpt>
        <trkpt lat="28.831755" lon="105.307642"><ele>573.452</ele><time>2026-03-31T23:29:45.000Z</time></trkpt>
        <trkpt lat="28.831769" lon="105.307698"><ele>573.89044</ele><time>2026-03-31T23:29:49.000Z</time></trkpt>
        <trkpt lat="28.831792" lon="105.307753"><ele>574.06445</ele><time>2026-03-31T23:29:57.000Z</time></trkpt>
        <trkpt lat="28.83182" lon="105.307801"><ele>574.2173</ele><time>2026-03-31T23:30:03.000Z</time></trkpt>
        <trkpt lat="28.83184" lon="105.307847"><ele>574.2524</ele><time>2026-03-31T23:30:07.000Z</time></trkpt>
        <trkpt lat="28.831862" lon="105.307892"><ele>574.3439</ele><time>2026-03-31T23:30:11.000Z</time></trkpt>
        <trkpt lat="28.831899" lon="105.307934"><ele>574.7221</ele><time>2026-03-31T23:30:19.000Z</time></trkpt>
        <trkpt lat="28.831947" lon="105.307951"><ele>574.7226</ele><time>2026-03-31T23:30:24.000Z</time></trkpt>
        <trkpt lat="28.831998" lon="105.307971"><ele>574.6266</ele><time>2026-03-31T23:30:29.000Z</time></trkpt>
        <trkpt lat="28.832043" lon="105.307999"><ele>574.5442</ele><time>2026-03-31T23:30:34.000Z</time></trkpt>
        <trkpt lat="28.832097" lon="105.307996"><ele>574.9235</ele><time>2026-03-31T23:30:40.000Z</time></trkpt>
        <trkpt lat="28.832147" lon="105.307971"><ele>574.9372</ele><time>2026-03-31T23:30:45.000Z</time></trkpt>
        <trkpt lat="28.832192" lon="105.307952"><ele>575.58105</ele><time>2026-03-31T23:30:50.000Z</time></trkpt>
        <trkpt lat="28.832237" lon="105.30795"><ele>576.733</ele><time>2026-03-31T23:31:17.000Z</time></trkpt>
        <trkpt lat="28.832287" lon="105.307948"><ele>577.1313</ele><time>2026-03-31T23:31:22.000Z</time></trkpt>
        <trkpt lat="28.832335" lon="105.307958"><ele>577.4752</ele><time>2026-03-31T23:31:27.000Z</time></trkpt>
        <trkpt lat="28.832378" lon="105.307979"><ele>578.11884</ele><time>2026-03-31T23:31:32.000Z</time></trkpt>
        <trkpt lat="28.832426" lon="105.308007"><ele>579.3438</ele><time>2026-03-31T23:31:37.000Z</time></trkpt>
        <trkpt lat="28.832467" lon="105.308036"><ele>579.1619</ele><time>2026-03-31T23:31:42.000Z</time></trkpt>
        <trkpt lat="28.832503" lon="105.30807"><ele>579.2292</ele><time>2026-03-31T23:31:47.000Z</time></trkpt>
        <trkpt lat="28.832522" lon="105.308124"><ele>579.7332</ele><time>2026-03-31T23:31:52.000Z</time></trkpt>
        <trkpt lat="28.832533" lon="105.30818"><ele>580.1677</ele><time>2026-03-31T23:31:57.000Z</time></trkpt>
        <trkpt lat="28.832536" lon="105.30823"><ele>581.7934</ele><time>2026-03-31T23:32:02.000Z</time></trkpt>
        <trkpt lat="28.832529" lon="105.308287"><ele>582.3203</ele><time>2026-03-31T23:32:08.000Z</time></trkpt>
        <trkpt lat="28.83253" lon="105.30834"><ele>582.1342</ele><time>2026-03-31T23:32:14.000Z</time></trkpt>
        <trkpt lat="28.832512" lon="105.308389"><ele>583.48376</ele><time>2026-03-31T23:32:20.000Z</time></trkpt>
        <trkpt lat="28.832489" lon="105.308447"><ele>584.73956</ele><time>2026-03-31T23:32:31.000Z</time></trkpt>
        <trkpt lat="28.832477" lon="105.308505"><ele>585.43475</ele><time>2026-03-31T23:32:35.000Z</time></trkpt>
        <trkpt lat="28.83247" lon="105.308569"><ele>585.8254</ele><time>2026-03-31T23:32:39.000Z</time></trkpt>
        <trkpt lat="28.832472" lon="105.308621"><ele>585.53644</ele><time>2026-03-31T23:32:43.000Z</time></trkpt>
        <trkpt lat="28.832479" lon="105.308673"><ele>585.2146</ele><time>2026-03-31T23:32:47.000Z</time></trkpt>
        <trkpt lat="28.832489" lon="105.308723"><ele>584.6851</ele><time>2026-03-31T23:32:52.000Z</time></trkpt>
        <trkpt lat="28.832498" lon="105.30878"><ele>584.1004</ele><time>2026-03-31T23:32:57.000Z</time></trkpt>
        <trkpt lat="28.83251" lon="105.308834"><ele>584.194</ele><time>2026-03-31T23:33:02.000Z</time></trkpt>
        <trkpt lat="28.83252" lon="105.308889"><ele>584.49915</ele><time>2026-03-31T23:33:07.000Z</time></trkpt>
        <trkpt lat="28.832523" lon="105.308945"><ele>584.51013</ele><time>2026-03-31T23:33:12.000Z</time></trkpt>
        <trkpt lat="28.832518" lon="105.309"><ele>584.22656</ele><time>2026-03-31T23:33:17.000Z</time></trkpt>
        <trkpt lat="28.832503" lon="105.309061"><ele>585.27185</ele><time>2026-03-31T23:33:21.000Z</time></trkpt>
        <trkpt lat="28.832457" lon="105.309097"><ele>585.646</ele><time>2026-03-31T23:33:26.000Z</time></trkpt>
        <trkpt lat="28.832447" lon="105.309152"><ele>585.1412</ele><time>2026-03-31T23:33:31.000Z</time></trkpt>
        <trkpt lat="28.832435" lon="105.309213"><ele>585.4225</ele><time>2026-03-31T23:33:37.000Z</time></trkpt>
        <trkpt lat="28.832412" lon="105.309254"><ele>589.4894</ele><time>2026-03-31T23:33:41.000Z</time></trkpt>
        <trkpt lat="28.832385" lon="105.309291"><ele>592.04224</ele><time>2026-03-31T23:33:45.000Z</time></trkpt>
        <trkpt lat="28.832349" lon="105.309325"><ele>593.4363</ele><time>2026-03-31T23:33:50.000Z</time></trkpt>
        <trkpt lat="28.83231" lon="105.309361"><ele>594.9957</ele><time>2026-03-31T23:33:55.000Z</time></trkpt>
        <trkpt lat="28.832278" lon="105.309403"><ele>596.2073</ele><time>2026-03-31T23:34:00.000Z</time></trkpt>
        <trkpt lat="28.83226" lon="105.309451"><ele>597.3574</ele><time>2026-03-31T23:34:04.000Z</time></trkpt>
        <trkpt lat="28.832249" lon="105.309502"><ele>599.15845</ele><time>2026-03-31T23:34:08.000Z</time></trkpt>
        <trkpt lat="28.832251" lon="105.309556"><ele>599.5905</ele><time>2026-03-31T23:34:13.000Z</time></trkpt>
        <trkpt lat="28.832257" lon="105.309612"><ele>599.88617</ele><time>2026-03-31T23:34:19.000Z</time></trkpt>
        <trkpt lat="28.832254" lon="105.309663"><ele>601.101</ele><time>2026-03-31T23:34:23.000Z</time></trkpt>
        <trkpt lat="28.83224" lon="105.30972"><ele>601.43677</ele><time>2026-03-31T23:34:28.000Z</time></trkpt>
        <trkpt lat="28.832226" lon="105.309772"><ele>601.69946</ele><time>2026-03-31T23:34:33.000Z</time></trkpt>
        <trkpt lat="28.832209" lon="105.309825"><ele>601.49976</ele><time>2026-03-31T23:34:38.000Z</time></trkpt>
        <trkpt lat="28.832178" lon="105.309867"><ele>602.1348</ele><time>2026-03-31T23:34:51.000Z</time></trkpt>
        <trkpt lat="28.832162" lon="105.309912"><ele>598.80457</ele><time>2026-03-31T23:36:21.000Z</time></trkpt>
        <trkpt lat="28.832141" lon="105.30996"><ele>597.0368</ele><time>2026-03-31T23:36:24.000Z</time></trkpt>
        <trkpt lat="28.832105" lon="105.310006"><ele>594.3637</ele><time>2026-03-31T23:36:28.000Z</time></trkpt>
        <trkpt lat="28.832085" lon="105.310056"><ele>592.5107</ele><time>2026-03-31T23:36:32.000Z</time></trkpt>
        <trkpt lat="28.832064" lon="105.310106"><ele>590.1773</ele><time>2026-03-31T23:36:37.000Z</time></trkpt>
        <trkpt lat="28.832048" lon="105.310151"><ele>588.4478</ele><time>2026-03-31T23:36:59.000Z</time></trkpt>
        <trkpt lat="28.832007" lon="105.31018"><ele>586.556</ele><time>2026-03-31T23:37:07.000Z</time></trkpt>
        <trkpt lat="28.832029" lon="105.3102"><ele>582.0537</ele><time>2026-03-31T23:37:42.000Z</time></trkpt>
        <trkpt lat="28.832116" lon="105.310235"><ele>581.7308</ele><time>2026-03-31T23:37:45.000Z</time></trkpt>
        <trkpt lat="28.832182" lon="105.310259"><ele>581.2631</ele><time>2026-03-31T23:37:47.000Z</time></trkpt>
        <trkpt lat="28.832236" lon="105.310257"><ele>581.0761</ele><time>2026-03-31T23:37:50.000Z</time></trkpt>
        <trkpt lat="28.832193" lon="105.310245"><ele>579.2041</ele><time>2026-03-31T23:37:53.000Z</time></trkpt>
        <trkpt lat="28.832142" lon="105.310269"><ele>578.73676</ele><time>2026-03-31T23:38:32.000Z</time></trkpt>
        <trkpt lat="28.832108" lon="105.310302"><ele>579.95197</ele><time>2026-03-31T23:38:35.000Z</time></trkpt>
        <trkpt lat="28.832072" lon="105.310345"><ele>580.7608</ele><time>2026-03-31T23:38:40.000Z</time></trkpt>
        <trkpt lat="28.832038" lon="105.310381"><ele>581.268</ele><time>2026-03-31T23:38:46.000Z</time></trkpt>
        <trkpt lat="28.832043" lon="105.310436"><ele>580.6731</ele><time>2026-03-31T23:38:56.000Z</time></trkpt>
        <trkpt lat="28.832073" lon="105.310479"><ele>580.64655</ele><time>2026-03-31T23:39:03.000Z</time></trkpt>
        <trkpt lat="28.832105" lon="105.310518"><ele>580.76215</ele><time>2026-03-31T23:39:09.000Z</time></trkpt>
        <trkpt lat="28.832125" lon="105.310572"><ele>581.0068</ele><time>2026-03-31T23:39:16.000Z</time></trkpt>
        <trkpt lat="28.832154" lon="105.310619"><ele>580.7031</ele><time>2026-03-31T23:39:22.000Z</time></trkpt>
        <trkpt lat="28.83218" lon="105.310668"><ele>581.1768</ele><time>2026-03-31T23:39:29.000Z</time></trkpt>
        <trkpt lat="28.832201" lon="105.310721"><ele>582.858</ele><time>2026-03-31T23:39:36.000Z</time></trkpt>
        <trkpt lat="28.832226" lon="105.31077"><ele>584.489</ele><time>2026-03-31T23:39:42.000Z</time></trkpt>
        <trkpt lat="28.832238" lon="105.310823"><ele>584.81323</ele><time>2026-03-31T23:39:48.000Z</time></trkpt>
        <trkpt lat="28.832239" lon="105.310877"><ele>585.0956</ele><time>2026-03-31T23:39:53.000Z</time></trkpt>
        <trkpt lat="28.832234" lon="105.310931"><ele>585.74536</ele><time>2026-03-31T23:39:58.000Z</time></trkpt>
        <trkpt lat="28.832231" lon="105.310982"><ele>586.6159</ele><time>2026-03-31T23:40:03.000Z</time></trkpt>
        <trkpt lat="28.832236" lon="105.311038"><ele>587.0226</ele><time>2026-03-31T23:40:08.000Z</time></trkpt>
        <trkpt lat="28.832231" lon="105.311097"><ele>587.5869</ele><time>2026-03-31T23:40:13.000Z</time></trkpt>
        <trkpt lat="28.83221" lon="105.311152"><ele>587.8722</ele><time>2026-03-31T23:40:18.000Z</time></trkpt>
        <trkpt lat="28.832188" lon="105.311207"><ele>587.89606</ele><time>2026-03-31T23:40:23.000Z</time></trkpt>
        <trkpt lat="28.832169" lon="105.311263"><ele>587.73553</ele><time>2026-03-31T23:40:27.000Z</time></trkpt>
        <trkpt lat="28.832143" lon="105.311317"><ele>587.8021</ele><time>2026-03-31T23:40:31.000Z</time></trkpt>
        <trkpt lat="28.832121" lon="105.311367"><ele>588.45996</ele><time>2026-03-31T23:40:35.000Z</time></trkpt>
        <trkpt lat="28.832103" lon="105.311417"><ele>588.8355</ele><time>2026-03-31T23:40:39.000Z</time></trkpt>
        <trkpt lat="28.832081" lon="105.311471"><ele>589.6374</ele><time>2026-03-31T23:40:44.000Z</time></trkpt>
        <trkpt lat="28.83206" lon="105.311528"><ele>589.1286</ele><time>2026-03-31T23:40:49.000Z</time></trkpt>
        <trkpt lat="28.832043" lon="105.311576"><ele>588.8637</ele><time>2026-03-31T23:40:53.000Z</time></trkpt>
        <trkpt lat="28.832022" lon="105.311622"><ele>588.6424</ele><time>2026-03-31T23:40:57.000Z</time></trkpt>
        <trkpt lat="28.832001" lon="105.311675"><ele>588.92773</ele><time>2026-03-31T23:41:02.000Z</time></trkpt>
        <trkpt lat="28.831978" lon="105.311724"><ele>589.28503</ele><time>2026-03-31T23:41:07.000Z</time></trkpt>
        <trkpt lat="28.831958" lon="105.311777"><ele>588.5413</ele><time>2026-03-31T23:41:12.000Z</time></trkpt>
        <trkpt lat="28.831933" lon="105.311831"><ele>587.5033</ele><time>2026-03-31T23:41:17.000Z</time></trkpt>
        <trkpt lat="28.831908" lon="105.31188"><ele>586.67535</ele><time>2026-03-31T23:41:23.000Z</time></trkpt>
        <trkpt lat="28.831879" lon="105.311922"><ele>585.88684</ele><time>2026-03-31T23:41:28.000Z</time></trkpt>
        <trkpt lat="28.83184" lon="105.311958"><ele>586.06384</ele><time>2026-03-31T23:41:33.000Z</time></trkpt>
        <trkpt lat="28.831797" lon="105.311974"><ele>585.77234</ele><time>2026-03-31T23:41:38.000Z</time></trkpt>
        <trkpt lat="28.831748" lon="105.311965"><ele>585.71344</ele><time>2026-03-31T23:41:43.000Z</time></trkpt>
        <trkpt lat="28.8317" lon="105.311953"><ele>585.7751</ele><time>2026-03-31T23:41:48.000Z</time></trkpt>
        <trkpt lat="28.831652" lon="105.311948"><ele>586.1506</ele><time>2026-03-31T23:41:53.000Z</time></trkpt>
        <trkpt lat="28.831596" lon="105.311945"><ele>586.1538</ele><time>2026-03-31T23:41:58.000Z</time></trkpt>
        <trkpt lat="28.831546" lon="105.311957"><ele>586.4116</ele><time>2026-03-31T23:42:02.000Z</time></trkpt>
        <trkpt lat="28.831502" lon="105.311974"><ele>586.12335</ele><time>2026-03-31T23:42:05.000Z</time></trkpt>
        <trkpt lat="28.831456" lon="105.312002"><ele>585.93097</ele><time>2026-03-31T23:42:09.000Z</time></trkpt>
        <trkpt lat="28.831405" lon="105.312032"><ele>585.8604</ele><time>2026-03-31T23:42:13.000Z</time></trkpt>
        <trkpt lat="28.831363" lon="105.312064"><ele>585.3729</ele><time>2026-03-31T23:42:17.000Z</time></trkpt>
        <trkpt lat="28.831325" lon="105.312095"><ele>585.4072</ele><time>2026-03-31T23:42:21.000Z</time></trkpt>
        <trkpt lat="28.831283" lon="105.312123"><ele>585.6383</ele><time>2026-03-31T23:42:25.000Z</time></trkpt>
        <trkpt lat="28.831238" lon="105.312135"><ele>585.6946</ele><time>2026-03-31T23:42:29.000Z</time></trkpt>
        <trkpt lat="28.831188" lon="105.312139"><ele>586.83264</ele><time>2026-03-31T23:42:35.000Z</time></trkpt>
        <trkpt lat="28.831136" lon="105.312135"><ele>587.65326</ele><time>2026-03-31T23:42:42.000Z</time></trkpt>
        <trkpt lat="28.831083" lon="105.312127"><ele>588.2524</ele><time>2026-03-31T23:42:48.000Z</time></trkpt>
        <trkpt lat="28.83103" lon="105.312121"><ele>588.77423</ele><time>2026-03-31T23:42:53.000Z</time></trkpt>
        <trkpt lat="28.830978" lon="105.312125"><ele>589.2214</ele><time>2026-03-31T23:42:59.000Z</time></trkpt>
        <trkpt lat="28.830934" lon="105.312147"><ele>589.52466</ele><time>2026-03-31T23:43:04.000Z</time></trkpt>
        <trkpt lat="28.830891" lon="105.31217"><ele>589.51526</ele><time>2026-03-31T23:43:09.000Z</time></trkpt>
        <trkpt lat="28.830852" lon="105.312201"><ele>590.1858</ele><time>2026-03-31T23:43:14.000Z</time></trkpt>
        <trkpt lat="28.83081" lon="105.312223"><ele>590.3877</ele><time>2026-03-31T23:43:19.000Z</time></trkpt>
        <trkpt lat="28.830772" lon="105.31225"><ele>590.5309</ele><time>2026-03-31T23:43:23.000Z</time></trkpt>
        <trkpt lat="28.830728" lon="105.312277"><ele>591.1936</ele><time>2026-03-31T23:43:27.000Z</time></trkpt>
        <trkpt lat="28.830677" lon="105.312302"><ele>590.24457</ele><time>2026-03-31T23:43:30.000Z</time></trkpt>
        <trkpt lat="28.830635" lon="105.312328"><ele>590.33606</ele><time>2026-03-31T23:43:34.000Z</time></trkpt>
        <trkpt lat="28.83061" lon="105.312374"><ele>589.95605</ele><time>2026-03-31T23:43:39.000Z</time></trkpt>
        <trkpt lat="28.830601" lon="105.312432"><ele>589.80756</ele><time>2026-03-31T23:43:45.000Z</time></trkpt>
        <trkpt lat="28.830566" lon="105.312471"><ele>589.7985</ele><time>2026-03-31T23:43:51.000Z</time></trkpt>
        <trkpt lat="28.830517" lon="105.312503"><ele>589.00305</ele><time>2026-03-31T23:43:57.000Z</time></trkpt>
        <trkpt lat="28.830475" lon="105.312534"><ele>588.2246</ele><time>2026-03-31T23:44:02.000Z</time></trkpt>
        <trkpt lat="28.830431" lon="105.312556"><ele>588.05005</ele><time>2026-03-31T23:44:07.000Z</time></trkpt>
        <trkpt lat="28.830387" lon="105.312574"><ele>588.6108</ele><time>2026-03-31T23:44:11.000Z</time></trkpt>
        <trkpt lat="28.830338" lon="105.312601"><ele>588.9749</ele><time>2026-03-31T23:44:16.000Z</time></trkpt>
        <trkpt lat="28.830291" lon="105.31262"><ele>588.9759</ele><time>2026-03-31T23:44:21.000Z</time></trkpt>
        <trkpt lat="28.830245" lon="105.312639"><ele>588.49506</ele><time>2026-03-31T23:44:26.000Z</time></trkpt>
        <trkpt lat="28.830197" lon="105.312666"><ele>588.71844</ele><time>2026-03-31T23:44:31.000Z</time></trkpt>
        <trkpt lat="28.830146" lon="105.312696"><ele>588.944</ele><time>2026-03-31T23:44:35.000Z</time></trkpt>
        <trkpt lat="28.830097" lon="105.312723"><ele>589.3262</ele><time>2026-03-31T23:44:39.000Z</time></trkpt>
        <trkpt lat="28.83005" lon="105.312733"><ele>589.31915</ele><time>2026-03-31T23:44:44.000Z</time></trkpt>
        <trkpt lat="28.829993" lon="105.312736"><ele>589.3057</ele><time>2026-03-31T23:44:49.000Z</time></trkpt>
        <trkpt lat="28.829939" lon="105.312723"><ele>589.36584</ele><time>2026-03-31T23:44:54.000Z</time></trkpt>
        <trkpt lat="28.829884" lon="105.312705"><ele>589.4572</ele><time>2026-03-31T23:44:58.000Z</time></trkpt>
        <trkpt lat="28.829842" lon="105.312688"><ele>588.8056</ele><time>2026-03-31T23:45:01.000Z</time></trkpt>
        <trkpt lat="28.829794" lon="105.312658"><ele>588.7063</ele><time>2026-03-31T23:45:05.000Z</time></trkpt>
        <trkpt lat="28.829748" lon="105.312632"><ele>589.0027</ele><time>2026-03-31T23:45:09.000Z</time></trkpt>
        <trkpt lat="28.829701" lon="105.312605"><ele>588.49756</ele><time>2026-03-31T23:45:14.000Z</time></trkpt>
        <trkpt lat="28.829659" lon="105.312569"><ele>588.66064</ele><time>2026-03-31T23:45:19.000Z</time></trkpt>
        <trkpt lat="28.829617" lon="105.312546"><ele>588.4223</ele><time>2026-03-31T23:45:24.000Z</time></trkpt>
        <trkpt lat="28.829575" lon="105.312523"><ele>587.8928</ele><time>2026-03-31T23:45:28.000Z</time></trkpt>
        <trkpt lat="28.82953" lon="105.31249"><ele>587.21356</ele><time>2026-03-31T23:45:33.000Z</time></trkpt>
        <trkpt lat="28.829492" lon="105.312459"><ele>587.5632</ele><time>2026-03-31T23:45:38.000Z</time></trkpt>
        <trkpt lat="28.829458" lon="105.312413"><ele>587.4506</ele><time>2026-03-31T23:45:43.000Z</time></trkpt>
        <trkpt lat="28.829425" lon="105.312372"><ele>587.8447</ele><time>2026-03-31T23:45:47.000Z</time></trkpt>
        <trkpt lat="28.829383" lon="105.312342"><ele>588.05414</ele><time>2026-03-31T23:45:51.000Z</time></trkpt>
        <trkpt lat="28.829328" lon="105.312356"><ele>587.6118</ele><time>2026-03-31T23:45:56.000Z</time></trkpt>
        <trkpt lat="28.829283" lon="105.312384"><ele>588.11725</ele><time>2026-03-31T23:46:00.000Z</time></trkpt>
        <trkpt lat="28.829244" lon="105.312415"><ele>588.51843</ele><time>2026-03-31T23:46:04.000Z</time></trkpt>
        <trkpt lat="28.82921" lon="105.312457"><ele>587.63855</ele><time>2026-03-31T23:46:08.000Z</time></trkpt>
        <trkpt lat="28.829177" lon="105.3125"><ele>587.2848</ele><time>2026-03-31T23:46:12.000Z</time></trkpt>
        <trkpt lat="28.829137" lon="105.312542"><ele>586.80725</ele><time>2026-03-31T23:46:17.000Z</time></trkpt>
        <trkpt lat="28.829099" lon="105.312579"><ele>586.46545</ele><time>2026-03-31T23:46:22.000Z</time></trkpt>
        <trkpt lat="28.829077" lon="105.312628"><ele>586.8412</ele><time>2026-03-31T23:46:27.000Z</time></trkpt>
        <trkpt lat="28.829065" lon="105.312681"><ele>587.43604</ele><time>2026-03-31T23:46:33.000Z</time></trkpt>
        <trkpt lat="28.829088" lon="105.312725"><ele>586.7314</ele><time>2026-03-31T23:46:39.000Z</time></trkpt>
        <trkpt lat="28.829111" lon="105.312769"><ele>585.0709</ele><time>2026-03-31T23:46:44.000Z</time></trkpt>
        <trkpt lat="28.829141" lon="105.312807"><ele>584.25354</ele><time>2026-03-31T23:46:49.000Z</time></trkpt>
        <trkpt lat="28.829165" lon="105.312851"><ele>582.60034</ele><time>2026-03-31T23:46:54.000Z</time></trkpt>
        <trkpt lat="28.829191" lon="105.312898"><ele>580.797</ele><time>2026-03-31T23:46:59.000Z</time></trkpt>
        <trkpt lat="28.829219" lon="105.312947"><ele>579.71295</ele><time>2026-03-31T23:47:04.000Z</time></trkpt>
        <trkpt lat="28.829247" lon="105.312987"><ele>578.7996</ele><time>2026-03-31T23:47:09.000Z</time></trkpt>
        <trkpt lat="28.82927" lon="105.313032"><ele>578.9637</ele><time>2026-03-31T23:47:14.000Z</time></trkpt>
        <trkpt lat="28.829294" lon="105.313078"><ele>579.31256</ele><time>2026-03-31T23:47:21.000Z</time></trkpt>
        <trkpt lat="28.829326" lon="105.313122"><ele>578.782</ele><time>2026-03-31T23:47:28.000Z</time></trkpt>
        <trkpt lat="28.829347" lon="105.31318"><ele>578.4211</ele><time>2026-03-31T23:47:34.000Z</time></trkpt>
        <trkpt lat="28.829368" lon="105.313236"><ele>578.3273</ele><time>2026-03-31T23:47:39.000Z</time></trkpt>
        <trkpt lat="28.829391" lon="105.313294"><ele>577.6818</ele><time>2026-03-31T23:47:44.000Z</time></trkpt>
        <trkpt lat="28.829427" lon="105.313337"><ele>577.7849</ele><time>2026-03-31T23:47:48.000Z</time></trkpt>
        <trkpt lat="28.829474" lon="105.313364"><ele>578.0587</ele><time>2026-03-31T23:47:52.000Z</time></trkpt>
        <trkpt lat="28.829522" lon="105.313379"><ele>578.25024</ele><time>2026-03-31T23:47:57.000Z</time></trkpt>
        <trkpt lat="28.829559" lon="105.313413"><ele>578.3256</ele><time>2026-03-31T23:48:02.000Z</time></trkpt>
        <trkpt lat="28.829536" lon="105.313466"><ele>577.4469</ele><time>2026-03-31T23:48:07.000Z</time></trkpt>
        <trkpt lat="28.829487" lon="105.313499"><ele>577.3758</ele><time>2026-03-31T23:48:37.000Z</time></trkpt>
        <trkpt lat="28.829446" lon="105.313532"><ele>577.20044</ele><time>2026-03-31T23:48:42.000Z</time></trkpt>
        <trkpt lat="28.829399" lon="105.313534"><ele>577.3366</ele><time>2026-03-31T23:48:46.000Z</time></trkpt>
        <trkpt lat="28.829379" lon="105.313597"><ele>576.85815</ele><time>2026-03-31T23:48:49.000Z</time></trkpt>
        <trkpt lat="28.829358" lon="105.31366"><ele>577.2106</ele><time>2026-03-31T23:48:52.000Z</time></trkpt>
        <trkpt lat="28.829337" lon="105.313708"><ele>578.2371</ele><time>2026-03-31T23:48:55.000Z</time></trkpt>
        <trkpt lat="28.82931" lon="105.313767"><ele>579.21857</ele><time>2026-03-31T23:48:59.000Z</time></trkpt>
        <trkpt lat="28.829276" lon="105.313819"><ele>579.69965</ele><time>2026-03-31T23:49:03.000Z</time></trkpt>
        <trkpt lat="28.829257" lon="105.313869"><ele>579.42224</ele><time>2026-03-31T23:49:07.000Z</time></trkpt>
        <trkpt lat="28.829213" lon="105.313892"><ele>579.60596</ele><time>2026-03-31T23:49:13.000Z</time></trkpt>
        <trkpt lat="28.829167" lon="105.313886"><ele>579.5103</ele><time>2026-03-31T23:49:14.000Z</time></trkpt>
        <trkpt lat="28.829098" lon="105.313866"><ele>579.1548</ele><time>2026-03-31T23:49:15.000Z</time></trkpt>
        <trkpt lat="28.82905" lon="105.313859"><ele>578.61395</ele><time>2026-03-31T23:49:16.000Z</time></trkpt>
        <trkpt lat="28.829098" lon="105.31392"><ele>577.1832</ele><time>2026-03-31T23:49:19.000Z</time></trkpt>
        <trkpt lat="28.829141" lon="105.313971"><ele>576.3403</ele><time>2026-03-31T23:49:21.000Z</time></trkpt>
        <trkpt lat="28.82911" lon="105.314018"><ele>574.80475</ele><time>2026-03-31T23:49:26.000Z</time></trkpt>
        <trkpt lat="28.829071" lon="105.314056"><ele>574.13727</ele><time>2026-03-31T23:49:31.000Z</time></trkpt>
        <trkpt lat="28.82904" lon="105.314098"><ele>573.8692</ele><time>2026-03-31T23:49:35.000Z</time></trkpt>
        <trkpt lat="28.82902" lon="105.314151"><ele>572.4219</ele><time>2026-03-31T23:49:41.000Z</time></trkpt>
        <trkpt lat="28.829006" lon="105.314197"><ele>570.18066</ele><time>2026-03-31T23:49:46.000Z</time></trkpt>
        <trkpt lat="28.829007" lon="105.314255"><ele>568.78864</ele><time>2026-03-31T23:49:51.000Z</time></trkpt>
        <trkpt lat="28.829015" lon="105.314309"><ele>567.6051</ele><time>2026-03-31T23:49:55.000Z</time></trkpt>
        <trkpt lat="28.829024" lon="105.314358"><ele>565.66455</ele><time>2026-03-31T23:50:01.000Z</time></trkpt>
        <trkpt lat="28.829034" lon="105.314406"><ele>563.65094</ele><time>2026-03-31T23:50:07.000Z</time></trkpt>
        <trkpt lat="28.829035" lon="105.314481"><ele>561.1632</ele><time>2026-03-31T23:50:12.000Z</time></trkpt>
        <trkpt lat="28.829048" lon="105.314533"><ele>560.08514</ele><time>2026-03-31T23:50:16.000Z</time></trkpt>
        <trkpt lat="28.829069" lon="105.314585"><ele>560.7597</ele><time>2026-03-31T23:50:20.000Z</time></trkpt>
        <trkpt lat="28.829075" lon="105.314646"><ele>560.9568</ele><time>2026-03-31T23:50:25.000Z</time></trkpt>
        <trkpt lat="28.829078" lon="105.314704"><ele>560.2619</ele><time>2026-03-31T23:50:31.000Z</time></trkpt>
        <trkpt lat="28.829085" lon="105.314765"><ele>561.87085</ele><time>2026-03-31T23:50:36.000Z</time></trkpt>
        <trkpt lat="28.829084" lon="105.314818"><ele>562.03217</ele><time>2026-03-31T23:50:39.000Z</time></trkpt>
        <trkpt lat="28.829081" lon="105.314871"><ele>562.9623</ele><time>2026-03-31T23:50:42.000Z</time></trkpt>
        <trkpt lat="28.829045" lon="105.31491"><ele>563.251</ele><time>2026-03-31T23:50:47.000Z</time></trkpt>
        <trkpt lat="28.829007" lon="105.314939"><ele>562.5261</ele><time>2026-03-31T23:50:53.000Z</time></trkpt>
        <trkpt lat="28.828989" lon="105.314994"><ele>562.6545</ele><time>2026-03-31T23:50:58.000Z</time></trkpt>
        <trkpt lat="28.828993" lon="105.315052"><ele>562.9827</ele><time>2026-03-31T23:51:02.000Z</time></trkpt>
        <trkpt lat="28.829015" lon="105.315103"><ele>562.7911</ele><time>2026-03-31T23:51:07.000Z</time></trkpt>
        <trkpt lat="28.829036" lon="105.31515"><ele>562.2245</ele><time>2026-03-31T23:51:12.000Z</time></trkpt>
        <trkpt lat="28.829058" lon="105.315214"><ele>561.4821</ele><time>2026-03-31T23:51:18.000Z</time></trkpt>
        <trkpt lat="28.829077" lon="105.315275"><ele>561.545</ele><time>2026-03-31T23:51:22.000Z</time></trkpt>
        <trkpt lat="28.829084" lon="105.315331"><ele>562.35175</ele><time>2026-03-31T23:51:27.000Z</time></trkpt>
        <trkpt lat="28.829087" lon="105.315387"><ele>563.22943</ele><time>2026-03-31T23:51:32.000Z</time></trkpt>
        <trkpt lat="28.829082" lon="105.315439"><ele>563.6818</ele><time>2026-03-31T23:51:36.000Z</time></trkpt>
        <trkpt lat="28.829064" lon="105.315485"><ele>564.36914</ele><time>2026-03-31T23:51:40.000Z</time></trkpt>
        <trkpt lat="28.829031" lon="105.31553"><ele>564.87286</ele><time>2026-03-31T23:51:45.000Z</time></trkpt>
        <trkpt lat="28.828993" lon="105.315569"><ele>565.15265</ele><time>2026-03-31T23:51:50.000Z</time></trkpt>
        <trkpt lat="28.828963" lon="105.315618"><ele>566.32965</ele><time>2026-03-31T23:51:54.000Z</time></trkpt>
        <trkpt lat="28.828943" lon="105.31567"><ele>566.29645</ele><time>2026-03-31T23:52:00.000Z</time></trkpt>
        <trkpt lat="28.828931" lon="105.31572"><ele>566.1734</ele><time>2026-03-31T23:52:05.000Z</time></trkpt>
        <trkpt lat="28.828893" lon="105.315758"><ele>565.63934</ele><time>2026-03-31T23:52:11.000Z</time></trkpt>
        <trkpt lat="28.82886" lon="105.315805"><ele>566.262</ele><time>2026-03-31T23:52:15.000Z</time></trkpt>
        <trkpt lat="28.828833" lon="105.315852"><ele>566.2798</ele><time>2026-03-31T23:52:21.000Z</time></trkpt>
        <trkpt lat="28.828795" lon="105.315887"><ele>567.4478</ele><time>2026-03-31T23:52:29.000Z</time></trkpt>
        <trkpt lat="28.828781" lon="105.31595"><ele>567.8272</ele><time>2026-03-31T23:52:37.000Z</time></trkpt>
        <trkpt lat="28.828791" lon="105.316009"><ele>567.6755</ele><time>2026-03-31T23:52:41.000Z</time></trkpt>
        <trkpt lat="28.828797" lon="105.316069"><ele>567.2264</ele><time>2026-03-31T23:52:46.000Z</time></trkpt>
        <trkpt lat="28.828805" lon="105.31612"><ele>567.083</ele><time>2026-03-31T23:52:51.000Z</time></trkpt>
        <trkpt lat="28.828825" lon="105.316167"><ele>566.5427</ele><time>2026-03-31T23:52:58.000Z</time></trkpt>
        <trkpt lat="28.828848" lon="105.316212"><ele>565.3411</ele><time>2026-03-31T23:53:04.000Z</time></trkpt>
        <trkpt lat="28.828872" lon="105.316268"><ele>565.0469</ele><time>2026-03-31T23:53:09.000Z</time></trkpt>
        <trkpt lat="28.828891" lon="105.316327"><ele>565.10516</ele><time>2026-03-31T23:53:14.000Z</time></trkpt>
        <trkpt lat="28.828896" lon="105.316384"><ele>563.74036</ele><time>2026-03-31T23:53:21.000Z</time></trkpt>
        <trkpt lat="28.828891" lon="105.316436"><ele>562.8019</ele><time>2026-03-31T23:53:26.000Z</time></trkpt>
        <trkpt lat="28.82889" lon="105.316488"><ele>561.621</ele><time>2026-03-31T23:53:32.000Z</time></trkpt>
        <trkpt lat="28.828878" lon="105.316545"><ele>561.05237</ele><time>2026-03-31T23:53:39.000Z</time></trkpt>
        <trkpt lat="28.828862" lon="105.316594"><ele>560.88</ele><time>2026-03-31T23:53:43.000Z</time></trkpt>
        <trkpt lat="28.82885" lon="105.316662"><ele>560.9119</ele><time>2026-03-31T23:53:47.000Z</time></trkpt>
        <trkpt lat="28.828845" lon="105.316714"><ele>561.0233</ele><time>2026-03-31T23:53:50.000Z</time></trkpt>
        <trkpt lat="28.828846" lon="105.316782"><ele>560.5092</ele><time>2026-03-31T23:53:54.000Z</time></trkpt>
        <trkpt lat="28.828841" lon="105.316841"><ele>559.86597</ele><time>2026-03-31T23:53:59.000Z</time></trkpt>
        <trkpt lat="28.828833" lon="105.316901"><ele>559.54877</ele><time>2026-03-31T23:54:04.000Z</time></trkpt>
        <trkpt lat="28.828835" lon="105.316955"><ele>558.6951</ele><time>2026-03-31T23:54:09.000Z</time></trkpt>
        <trkpt lat="28.828845" lon="105.317012"><ele>558.2707</ele><time>2026-03-31T23:54:15.000Z</time></trkpt>
        <trkpt lat="28.82887" lon="105.317063"><ele>558.1953</ele><time>2026-03-31T23:54:20.000Z</time></trkpt>
        <trkpt lat="28.828893" lon="105.317117"><ele>557.60547</ele><time>2026-03-31T23:54:24.000Z</time></trkpt>
        <trkpt lat="28.828924" lon="105.317158"><ele>558.03</ele><time>2026-03-31T23:54:27.000Z</time></trkpt>
        <trkpt lat="28.82895" lon="105.317206"><ele>557.72046</ele><time>2026-03-31T23:54:31.000Z</time></trkpt>
        <trkpt lat="28.828948" lon="105.317267"><ele>557.417</ele><time>2026-03-31T23:54:35.000Z</time></trkpt>
        <trkpt lat="28.828942" lon="105.317327"><ele>558.3306</ele><time>2026-03-31T23:54:39.000Z</time></trkpt>
        <trkpt lat="28.828928" lon="105.317386"><ele>558.0601</ele><time>2026-03-31T23:54:44.000Z</time></trkpt>
        <trkpt lat="28.828921" lon="105.317443"><ele>558.2111</ele><time>2026-03-31T23:54:49.000Z</time></trkpt>
        <trkpt lat="28.82893" lon="105.317498"><ele>558.51807</ele><time>2026-03-31T23:54:54.000Z</time></trkpt>
        <trkpt lat="28.828944" lon="105.317548"><ele>558.28534</ele><time>2026-03-31T23:54:58.000Z</time></trkpt>
        <trkpt lat="28.828956" lon="105.317599"><ele>557.6181</ele><time>2026-03-31T23:55:03.000Z</time></trkpt>
        <trkpt lat="28.828977" lon="105.317644"><ele>557.03534</ele><time>2026-03-31T23:55:09.000Z</time></trkpt>
        <trkpt lat="28.829013" lon="105.31768"><ele>556.9029</ele><time>2026-03-31T23:55:15.000Z</time></trkpt>
        <trkpt lat="28.829049" lon="105.317719"><ele>556.68317</ele><time>2026-03-31T23:55:21.000Z</time></trkpt>
        <trkpt lat="28.829066" lon="105.317771"><ele>555.60126</ele><time>2026-03-31T23:55:27.000Z</time></trkpt>
        <trkpt lat="28.829087" lon="105.317824"><ele>554.8537</ele><time>2026-03-31T23:55:32.000Z</time></trkpt>
        <trkpt lat="28.829102" lon="105.317875"><ele>555.4679</ele><time>2026-03-31T23:55:36.000Z</time></trkpt>
        <trkpt lat="28.82912" lon="105.317923"><ele>556.5629</ele><time>2026-03-31T23:55:51.000Z</time></trkpt>
        <trkpt lat="28.829125" lon="105.317976"><ele>555.6918</ele><time>2026-03-31T23:56:00.000Z</time></trkpt>
        <trkpt lat="28.829142" lon="105.318027"><ele>555.4498</ele><time>2026-03-31T23:56:08.000Z</time></trkpt>
        <trkpt lat="28.829149" lon="105.318081"><ele>554.3604</ele><time>2026-03-31T23:56:17.000Z</time></trkpt>
        <trkpt lat="28.829144" lon="105.318128"><ele>551.46204</ele><time>2026-03-31T23:57:09.000Z</time></trkpt>
        <trkpt lat="28.829144" lon="105.318172"><ele>548.69916</ele><time>2026-03-31T23:57:50.000Z</time></trkpt>
        <trkpt lat="28.829132" lon="105.318226"><ele>548.29596</ele><time>2026-03-31T23:58:25.000Z</time></trkpt>
        <trkpt lat="28.829105" lon="105.318279"><ele>546.8588</ele><time>2026-03-31T23:58:31.000Z</time></trkpt>
        <trkpt lat="28.829133" lon="105.318237"><ele>545.3365</ele><time>2026-04-01T00:00:08.000Z</time></trkpt>
        <trkpt lat="28.829142" lon="105.318293"><ele>543.6202</ele><time>2026-04-01T00:00:16.000Z</time></trkpt>
        <trkpt lat="28.829138" lon="105.318347"><ele>542.60547</ele><time>2026-04-01T00:00:53.000Z</time></trkpt>
        <trkpt lat="28.829145" lon="105.318394"><ele>540.27704</ele><time>2026-04-01T00:01:01.000Z</time></trkpt>
        <trkpt lat="28.829143" lon="105.31844"><ele>537.76904</ele><time>2026-04-01T00:01:17.000Z</time></trkpt>
        <trkpt lat="28.82914" lon="105.318489"><ele>535.215</ele><time>2026-04-01T00:01:32.000Z</time></trkpt>
        <trkpt lat="28.829132" lon="105.318542"><ele>533.95435</ele><time>2026-04-01T00:01:45.000Z</time></trkpt>
        <trkpt lat="28.829134" lon="105.318606"><ele>532.71136</ele><time>2026-04-01T00:01:49.000Z</time></trkpt>
        <trkpt lat="28.829139" lon="105.318664"><ele>531.7713</ele><time>2026-04-01T00:01:53.000Z</time></trkpt>
        <trkpt lat="28.829146" lon="105.318724"><ele>530.91095</ele><time>2026-04-01T00:01:58.000Z</time></trkpt>
        <trkpt lat="28.829154" lon="105.318781"><ele>530.3496</ele><time>2026-04-01T00:02:03.000Z</time></trkpt>
        <trkpt lat="28.82916" lon="105.318834"><ele>529.56354</ele><time>2026-04-01T00:02:08.000Z</time></trkpt>
        <trkpt lat="28.829167" lon="105.318896"><ele>528.98584</ele><time>2026-04-01T00:02:13.000Z</time></trkpt>
        <trkpt lat="28.829177" lon="105.318948"><ele>528.7796</ele><time>2026-04-01T00:02:17.000Z</time></trkpt>
        <trkpt lat="28.829184" lon="105.319009"><ele>528.6075</ele><time>2026-04-01T00:02:22.000Z</time></trkpt>
        <trkpt lat="28.829187" lon="105.319064"><ele>528.7007</ele><time>2026-04-01T00:02:27.000Z</time></trkpt>
        <trkpt lat="28.829196" lon="105.319117"><ele>528.9305</ele><time>2026-04-01T00:02:32.000Z</time></trkpt>
        <trkpt lat="28.829209" lon="105.319176"><ele>528.9506</ele><time>2026-04-01T00:02:37.000Z</time></trkpt>
        <trkpt lat="28.829219" lon="105.319237"><ele>528.7992</ele><time>2026-04-01T00:02:42.000Z</time></trkpt>
        <trkpt lat="28.829226" lon="105.319289"><ele>528.3055</ele><time>2026-04-01T00:02:48.000Z</time></trkpt>
        <trkpt lat="28.829236" lon="105.319342"><ele>527.59607</ele><time>2026-04-01T00:02:57.000Z</time></trkpt>
        <trkpt lat="28.82922" lon="105.319399"><ele>527.49414</ele><time>2026-04-01T00:03:01.000Z</time></trkpt>
        <trkpt lat="28.829212" lon="105.319452"><ele>526.9271</ele><time>2026-04-01T00:03:04.000Z</time></trkpt>
        <trkpt lat="28.829206" lon="105.319508"><ele>526.4145</ele><time>2026-04-01T00:03:07.000Z</time></trkpt>
        <trkpt lat="28.829201" lon="105.319571"><ele>526.03503</ele><time>2026-04-01T00:03:11.000Z</time></trkpt>
        <trkpt lat="28.829191" lon="105.319634"><ele>525.63385</ele><time>2026-04-01T00:03:15.000Z</time></trkpt>
        <trkpt lat="28.829195" lon="105.319688"><ele>525.5182</ele><time>2026-04-01T00:03:18.000Z</time></trkpt>
        <trkpt lat="28.829204" lon="105.319748"><ele>525.33136</ele><time>2026-04-01T00:03:22.000Z</time></trkpt>
        <trkpt lat="28.82921" lon="105.31981"><ele>525.04126</ele><time>2026-04-01T00:03:26.000Z</time></trkpt>
        <trkpt lat="28.82921" lon="105.31986"><ele>526.1408</ele><time>2026-04-01T00:03:31.000Z</time></trkpt>
        <trkpt lat="28.82922" lon="105.319931"><ele>525.8934</ele><time>2026-04-01T00:03:35.000Z</time></trkpt>
        <trkpt lat="28.829231" lon="105.319982"><ele>525.4443</ele><time>2026-04-01T00:03:38.000Z</time></trkpt>
        <trkpt lat="28.829249" lon="105.32004"><ele>524.5483</ele><time>2026-04-01T00:03:42.000Z</time></trkpt>
        <trkpt lat="28.829262" lon="105.320091"><ele>523.59863</ele><time>2026-04-01T00:03:46.000Z</time></trkpt>
        <trkpt lat="28.82927" lon="105.320143"><ele>522.1753</ele><time>2026-04-01T00:03:50.000Z</time></trkpt>
        <trkpt lat="28.829282" lon="105.320192"><ele>520.43475</ele><time>2026-04-01T00:03:55.000Z</time></trkpt>
        <trkpt lat="28.829314" lon="105.320221"><ele>517.411</ele><time>2026-04-01T00:04:00.000Z</time></trkpt>
        <trkpt lat="28.829335" lon="105.320247"><ele>513.45087</ele><time>2026-04-01T00:04:07.000Z</time></trkpt>
        <trkpt lat="28.829343" lon="105.320298"><ele>511.178</ele><time>2026-04-01T00:04:13.000Z</time></trkpt>
        <trkpt lat="28.829351" lon="105.320354"><ele>509.30035</ele><time>2026-04-01T00:04:18.000Z</time></trkpt>
        <trkpt lat="28.829347" lon="105.320416"><ele>508.45505</ele><time>2026-04-01T00:04:22.000Z</time></trkpt>
        <trkpt lat="28.829354" lon="105.320494"><ele>508.3827</ele><time>2026-04-01T00:04:25.000Z</time></trkpt>
        <trkpt lat="28.829373" lon="105.320574"><ele>508.18033</ele><time>2026-04-01T00:04:28.000Z</time></trkpt>
        <trkpt lat="28.82939" lon="105.320641"><ele>507.95734</ele><time>2026-04-01T00:04:32.000Z</time></trkpt>
        <trkpt lat="28.829403" lon="105.320694"><ele>507.94</ele><time>2026-04-01T00:04:34.000Z</time></trkpt>
        <trkpt lat="28.82942" lon="105.320759"><ele>508.07724</ele><time>2026-04-01T00:04:36.000Z</time></trkpt>
        <trkpt lat="28.829435" lon="105.320839"><ele>508.08722</ele><time>2026-04-01T00:04:40.000Z</time></trkpt>
        <trkpt lat="28.829443" lon="105.320901"><ele>508.03552</ele><time>2026-04-01T00:04:44.000Z</time></trkpt>
        <trkpt lat="28.829443" lon="105.320962"><ele>508.0796</ele><time>2026-04-01T00:04:48.000Z</time></trkpt>
        <trkpt lat="28.829465" lon="105.321022"><ele>507.8234</ele><time>2026-04-01T00:04:52.000Z</time></trkpt>
        <trkpt lat="28.829481" lon="105.32107"><ele>507.65158</ele><time>2026-04-01T00:04:55.000Z</time></trkpt>
        <trkpt lat="28.829489" lon="105.321124"><ele>508.36493</ele><time>2026-04-01T00:04:59.000Z</time></trkpt>
        <trkpt lat="28.829494" lon="105.321176"><ele>509.0823</ele><time>2026-04-01T00:05:08.000Z</time></trkpt>
        <trkpt lat="28.829479" lon="105.321224"><ele>511.24692</ele><time>2026-04-01T00:05:15.000Z</time></trkpt>
        <trkpt lat="28.829478" lon="105.321284"><ele>513.0527</ele><time>2026-04-01T00:05:21.000Z</time></trkpt>
        <trkpt lat="28.829481" lon="105.321344"><ele>513.8239</ele><time>2026-04-01T00:05:26.000Z</time></trkpt>
        <trkpt lat="28.829481" lon="105.321396"><ele>514.6434</ele><time>2026-04-01T00:05:31.000Z</time></trkpt>
        <trkpt lat="28.829492" lon="105.321446"><ele>514.9157</ele><time>2026-04-01T00:05:36.000Z</time></trkpt>
        <trkpt lat="28.829514" lon="105.321494"><ele>515.2841</ele><time>2026-04-01T00:05:41.000Z</time></trkpt>
        <trkpt lat="28.829528" lon="105.321557"><ele>515.71173</ele><time>2026-04-01T00:05:46.000Z</time></trkpt>
        <trkpt lat="28.829541" lon="105.321616"><ele>515.35175</ele><time>2026-04-01T00:05:51.000Z</time></trkpt>
        <trkpt lat="28.829561" lon="105.321674"><ele>514.7822</ele><time>2026-04-01T00:05:56.000Z</time></trkpt>
        <trkpt lat="28.829581" lon="105.321729"><ele>514.3576</ele><time>2026-04-01T00:06:01.000Z</time></trkpt>
        <trkpt lat="28.829605" lon="105.321772"><ele>513.7955</ele><time>2026-04-01T00:06:07.000Z</time></trkpt>
        <trkpt lat="28.829633" lon="105.321817"><ele>512.52795</ele><time>2026-04-01T00:06:13.000Z</time></trkpt>
        <trkpt lat="28.829669" lon="105.321834"><ele>508.87918</ele><time>2026-04-01T00:06:21.000Z</time></trkpt>
        <trkpt lat="28.829698" lon="105.321865"><ele>506.43445</ele><time>2026-04-01T00:06:40.000Z</time></trkpt>
        <trkpt lat="28.829737" lon="105.321896"><ele>503.9921</ele><time>2026-04-01T00:07:31.000Z</time></trkpt>
        <trkpt lat="28.829774" lon="105.321921"><ele>502.2299</ele><time>2026-04-01T00:07:52.000Z</time></trkpt>
        <trkpt lat="28.829791" lon="105.321971"><ele>500.44162</ele><time>2026-04-01T00:07:59.000Z</time></trkpt>
        <trkpt lat="28.829757" lon="105.322011"><ele>498.89423</ele><time>2026-04-01T00:08:01.000Z</time></trkpt>
        <trkpt lat="28.829807" lon="105.32202"><ele>497.02145</ele><time>2026-04-01T00:08:04.000Z</time></trkpt>
        <trkpt lat="28.829866" lon="105.322024"><ele>495.51752</ele><time>2026-04-01T00:08:07.000Z</time></trkpt>
        <trkpt lat="28.829894" lon="105.322049"><ele>491.52594</ele><time>2026-04-01T00:08:24.000Z</time></trkpt>
        <trkpt lat="28.829881" lon="105.322066"><ele>486.91858</ele><time>2026-04-01T00:08:34.000Z</time></trkpt>
        <trkpt lat="28.829927" lon="105.322118"><ele>486.5564</ele><time>2026-04-01T00:08:45.000Z</time></trkpt>
        <trkpt lat="28.829965" lon="105.322146"><ele>484.26935</ele><time>2026-04-01T00:08:50.000Z</time></trkpt>
        <trkpt lat="28.829998" lon="105.32215"><ele>480.82062</ele><time>2026-04-01T00:09:06.000Z</time></trkpt>
        <trkpt lat="28.830033" lon="105.322179"><ele>478.58612</ele><time>2026-04-01T00:09:15.000Z</time></trkpt>
        <trkpt lat="28.830071" lon="105.322203"><ele>475.96243</ele><time>2026-04-01T00:09:27.000Z</time></trkpt>
        <trkpt lat="28.830076" lon="105.322255"><ele>475.33554</ele><time>2026-04-01T00:09:31.000Z</time></trkpt>
        <trkpt lat="28.830033" lon="105.322281"><ele>475.2436</ele><time>2026-04-01T00:10:34.000Z</time></trkpt>
        <trkpt lat="28.82999" lon="105.322299"><ele>474.68704</ele><time>2026-04-01T00:10:38.000Z</time></trkpt>
        <trkpt lat="28.829939" lon="105.322322"><ele>474.62997</ele><time>2026-04-01T00:10:42.000Z</time></trkpt>
        <trkpt lat="28.829888" lon="105.32235"><ele>474.14227</ele><time>2026-04-01T00:10:46.000Z</time></trkpt>
        <trkpt lat="28.829843" lon="105.322372"><ele>473.41205</ele><time>2026-04-01T00:10:50.000Z</time></trkpt>
        <trkpt lat="28.829799" lon="105.322406"><ele>473.28226</ele><time>2026-04-01T00:10:54.000Z</time></trkpt>
        <trkpt lat="28.829758" lon="105.322434"><ele>472.9412</ele><time>2026-04-01T00:10:57.000Z</time></trkpt>
        <trkpt lat="28.82972" lon="105.322461"><ele>472.87283</ele><time>2026-04-01T00:11:00.000Z</time></trkpt>
        <trkpt lat="28.829683" lon="105.322494"><ele>471.7872</ele><time>2026-04-01T00:11:05.000Z</time></trkpt>
        <trkpt lat="28.829637" lon="105.322537"><ele>471.5654</ele><time>2026-04-01T00:11:09.000Z</time></trkpt>
        <trkpt lat="28.82959" lon="105.322569"><ele>470.74857</ele><time>2026-04-01T00:11:12.000Z</time></trkpt>
        <trkpt lat="28.829545" lon="105.322607"><ele>469.9452</ele><time>2026-04-01T00:11:15.000Z</time></trkpt>
        <trkpt lat="28.82952" lon="105.322651"><ele>468.61295</ele><time>2026-04-01T00:11:18.000Z</time></trkpt>
        <trkpt lat="28.829572" lon="105.322595"><ele>467.03094</ele><time>2026-04-01T00:11:35.000Z</time></trkpt>
        <trkpt lat="28.829608" lon="105.322522"><ele>467.02274</ele><time>2026-04-01T00:11:37.000Z</time></trkpt>
        <trkpt lat="28.829637" lon="105.322457"><ele>467.01782</ele><time>2026-04-01T00:11:39.000Z</time></trkpt>
        <trkpt lat="28.829661" lon="105.322396"><ele>466.80624</ele><time>2026-04-01T00:11:41.000Z</time></trkpt>
        <trkpt lat="28.829621" lon="105.322375"><ele>465.77792</ele><time>2026-04-01T00:11:46.000Z</time></trkpt>
        <trkpt lat="28.829629" lon="105.322436"><ele>464.8962</ele><time>2026-04-01T00:11:49.000Z</time></trkpt>
        <trkpt lat="28.829589" lon="105.322523"><ele>463.5549</ele><time>2026-04-01T00:11:51.000Z</time></trkpt>
        <trkpt lat="28.829564" lon="105.322556"><ele>460.56186</ele><time>2026-04-01T00:11:53.000Z</time></trkpt>
        <trkpt lat="28.829555" lon="105.322614"><ele>458.2121</ele><time>2026-04-01T00:12:21.000Z</time></trkpt>
        <trkpt lat="28.82955" lon="105.322675"><ele>457.63934</ele><time>2026-04-01T00:12:45.000Z</time></trkpt>
        <trkpt lat="28.829553" lon="105.322726"><ele>456.11642</ele><time>2026-04-01T00:12:50.000Z</time></trkpt>
        <trkpt lat="28.829598" lon="105.322734"><ele>454.58054</ele><time>2026-04-01T00:12:57.000Z</time></trkpt>
        <trkpt lat="28.829641" lon="105.322759"><ele>452.68805</ele><time>2026-04-01T00:13:02.000Z</time></trkpt>
        <trkpt lat="28.829666" lon="105.322792"><ele>449.80527</ele><time>2026-04-01T00:13:11.000Z</time></trkpt>
        <trkpt lat="28.829697" lon="105.322821"><ele>447.37607</ele><time>2026-04-01T00:13:16.000Z</time></trkpt>
        <trkpt lat="28.829728" lon="105.322852"><ele>444.5895</ele><time>2026-04-01T00:13:21.000Z</time></trkpt>
        <trkpt lat="28.82975" lon="105.322892"><ele>441.2963</ele><time>2026-04-01T00:13:27.000Z</time></trkpt>
        <trkpt lat="28.829769" lon="105.322929"><ele>438.2466</ele><time>2026-04-01T00:13:39.000Z</time></trkpt>
        <trkpt lat="28.829802" lon="105.322962"><ele>436.4579</ele><time>2026-04-01T00:13:51.000Z</time></trkpt>
        <trkpt lat="28.82984" lon="105.323006"><ele>434.37988</ele><time>2026-04-01T00:13:56.000Z</time></trkpt>
        <trkpt lat="28.829845" lon="105.323072"><ele>433.5062</ele><time>2026-04-01T00:14:02.000Z</time></trkpt>
        <trkpt lat="28.829869" lon="105.32312"><ele>430.97763</ele><time>2026-04-01T00:14:10.000Z</time></trkpt>
        <trkpt lat="28.829895" lon="105.323165"><ele>429.91998</ele><time>2026-04-01T00:14:16.000Z</time></trkpt>
        <trkpt lat="28.829859" lon="105.323206"><ele>428.8312</ele><time>2026-04-01T00:14:28.000Z</time></trkpt>
        <trkpt lat="28.829818" lon="105.323232"><ele>427.55887</ele><time>2026-04-01T00:14:34.000Z</time></trkpt>
        <trkpt lat="28.82977" lon="105.323241"><ele>426.8683</ele><time>2026-04-01T00:14:40.000Z</time></trkpt>
        <trkpt lat="28.829717" lon="105.323243"><ele>425.77185</ele><time>2026-04-01T00:14:45.000Z</time></trkpt>
        <trkpt lat="28.829672" lon="105.323257"><ele>425.05496</ele><time>2026-04-01T00:14:50.000Z</time></trkpt>
        <trkpt lat="28.829619" lon="105.323275"><ele>424.2242</ele><time>2026-04-01T00:14:54.000Z</time></trkpt>
        <trkpt lat="28.82957" lon="105.323288"><ele>423.59167</ele><time>2026-04-01T00:14:58.000Z</time></trkpt>
        <trkpt lat="28.829521" lon="105.323318"><ele>423.62268</ele><time>2026-04-01T00:15:02.000Z</time></trkpt>
        <trkpt lat="28.829472" lon="105.323348"><ele>423.1837</ele><time>2026-04-01T00:15:06.000Z</time></trkpt>
        <trkpt lat="28.829431" lon="105.323371"><ele>422.18387</ele><time>2026-04-01T00:15:10.000Z</time></trkpt>
        <trkpt lat="28.829386" lon="105.323374"><ele>420.79578</ele><time>2026-04-01T00:15:14.000Z</time></trkpt>
        <trkpt lat="28.829333" lon="105.323382"><ele>420.01215</ele><time>2026-04-01T00:15:18.000Z</time></trkpt>
        <trkpt lat="28.829288" lon="105.323378"><ele>418.80624</ele><time>2026-04-01T00:15:22.000Z</time></trkpt>
        <trkpt lat="28.829213" lon="105.323393"><ele>417.602</ele><time>2026-04-01T00:15:26.000Z</time></trkpt>
        <trkpt lat="28.829161" lon="105.323378"><ele>416.87653</ele><time>2026-04-01T00:15:30.000Z</time></trkpt>
        <trkpt lat="28.829113" lon="105.323382"><ele>416.1447</ele><time>2026-04-01T00:15:33.000Z</time></trkpt>
        <trkpt lat="28.829061" lon="105.323414"><ele>416.34003</ele><time>2026-04-01T00:15:36.000Z</time></trkpt>
        <trkpt lat="28.829031" lon="105.323458"><ele>415.38654</ele><time>2026-04-01T00:15:40.000Z</time></trkpt>
        <trkpt lat="28.828999" lon="105.323505"><ele>412.83664</ele><time>2026-04-01T00:15:44.000Z</time></trkpt>
        <trkpt lat="28.828968" lon="105.323549"><ele>411.67755</ele><time>2026-04-01T00:15:48.000Z</time></trkpt>
        <trkpt lat="28.828927" lon="105.323579"><ele>410.19476</ele><time>2026-04-01T00:15:53.000Z</time></trkpt>
        <trkpt lat="28.828891" lon="105.323612"><ele>409.67545</ele><time>2026-04-01T00:15:57.000Z</time></trkpt>
        <trkpt lat="28.828859" lon="105.323653"><ele>408.16687</ele><time>2026-04-01T00:16:01.000Z</time></trkpt>
        <trkpt lat="28.828828" lon="105.323696"><ele>406.8573</ele><time>2026-04-01T00:16:05.000Z</time></trkpt>
        <trkpt lat="28.828823" lon="105.323746"><ele>405.34433</ele><time>2026-04-01T00:16:09.000Z</time></trkpt>
        <trkpt lat="28.828791" lon="105.323786"><ele>405.05478</ele><time>2026-04-01T00:16:21.000Z</time></trkpt>
        <trkpt lat="28.828744" lon="105.323783"><ele>403.76917</ele><time>2026-04-01T00:16:27.000Z</time></trkpt>
        <trkpt lat="28.828736" lon="105.323832"><ele>401.8842</ele><time>2026-04-01T00:16:32.000Z</time></trkpt>
        <trkpt lat="28.828695" lon="105.323873"><ele>400.91016</ele><time>2026-04-01T00:16:37.000Z</time></trkpt>
        <trkpt lat="28.828692" lon="105.323924"><ele>398.9587</ele><time>2026-04-01T00:16:45.000Z</time></trkpt>
        <trkpt lat="28.828709" lon="105.323986"><ele>397.84607</ele><time>2026-04-01T00:16:49.000Z</time></trkpt>
        <trkpt lat="28.828702" lon="105.324042"><ele>397.25183</ele><time>2026-04-01T00:16:53.000Z</time></trkpt>
        <trkpt lat="28.828695" lon="105.324088"><ele>395.1969</ele><time>2026-04-01T00:17:02.000Z</time></trkpt>
        <trkpt lat="28.828702" lon="105.324147"><ele>393.3802</ele><time>2026-04-01T00:17:09.000Z</time></trkpt>
        <trkpt lat="28.828707" lon="105.324202"><ele>391.53244</ele><time>2026-04-01T00:17:12.000Z</time></trkpt>
        <trkpt lat="28.828728" lon="105.324252"><ele>390.39526</ele><time>2026-04-01T00:17:15.000Z</time></trkpt>
        <trkpt lat="28.828749" lon="105.324299"><ele>389.37943</ele><time>2026-04-01T00:17:20.000Z</time></trkpt>
        <trkpt lat="28.828735" lon="105.324356"><ele>388.30865</ele><time>2026-04-01T00:17:24.000Z</time></trkpt>
        <trkpt lat="28.828702" lon="105.324392"><ele>388.83282</ele><time>2026-04-01T00:17:29.000Z</time></trkpt>
        <trkpt lat="28.828651" lon="105.324382"><ele>389.6534</ele><time>2026-04-01T00:17:34.000Z</time></trkpt>
        <trkpt lat="28.828597" lon="105.32437"><ele>389.7654</ele><time>2026-04-01T00:17:39.000Z</time></trkpt>
        <trkpt lat="28.828555" lon="105.324329"><ele>389.5766</ele><time>2026-04-01T00:17:43.000Z</time></trkpt>
        <trkpt lat="28.828513" lon="105.324288"><ele>389.99295</ele><time>2026-04-01T00:17:47.000Z</time></trkpt>
        <trkpt lat="28.828472" lon="105.324249"><ele>390.0862</ele><time>2026-04-01T00:17:51.000Z</time></trkpt>
        <trkpt lat="28.828432" lon="105.324205"><ele>389.62924</ele><time>2026-04-01T00:17:55.000Z</time></trkpt>
        <trkpt lat="28.828396" lon="105.324169"><ele>389.21042</ele><time>2026-04-01T00:17:59.000Z</time></trkpt>
        <trkpt lat="28.828351" lon="105.324141"><ele>388.94952</ele><time>2026-04-01T00:18:03.000Z</time></trkpt>
        <trkpt lat="28.828299" lon="105.324118"><ele>389.11615</ele><time>2026-04-01T00:18:07.000Z</time></trkpt>
        <trkpt lat="28.828247" lon="105.324093"><ele>388.826</ele><time>2026-04-01T00:18:11.000Z</time></trkpt>
        <trkpt lat="28.828212" lon="105.324043"><ele>388.90454</ele><time>2026-04-01T00:18:15.000Z</time></trkpt>
        <trkpt lat="28.828183" lon="105.323997"><ele>388.75247</ele><time>2026-04-01T00:18:19.000Z</time></trkpt>
        <trkpt lat="28.828153" lon="105.323952"><ele>388.95926</ele><time>2026-04-01T00:18:23.000Z</time></trkpt>
        <trkpt lat="28.828124" lon="105.323907"><ele>388.94318</ele><time>2026-04-01T00:18:27.000Z</time></trkpt>
        <trkpt lat="28.828093" lon="105.323863"><ele>389.02496</ele><time>2026-04-01T00:18:31.000Z</time></trkpt>
        <trkpt lat="28.828055" lon="105.323823"><ele>388.97202</ele><time>2026-04-01T00:18:35.000Z</time></trkpt>
        <trkpt lat="28.828013" lon="105.323794"><ele>388.90558</ele><time>2026-04-01T00:18:39.000Z</time></trkpt>
        <trkpt lat="28.827968" lon="105.323762"><ele>388.77783</ele><time>2026-04-01T00:18:43.000Z</time></trkpt>
        <trkpt lat="28.827938" lon="105.323716"><ele>388.65674</ele><time>2026-04-01T00:18:47.000Z</time></trkpt>
        <trkpt lat="28.827919" lon="105.323664"><ele>388.5429</ele><time>2026-04-01T00:18:51.000Z</time></trkpt>
        <trkpt lat="28.827898" lon="105.323614"><ele>388.53506</ele><time>2026-04-01T00:18:55.000Z</time></trkpt>
        <trkpt lat="28.827884" lon="105.323561"><ele>388.80676</ele><time>2026-04-01T00:18:59.000Z</time></trkpt>
        <trkpt lat="28.827859" lon="105.32351"><ele>389.23477</ele><time>2026-04-01T00:19:03.000Z</time></trkpt>
        <trkpt lat="28.82783" lon="105.323457"><ele>389.23315</ele><time>2026-04-01T00:19:07.000Z</time></trkpt>
        <trkpt lat="28.827794" lon="105.323415"><ele>389.42508</ele><time>2026-04-01T00:19:11.000Z</time></trkpt>
        <trkpt lat="28.827752" lon="105.323394"><ele>389.5277</ele><time>2026-04-01T00:19:15.000Z</time></trkpt>
        <trkpt lat="28.827706" lon="105.323373"><ele>389.86707</ele><time>2026-04-01T00:19:21.000Z</time></trkpt>
        <trkpt lat="28.827658" lon="105.32337"><ele>389.5353</ele><time>2026-04-01T00:19:25.000Z</time></trkpt>
        <trkpt lat="28.827609" lon="105.323391"><ele>389.3063</ele><time>2026-04-01T00:19:28.000Z</time></trkpt>
        <trkpt lat="28.827568" lon="105.323426"><ele>389.70135</ele><time>2026-04-01T00:19:31.000Z</time></trkpt>
        <trkpt lat="28.82754" lon="105.323469"><ele>389.48712</ele><time>2026-04-01T00:19:34.000Z</time></trkpt>
        <trkpt lat="28.827521" lon="105.323522"><ele>389.0487</ele><time>2026-04-01T00:19:37.000Z</time></trkpt>
        <trkpt lat="28.827503" lon="105.323571"><ele>388.26962</ele><time>2026-04-01T00:19:40.000Z</time></trkpt>
        <trkpt lat="28.827465" lon="105.32361"><ele>388.20676</ele><time>2026-04-01T00:19:44.000Z</time></trkpt>
        <trkpt lat="28.827415" lon="105.323629"><ele>388.298</ele><time>2026-04-01T00:19:48.000Z</time></trkpt>
        <trkpt lat="28.827356" lon="105.32362"><ele>388.42365</ele><time>2026-04-01T00:19:52.000Z</time></trkpt>
        <trkpt lat="28.82731" lon="105.323614"><ele>388.115</ele><time>2026-04-01T00:19:55.000Z</time></trkpt>
        <trkpt lat="28.827276" lon="105.323571"><ele>387.7037</ele><time>2026-04-01T00:19:59.000Z</time></trkpt>
        <trkpt lat="28.827264" lon="105.323519"><ele>387.33817</ele><time>2026-04-01T00:20:32.000Z</time></trkpt>
        <trkpt lat="28.827293" lon="105.323569"><ele>387.74707</ele><time>2026-04-01T00:20:48.000Z</time></trkpt>
        <trkpt lat="28.827302" lon="105.323621"><ele>387.73404</ele><time>2026-04-01T00:20:52.000Z</time></trkpt>
        <trkpt lat="28.827298" lon="105.323674"><ele>387.04425</ele><time>2026-04-01T00:20:56.000Z</time></trkpt>
        <trkpt lat="28.827301" lon="105.323727"><ele>385.52505</ele><time>2026-04-01T00:21:01.000Z</time></trkpt>
        <trkpt lat="28.827303" lon="105.323782"><ele>383.33737</ele><time>2026-04-01T00:21:16.000Z</time></trkpt>
        <trkpt lat="28.827283" lon="105.32383"><ele>383.1284</ele><time>2026-04-01T00:21:19.000Z</time></trkpt>
        <trkpt lat="28.827273" lon="105.32387"><ele>380.01596</ele><time>2026-04-01T00:21:35.000Z</time></trkpt>
        <trkpt lat="28.827257" lon="105.323925"><ele>379.45377</ele><time>2026-04-01T00:21:41.000Z</time></trkpt>
        <trkpt lat="28.827237" lon="105.323978"><ele>379.14938</ele><time>2026-04-01T00:21:45.000Z</time></trkpt>
        <trkpt lat="28.827214" lon="105.324023"><ele>378.7825</ele><time>2026-04-01T00:21:49.000Z</time></trkpt>
        <trkpt lat="28.827175" lon="105.324071"><ele>378.56253</ele><time>2026-04-01T00:21:54.000Z</time></trkpt>
        <trkpt lat="28.827138" lon="105.324106"><ele>378.0818</ele><time>2026-04-01T00:21:58.000Z</time></trkpt>
        <trkpt lat="28.827095" lon="105.324119"><ele>377.5438</ele><time>2026-04-01T00:22:04.000Z</time></trkpt>
        <trkpt lat="28.827058" lon="105.324088"><ele>376.45728</ele><time>2026-04-01T00:22:10.000Z</time></trkpt>
        <trkpt lat="28.827063" lon="105.324035"><ele>375.23203</ele><time>2026-04-01T00:22:15.000Z</time></trkpt>
        <trkpt lat="28.827071" lon="105.323984"><ele>373.99765</ele><time>2026-04-01T00:22:21.000Z</time></trkpt>
        <trkpt lat="28.827083" lon="105.323926"><ele>372.83875</ele><time>2026-04-01T00:22:28.000Z</time></trkpt>
        <trkpt lat="28.827098" lon="105.323869"><ele>372.73816</ele><time>2026-04-01T00:22:33.000Z</time></trkpt>
        <trkpt lat="28.827103" lon="105.323808"><ele>371.97748</ele><time>2026-04-01T00:22:38.000Z</time></trkpt>
        <trkpt lat="28.8271" lon="105.323748"><ele>371.22946</ele><time>2026-04-01T00:22:43.000Z</time></trkpt>
        <trkpt lat="28.827084" lon="105.323692"><ele>370.94763</ele><time>2026-04-01T00:22:49.000Z</time></trkpt>
        <trkpt lat="28.827061" lon="105.323643"><ele>370.4573</ele><time>2026-04-01T00:22:56.000Z</time></trkpt>
        <trkpt lat="28.827022" lon="105.323609"><ele>369.9542</ele><time>2026-04-01T00:23:01.000Z</time></trkpt>
        <trkpt lat="28.826975" lon="105.3236"><ele>369.19867</ele><time>2026-04-01T00:23:06.000Z</time></trkpt>
        <trkpt lat="28.826932" lon="105.323617"><ele>368.49506</ele><time>2026-04-01T00:23:21.000Z</time></trkpt>
        <trkpt lat="28.826886" lon="105.32361"><ele>368.0652</ele><time>2026-04-01T00:23:43.000Z</time></trkpt>
        <trkpt lat="28.826897" lon="105.323659"><ele>368.23068</ele><time>2026-04-01T00:23:49.000Z</time></trkpt>
        <trkpt lat="28.826901" lon="105.323723"><ele>369.08017</ele><time>2026-04-01T00:23:56.000Z</time></trkpt>
        <trkpt lat="28.826881" lon="105.323775"><ele>368.1331</ele><time>2026-04-01T00:24:03.000Z</time></trkpt>
        <trkpt lat="28.82686" lon="105.32382"><ele>367.62836</ele><time>2026-04-01T00:24:08.000Z</time></trkpt>
        <trkpt lat="28.826846" lon="105.32387"><ele>366.1882</ele><time>2026-04-01T00:24:14.000Z</time></trkpt>
        <trkpt lat="28.826838" lon="105.323929"><ele>365.47888</ele><time>2026-04-01T00:24:19.000Z</time></trkpt>
        <trkpt lat="28.826815" lon="105.323981"><ele>364.35214</ele><time>2026-04-01T00:24:24.000Z</time></trkpt>
        <trkpt lat="28.826785" lon="105.32403"><ele>363.40353</ele><time>2026-04-01T00:24:29.000Z</time></trkpt>
        <trkpt lat="28.82676" lon="105.324076"><ele>363.01892</ele><time>2026-04-01T00:24:33.000Z</time></trkpt>
        <trkpt lat="28.826741" lon="105.324123"><ele>361.99915</ele><time>2026-04-01T00:24:37.000Z</time></trkpt>
        <trkpt lat="28.826709" lon="105.32417"><ele>360.7759</ele><time>2026-04-01T00:24:42.000Z</time></trkpt>
        <trkpt lat="28.826689" lon="105.324221"><ele>359.44955</ele><time>2026-04-01T00:24:47.000Z</time></trkpt>
        <trkpt lat="28.826666" lon="105.324271"><ele>358.3694</ele><time>2026-04-01T00:24:52.000Z</time></trkpt>
        <trkpt lat="28.826647" lon="105.324323"><ele>356.8252</ele><time>2026-04-01T00:24:56.000Z</time></trkpt>
        <trkpt lat="28.82663" lon="105.324377"><ele>355.45923</ele><time>2026-04-01T00:25:00.000Z</time></trkpt>
        <trkpt lat="28.826601" lon="105.324415"><ele>353.08765</ele><time>2026-04-01T00:25:05.000Z</time></trkpt>
        <trkpt lat="28.826617" lon="105.32436"><ele>351.1357</ele><time>2026-04-01T00:25:11.000Z</time></trkpt>
        <trkpt lat="28.826638" lon="105.324311"><ele>350.42886</ele><time>2026-04-01T00:25:15.000Z</time></trkpt>
        <trkpt lat="28.826658" lon="105.324258"><ele>350.64874</ele><time>2026-04-01T00:25:20.000Z</time></trkpt>
        <trkpt lat="28.82667" lon="105.324203"><ele>351.16403</ele><time>2026-04-01T00:25:23.000Z</time></trkpt>
        <trkpt lat="28.826672" lon="105.324147"><ele>351.47632</ele><time>2026-04-01T00:25:27.000Z</time></trkpt>
        <trkpt lat="28.826672" lon="105.32409"><ele>351.78754</ele><time>2026-04-01T00:25:31.000Z</time></trkpt>
        <trkpt lat="28.826661" lon="105.324038"><ele>351.92014</ele><time>2026-04-01T00:25:35.000Z</time></trkpt>
        <trkpt lat="28.82664" lon="105.32399"><ele>351.70346</ele><time>2026-04-01T00:25:39.000Z</time></trkpt>
        <trkpt lat="28.826608" lon="105.323937"><ele>351.29562</ele><time>2026-04-01T00:25:44.000Z</time></trkpt>
        <trkpt lat="28.826572" lon="105.323896"><ele>350.37067</ele><time>2026-04-01T00:25:48.000Z</time></trkpt>
        <trkpt lat="28.826523" lon="105.323876"><ele>349.4402</ele><time>2026-04-01T00:25:52.000Z</time></trkpt>
        <trkpt lat="28.826469" lon="105.323852"><ele>348.46283</ele><time>2026-04-01T00:25:56.000Z</time></trkpt>
        <trkpt lat="28.826425" lon="105.323838"><ele>347.49292</ele><time>2026-04-01T00:25:59.000Z</time></trkpt>
        <trkpt lat="28.826381" lon="105.323831"><ele>347.18265</ele><time>2026-04-01T00:26:02.000Z</time></trkpt>
        <trkpt lat="28.826335" lon="105.323825"><ele>346.70383</ele><time>2026-04-01T00:26:05.000Z</time></trkpt>
        <trkpt lat="28.826282" lon="105.323831"><ele>346.3764</ele><time>2026-04-01T00:26:09.000Z</time></trkpt>
        <trkpt lat="28.826238" lon="105.323844"><ele>346.44177</ele><time>2026-04-01T00:26:13.000Z</time></trkpt>
        <trkpt lat="28.826185" lon="105.323827"><ele>345.84683</ele><time>2026-04-01T00:26:18.000Z</time></trkpt>
        <trkpt lat="28.82614" lon="105.323797"><ele>346.29327</ele><time>2026-04-01T00:26:23.000Z</time></trkpt>
        <trkpt lat="28.826104" lon="105.323751"><ele>346.54095</ele><time>2026-04-01T00:26:28.000Z</time></trkpt>
        <trkpt lat="28.826068" lon="105.323712"><ele>347.0915</ele><time>2026-04-01T00:26:32.000Z</time></trkpt>
        <trkpt lat="28.826044" lon="105.323669"><ele>348.03244</ele><time>2026-04-01T00:26:36.000Z</time></trkpt>
        <trkpt lat="28.826039" lon="105.323608"><ele>348.57904</ele><time>2026-04-01T00:26:41.000Z</time></trkpt>
        <trkpt lat="28.82606" lon="105.323562"><ele>349.9443</ele><time>2026-04-01T00:26:45.000Z</time></trkpt>
        <trkpt lat="28.826084" lon="105.323518"><ele>350.4272</ele><time>2026-04-01T00:26:49.000Z</time></trkpt>
        <trkpt lat="28.826107" lon="105.323476"><ele>351.61923</ele><time>2026-04-01T00:26:53.000Z</time></trkpt>
        <trkpt lat="28.826126" lon="105.323429"><ele>352.62576</ele><time>2026-04-01T00:26:58.000Z</time></trkpt>
        <trkpt lat="28.82614" lon="105.323376"><ele>353.9832</ele><time>2026-04-01T00:27:02.000Z</time></trkpt>
        <trkpt lat="28.826155" lon="105.323325"><ele>354.8434</ele><time>2026-04-01T00:27:07.000Z</time></trkpt>
        <trkpt lat="28.826151" lon="105.323271"><ele>355.34427</ele><time>2026-04-01T00:27:12.000Z</time></trkpt>
        <trkpt lat="28.826149" lon="105.323214"><ele>355.48843</ele><time>2026-04-01T00:27:16.000Z</time></trkpt>
        <trkpt lat="28.826149" lon="105.323162"><ele>355.62698</ele><time>2026-04-01T00:27:19.000Z</time></trkpt>
        <trkpt lat="28.826155" lon="105.323098"><ele>356.0582</ele><time>2026-04-01T00:27:23.000Z</time></trkpt>
        <trkpt lat="28.826165" lon="105.323034"><ele>356.17792</ele><time>2026-04-01T00:27:27.000Z</time></trkpt>
        <trkpt lat="28.826177" lon="105.322975"><ele>356.3474</ele><time>2026-04-01T00:27:31.000Z</time></trkpt>
        <trkpt lat="28.826196" lon="105.322923"><ele>356.8643</ele><time>2026-04-01T00:27:35.000Z</time></trkpt>
        <trkpt lat="28.826213" lon="105.32287"><ele>357.8861</ele><time>2026-04-01T00:27:40.000Z</time></trkpt>
        <trkpt lat="28.826214" lon="105.322809"><ele>358.02954</ele><time>2026-04-01T00:27:46.000Z</time></trkpt>
        <trkpt lat="28.826196" lon="105.322756"><ele>357.7239</ele><time>2026-04-01T00:27:50.000Z</time></trkpt>
        <trkpt lat="28.82618" lon="105.322707"><ele>358.0545</ele><time>2026-04-01T00:27:54.000Z</time></trkpt>
        <trkpt lat="28.826168" lon="105.322657"><ele>357.64957</ele><time>2026-04-01T00:27:59.000Z</time></trkpt>
        <trkpt lat="28.826141" lon="105.322613"><ele>357.015</ele><time>2026-04-01T00:29:03.000Z</time></trkpt>
        <trkpt lat="28.826139" lon="105.322554"><ele>358.092</ele><time>2026-04-01T00:29:07.000Z</time></trkpt>
        <trkpt lat="28.826143" lon="105.3225"><ele>359.34503</ele><time>2026-04-01T00:29:11.000Z</time></trkpt>
        <trkpt lat="28.826157" lon="105.322445"><ele>360.6899</ele><time>2026-04-01T00:29:15.000Z</time></trkpt>
        <trkpt lat="28.826158" lon="105.322392"><ele>361.52606</ele><time>2026-04-01T00:29:19.000Z</time></trkpt>
        <trkpt lat="28.826155" lon="105.322337"><ele>362.46384</ele><time>2026-04-01T00:29:23.000Z</time></trkpt>
        <trkpt lat="28.826158" lon="105.322281"><ele>363.81198</ele><time>2026-04-01T00:29:27.000Z</time></trkpt>
        <trkpt lat="28.826165" lon="105.322222"><ele>365.1391</ele><time>2026-04-01T00:29:31.000Z</time></trkpt>
        <trkpt lat="28.826169" lon="105.322165"><ele>366.94925</ele><time>2026-04-01T00:29:36.000Z</time></trkpt>
        <trkpt lat="28.826171" lon="105.322114"><ele>368.1535</ele><time>2026-04-01T00:29:40.000Z</time></trkpt>
        <trkpt lat="28.826165" lon="105.322054"><ele>369.25687</ele><time>2026-04-01T00:29:46.000Z</time></trkpt>
        <trkpt lat="28.826153" lon="105.321993"><ele>368.99234</ele><time>2026-04-01T00:29:51.000Z</time></trkpt>
        <trkpt lat="28.826135" lon="105.321944"><ele>369.58347</ele><time>2026-04-01T00:29:55.000Z</time></trkpt>
        <trkpt lat="28.826104" lon="105.321891"><ele>369.89456</ele><time>2026-04-01T00:29:59.000Z</time></trkpt>
        <trkpt lat="28.826074" lon="105.321842"><ele>369.91348</ele><time>2026-04-01T00:30:03.000Z</time></trkpt>
        <trkpt lat="28.826041" lon="105.321793"><ele>370.2267</ele><time>2026-04-01T00:30:07.000Z</time></trkpt>
        <trkpt lat="28.826006" lon="105.321745"><ele>369.78134</ele><time>2026-04-01T00:30:11.000Z</time></trkpt>
        <trkpt lat="28.825976" lon="105.321695"><ele>369.53766</ele><time>2026-04-01T00:30:15.000Z</time></trkpt>
        <trkpt lat="28.82597" lon="105.321633"><ele>370.2275</ele><time>2026-04-01T00:30:20.000Z</time></trkpt>
        <trkpt lat="28.82595" lon="105.321578"><ele>370.60568</ele><time>2026-04-01T00:30:24.000Z</time></trkpt>
        <trkpt lat="28.825938" lon="105.321518"><ele>371.84253</ele><time>2026-04-01T00:30:28.000Z</time></trkpt>
        <trkpt lat="28.825941" lon="105.321459"><ele>373.0324</ele><time>2026-04-01T00:30:32.000Z</time></trkpt>
        <trkpt lat="28.825945" lon="105.321393"><ele>374.46783</ele><time>2026-04-01T00:30:36.000Z</time></trkpt>
        <trkpt lat="28.82598" lon="105.321346"><ele>375.0608</ele><time>2026-04-01T00:30:39.000Z</time></trkpt>
        <trkpt lat="28.826017" lon="105.321308"><ele>375.57126</ele><time>2026-04-01T00:30:43.000Z</time></trkpt>
        <trkpt lat="28.826038" lon="105.321261"><ele>376.6645</ele><time>2026-04-01T00:30:47.000Z</time></trkpt>
        <trkpt lat="28.826037" lon="105.321205"><ele>376.30814</ele><time>2026-04-01T00:30:51.000Z</time></trkpt>
        <trkpt lat="28.826014" lon="105.32115"><ele>376.23117</ele><time>2026-04-01T00:30:54.000Z</time></trkpt>
        <trkpt lat="28.825983" lon="105.321085"><ele>375.09296</ele><time>2026-04-01T00:30:58.000Z</time></trkpt>
        <trkpt lat="28.825961" lon="105.321039"><ele>374.8946</ele><time>2026-04-01T00:31:01.000Z</time></trkpt>
        <trkpt lat="28.825937" lon="105.320994"><ele>374.5127</ele><time>2026-04-01T00:31:04.000Z</time></trkpt>
        <trkpt lat="28.825929" lon="105.320941"><ele>374.86942</ele><time>2026-04-01T00:31:11.000Z</time></trkpt>
        <trkpt lat="28.825928" lon="105.320884"><ele>373.27905</ele><time>2026-04-01T00:31:16.000Z</time></trkpt>
        <trkpt lat="28.825939" lon="105.320824"><ele>373.41037</ele><time>2026-04-01T00:31:20.000Z</time></trkpt>
        <trkpt lat="28.82595" lon="105.320764"><ele>373.14038</ele><time>2026-04-01T00:31:24.000Z</time></trkpt>
        <trkpt lat="28.825969" lon="105.320715"><ele>372.92648</ele><time>2026-04-01T00:31:28.000Z</time></trkpt>
        <trkpt lat="28.825997" lon="105.320671"><ele>372.92978</ele><time>2026-04-01T00:31:32.000Z</time></trkpt>
        <trkpt lat="28.826032" lon="105.32063"><ele>372.286</ele><time>2026-04-01T00:31:37.000Z</time></trkpt>
        <trkpt lat="28.826064" lon="105.320583"><ele>372.0527</ele><time>2026-04-01T00:31:41.000Z</time></trkpt>
        <trkpt lat="28.826073" lon="105.320524"><ele>372.09995</ele><time>2026-04-01T00:31:44.000Z</time></trkpt>
        <trkpt lat="28.826056" lon="105.320467"><ele>372.01675</ele><time>2026-04-01T00:31:47.000Z</time></trkpt>
        <trkpt lat="28.826028" lon="105.320407"><ele>371.9453</ele><time>2026-04-01T00:31:51.000Z</time></trkpt>
        <trkpt lat="28.826008" lon="105.320354"><ele>372.53607</ele><time>2026-04-01T00:31:54.000Z</time></trkpt>
        <trkpt lat="28.825987" lon="105.320308"><ele>373.43735</ele><time>2026-04-01T00:31:57.000Z</time></trkpt>
        <trkpt lat="28.825968" lon="105.320257"><ele>375.13367</ele><time>2026-04-01T00:32:01.000Z</time></trkpt>
        <trkpt lat="28.825978" lon="105.320204"><ele>375.82126</ele><time>2026-04-01T00:32:06.000Z</time></trkpt>
        <trkpt lat="28.826006" lon="105.320151"><ele>376.4775</ele><time>2026-04-01T00:32:10.000Z</time></trkpt>
        <trkpt lat="28.826013" lon="105.320092"><ele>376.63782</ele><time>2026-04-01T00:32:14.000Z</time></trkpt>
        <trkpt lat="28.826023" lon="105.320031"><ele>377.08508</ele><time>2026-04-01T00:32:18.000Z</time></trkpt>
        <trkpt lat="28.826036" lon="105.319977"><ele>378.7086</ele><time>2026-04-01T00:32:22.000Z</time></trkpt>
        <trkpt lat="28.826041" lon="105.319924"><ele>379.72437</ele><time>2026-04-01T00:32:25.000Z</time></trkpt>
        <trkpt lat="28.826046" lon="105.319868"><ele>379.73328</ele><time>2026-04-01T00:32:29.000Z</time></trkpt>
        <trkpt lat="28.826058" lon="105.319808"><ele>379.482</ele><time>2026-04-01T00:32:34.000Z</time></trkpt>
        <trkpt lat="28.826094" lon="105.319768"><ele>378.33777</ele><time>2026-04-01T00:33:08.000Z</time></trkpt>
        <trkpt lat="28.826142" lon="105.319735"><ele>378.19333</ele><time>2026-04-01T00:33:12.000Z</time></trkpt>
        <trkpt lat="28.82619" lon="105.319734"><ele>377.8811</ele><time>2026-04-01T00:33:18.000Z</time></trkpt>
        <trkpt lat="28.82622" lon="105.319773"><ele>377.2132</ele><time>2026-04-01T00:33:24.000Z</time></trkpt>
        <trkpt lat="28.826266" lon="105.319784"><ele>378.05945</ele><time>2026-04-01T00:33:30.000Z</time></trkpt>
        <trkpt lat="28.826288" lon="105.319829"><ele>379.85318</ele><time>2026-04-01T00:33:41.000Z</time></trkpt>
        <trkpt lat="28.826296" lon="105.319882"><ele>380.6935</ele><time>2026-04-01T00:33:46.000Z</time></trkpt>
        <trkpt lat="28.826327" lon="105.319922"><ele>381.13132</ele><time>2026-04-01T00:33:52.000Z</time></trkpt>
        <trkpt lat="28.826372" lon="105.319929"><ele>382.4874</ele><time>2026-04-01T00:34:02.000Z</time></trkpt>
        <trkpt lat="28.826418" lon="105.319925"><ele>382.1784</ele><time>2026-04-01T00:34:13.000Z</time></trkpt>
        <trkpt lat="28.826462" lon="105.319947"><ele>382.19217</ele><time>2026-04-01T00:34:21.000Z</time></trkpt>
        <trkpt lat="28.826493" lon="105.319947"><ele>385.89096</ele><time>2026-04-01T00:34:54.000Z</time></trkpt>
        <trkpt lat="28.826531" lon="105.319925"><ele>387.39462</ele><time>2026-04-01T00:35:10.000Z</time></trkpt>
        <trkpt lat="28.826571" lon="105.319893"><ele>387.7687</ele><time>2026-04-01T00:35:15.000Z</time></trkpt>
        <trkpt lat="28.826574" lon="105.319842"><ele>388.60638</ele><time>2026-04-01T00:35:19.000Z</time></trkpt>
        <trkpt lat="28.826557" lon="105.319791"><ele>389.4182</ele><time>2026-04-01T00:35:23.000Z</time></trkpt>
        <trkpt lat="28.826585" lon="105.319835"><ele>390.8063</ele><time>2026-04-01T00:35:40.000Z</time></trkpt>
        <trkpt lat="28.826601" lon="105.319881"><ele>393.87338</ele><time>2026-04-01T00:35:45.000Z</time></trkpt>
        <trkpt lat="28.826614" lon="105.319941"><ele>394.8455</ele><time>2026-04-01T00:35:49.000Z</time></trkpt>
        <trkpt lat="28.826644" lon="105.319995"><ele>395.25143</ele><time>2026-04-01T00:35:53.000Z</time></trkpt>
        <trkpt lat="28.82667" lon="105.320046"><ele>395.5054</ele><time>2026-04-01T00:35:57.000Z</time></trkpt>
        <trkpt lat="28.8267" lon="105.320088"><ele>395.60544</ele><time>2026-04-01T00:36:01.000Z</time></trkpt>
        <trkpt lat="28.826739" lon="105.320126"><ele>395.15997</ele><time>2026-04-01T00:36:06.000Z</time></trkpt>
        <trkpt lat="28.826776" lon="105.320154"><ele>395.5954</ele><time>2026-04-01T00:36:10.000Z</time></trkpt>
        <trkpt lat="28.826821" lon="105.320158"><ele>396.41602</ele><time>2026-04-01T00:36:15.000Z</time></trkpt>
        <trkpt lat="28.826859" lon="105.320186"><ele>397.04248</ele><time>2026-04-01T00:36:22.000Z</time></trkpt>
        <trkpt lat="28.826866" lon="105.320249"><ele>397.0725</ele><time>2026-04-01T00:36:27.000Z</time></trkpt>
        <trkpt lat="28.826878" lon="105.320301"><ele>396.83197</ele><time>2026-04-01T00:36:31.000Z</time></trkpt>
        <trkpt lat="28.826898" lon="105.320363"><ele>396.4163</ele><time>2026-04-01T00:36:35.000Z</time></trkpt>
        <trkpt lat="28.82692" lon="105.320418"><ele>396.28998</ele><time>2026-04-01T00:36:39.000Z</time></trkpt>
        <trkpt lat="28.826947" lon="105.320364"><ele>396.5178</ele><time>2026-04-01T00:36:45.000Z</time></trkpt>
        <trkpt lat="28.826951" lon="105.320302"><ele>396.67328</ele><time>2026-04-01T00:36:49.000Z</time></trkpt>
        <trkpt lat="28.826962" lon="105.320236"><ele>397.09537</ele><time>2026-04-01T00:36:53.000Z</time></trkpt>
        <trkpt lat="28.826972" lon="105.320177"><ele>397.56885</ele><time>2026-04-01T00:36:57.000Z</time></trkpt>
        <trkpt lat="28.826982" lon="105.320123"><ele>398.0965</ele><time>2026-04-01T00:37:01.000Z</time></trkpt>
        <trkpt lat="28.826986" lon="105.320072"><ele>399.049</ele><time>2026-04-01T00:37:05.000Z</time></trkpt>
        <trkpt lat="28.826987" lon="105.320016"><ele>399.96494</ele><time>2026-04-01T00:37:10.000Z</time></trkpt>
        <trkpt lat="28.826983" lon="105.319955"><ele>401.06842</ele><time>2026-04-01T00:37:15.000Z</time></trkpt>
        <trkpt lat="28.826975" lon="105.319894"><ele>402.2252</ele><time>2026-04-01T00:37:20.000Z</time></trkpt>
        <trkpt lat="28.82697" lon="105.319845"><ele>404.33813</ele><time>2026-04-01T00:37:24.000Z</time></trkpt>
        <trkpt lat="28.826945" lon="105.319798"><ele>403.96616</ele><time>2026-04-01T00:37:29.000Z</time></trkpt>
        <trkpt lat="28.826905" lon="105.319766"><ele>405.29694</ele><time>2026-04-01T00:37:35.000Z</time></trkpt>
        <trkpt lat="28.826869" lon="105.319732"><ele>406.2393</ele><time>2026-04-01T00:37:40.000Z</time></trkpt>
        <trkpt lat="28.826831" lon="105.31969"><ele>407.74124</ele><time>2026-04-01T00:37:45.000Z</time></trkpt>
        <trkpt lat="28.8268" lon="105.31965"><ele>408.97977</ele><time>2026-04-01T00:37:49.000Z</time></trkpt>
        <trkpt lat="28.82677" lon="105.319605"><ele>408.97723</ele><time>2026-04-01T00:37:53.000Z</time></trkpt>
        <trkpt lat="28.826742" lon="105.319558"><ele>408.72192</ele><time>2026-04-01T00:37:57.000Z</time></trkpt>
        <trkpt lat="28.826724" lon="105.319508"><ele>408.53513</ele><time>2026-04-01T00:38:01.000Z</time></trkpt>
        <trkpt lat="28.826712" lon="105.319456"><ele>408.87997</ele><time>2026-04-01T00:38:05.000Z</time></trkpt>
        <trkpt lat="28.826701" lon="105.319394"><ele>408.56628</ele><time>2026-04-01T00:38:10.000Z</time></trkpt>
        <trkpt lat="28.826695" lon="105.319335"><ele>408.06375</ele><time>2026-04-01T00:38:21.000Z</time></trkpt>
        <trkpt lat="28.826695" lon="105.319279"><ele>408.41443</ele><time>2026-04-01T00:38:25.000Z</time></trkpt>
        <trkpt lat="28.826695" lon="105.319219"><ele>408.4419</ele><time>2026-04-01T00:38:29.000Z</time></trkpt>
        <trkpt lat="28.826688" lon="105.319162"><ele>409.09995</ele><time>2026-04-01T00:38:33.000Z</time></trkpt>
        <trkpt lat="28.826692" lon="105.319101"><ele>409.71045</ele><time>2026-04-01T00:38:38.000Z</time></trkpt>
        <trkpt lat="28.826703" lon="105.319045"><ele>409.97867</ele><time>2026-04-01T00:38:43.000Z</time></trkpt>
        <trkpt lat="28.826723" lon="105.318992"><ele>410.53992</ele><time>2026-04-01T00:38:48.000Z</time></trkpt>
        <trkpt lat="28.826752" lon="105.318939"><ele>411.23752</ele><time>2026-04-01T00:38:53.000Z</time></trkpt>
        <trkpt lat="28.82677" lon="105.318886"><ele>412.01572</ele><time>2026-04-01T00:38:58.000Z</time></trkpt>
        <trkpt lat="28.826797" lon="105.31884"><ele>413.2595</ele><time>2026-04-01T00:39:08.000Z</time></trkpt>
        <trkpt lat="28.826797" lon="105.318857"><ele>417.98203</ele><time>2026-04-01T00:39:57.000Z</time></trkpt>
        <trkpt lat="28.826812" lon="105.318799"><ele>418.2608</ele><time>2026-04-01T00:40:33.000Z</time></trkpt>
        <trkpt lat="28.826839" lon="105.318755"><ele>418.53397</ele><time>2026-04-01T00:40:41.000Z</time></trkpt>
        <trkpt lat="28.82685" lon="105.318703"><ele>418.55167</ele><time>2026-04-01T00:40:56.000Z</time></trkpt>
        <trkpt lat="28.826859" lon="105.318649"><ele>417.97824</ele><time>2026-04-01T00:41:01.000Z</time></trkpt>
        <trkpt lat="28.826873" lon="105.318592"><ele>417.11246</ele><time>2026-04-01T00:41:09.000Z</time></trkpt>
        <trkpt lat="28.826878" lon="105.31854"><ele>416.86063</ele><time>2026-04-01T00:41:16.000Z</time></trkpt>
        <trkpt lat="28.826881" lon="105.318484"><ele>415.73956</ele><time>2026-04-01T00:41:21.000Z</time></trkpt>
        <trkpt lat="28.826883" lon="105.318428"><ele>415.98804</ele><time>2026-04-01T00:41:25.000Z</time></trkpt>
        <trkpt lat="28.826883" lon="105.31837"><ele>417.12045</ele><time>2026-04-01T00:41:29.000Z</time></trkpt>
        <trkpt lat="28.826893" lon="105.318319"><ele>418.56284</ele><time>2026-04-01T00:41:33.000Z</time></trkpt>
        <trkpt lat="28.826914" lon="105.318268"><ele>419.39322</ele><time>2026-04-01T00:41:38.000Z</time></trkpt>
        <trkpt lat="28.826929" lon="105.318221"><ele>420.02835</ele><time>2026-04-01T00:41:43.000Z</time></trkpt>
        <trkpt lat="28.826956" lon="105.318175"><ele>420.70087</ele><time>2026-04-01T00:41:48.000Z</time></trkpt>
        <trkpt lat="28.826982" lon="105.318128"><ele>421.07318</ele><time>2026-04-01T00:41:53.000Z</time></trkpt>
        <trkpt lat="28.827006" lon="105.31808"><ele>422.67355</ele><time>2026-04-01T00:41:58.000Z</time></trkpt>
        <trkpt lat="28.827035" lon="105.318031"><ele>422.84512</ele><time>2026-04-01T00:42:04.000Z</time></trkpt>
        <trkpt lat="28.827062" lon="105.317985"><ele>422.35895</ele><time>2026-04-01T00:42:09.000Z</time></trkpt>
        <trkpt lat="28.827082" lon="105.317927"><ele>422.25885</ele><time>2026-04-01T00:42:14.000Z</time></trkpt>
        <trkpt lat="28.827094" lon="105.317875"><ele>422.22906</ele><time>2026-04-01T00:42:18.000Z</time></trkpt>
        <trkpt lat="28.827098" lon="105.317821"><ele>422.6766</ele><time>2026-04-01T00:42:22.000Z</time></trkpt>
        <trkpt lat="28.827102" lon="105.317768"><ele>424.748</ele><time>2026-04-01T00:42:26.000Z</time></trkpt>
        <trkpt lat="28.827101" lon="105.317715"><ele>425.73416</ele><time>2026-04-01T00:42:31.000Z</time></trkpt>
        <trkpt lat="28.827103" lon="105.317662"><ele>427.3025</ele><time>2026-04-01T00:42:38.000Z</time></trkpt>
        <trkpt lat="28.8271" lon="105.317602"><ele>427.79675</ele><time>2026-04-01T00:42:44.000Z</time></trkpt>
        <trkpt lat="28.827095" lon="105.317547"><ele>428.20227</ele><time>2026-04-01T00:42:49.000Z</time></trkpt>
        <trkpt lat="28.82709" lon="105.317495"><ele>429.27496</ele><time>2026-04-01T00:42:54.000Z</time></trkpt>
        <trkpt lat="28.827077" lon="105.317443"><ele>430.52393</ele><time>2026-04-01T00:42:59.000Z</time></trkpt>
        <trkpt lat="28.827051" lon="105.317395"><ele>430.57095</ele><time>2026-04-01T00:43:04.000Z</time></trkpt>
        <trkpt lat="28.827017" lon="105.317352"><ele>430.47617</ele><time>2026-04-01T00:43:09.000Z</time></trkpt>
        <trkpt lat="28.826976" lon="105.317319"><ele>430.67102</ele><time>2026-04-01T00:43:14.000Z</time></trkpt>
        <trkpt lat="28.826931" lon="105.317288"><ele>430.63425</ele><time>2026-04-01T00:43:19.000Z</time></trkpt>
        <trkpt lat="28.826885" lon="105.317259"><ele>430.42004</ele><time>2026-04-01T00:43:24.000Z</time></trkpt>
        <trkpt lat="28.826852" lon="105.317219"><ele>431.724</ele><time>2026-04-01T00:43:28.000Z</time></trkpt>
        <trkpt lat="28.826822" lon="105.31718"><ele>432.12903</ele><time>2026-04-01T00:43:32.000Z</time></trkpt>
        <trkpt lat="28.826786" lon="105.317143"><ele>432.40958</ele><time>2026-04-01T00:43:36.000Z</time></trkpt>
        <trkpt lat="28.826747" lon="105.317113"><ele>432.69675</ele><time>2026-04-01T00:43:40.000Z</time></trkpt>
        <trkpt lat="28.826709" lon="105.317081"><ele>432.6157</ele><time>2026-04-01T00:43:45.000Z</time></trkpt>
        <trkpt lat="28.826662" lon="105.317043"><ele>433.03604</ele><time>2026-04-01T00:43:50.000Z</time></trkpt>
        <trkpt lat="28.826617" lon="105.317009"><ele>434.11044</ele><time>2026-04-01T00:43:54.000Z</time></trkpt>
        <trkpt lat="28.826578" lon="105.316977"><ele>435.76736</ele><time>2026-04-01T00:43:58.000Z</time></trkpt>
        <trkpt lat="28.826526" lon="105.316966"><ele>437.575</ele><time>2026-04-01T00:44:02.000Z</time></trkpt>
        <trkpt lat="28.826473" lon="105.31697"><ele>438.81653</ele><time>2026-04-01T00:44:06.000Z</time></trkpt>
        <trkpt lat="28.826424" lon="105.316969"><ele>439.38464</ele><time>2026-04-01T00:44:10.000Z</time></trkpt>
        <trkpt lat="28.826375" lon="105.316969"><ele>439.07318</ele><time>2026-04-01T00:44:14.000Z</time></trkpt>
        <trkpt lat="28.826319" lon="105.316966"><ele>438.18195</ele><time>2026-04-01T00:44:18.000Z</time></trkpt>
        <trkpt lat="28.826262" lon="105.316955"><ele>437.57703</ele><time>2026-04-01T00:44:22.000Z</time></trkpt>
        <trkpt lat="28.826213" lon="105.316928"><ele>437.2235</ele><time>2026-04-01T00:44:26.000Z</time></trkpt>
        <trkpt lat="28.826175" lon="105.31689"><ele>437.02295</ele><time>2026-04-01T00:44:30.000Z</time></trkpt>
        <trkpt lat="28.826122" lon="105.316867"><ele>436.82404</ele><time>2026-04-01T00:44:35.000Z</time></trkpt>
        <trkpt lat="28.826071" lon="105.316863"><ele>438.1497</ele><time>2026-04-01T00:44:40.000Z</time></trkpt>
        <trkpt lat="28.826022" lon="105.316888"><ele>439.03964</ele><time>2026-04-01T00:44:44.000Z</time></trkpt>
        <trkpt lat="28.82597" lon="105.316911"><ele>439.88916</ele><time>2026-04-01T00:44:48.000Z</time></trkpt>
        <trkpt lat="28.825914" lon="105.316907"><ele>439.9634</ele><time>2026-04-01T00:44:52.000Z</time></trkpt>
        <trkpt lat="28.825876" lon="105.316876"><ele>439.26678</ele><time>2026-04-01T00:44:58.000Z</time></trkpt>
        <trkpt lat="28.825841" lon="105.316825"><ele>438.72748</ele><time>2026-04-01T00:45:02.000Z</time></trkpt>
        <trkpt lat="28.825807" lon="105.31679"><ele>438.96616</ele><time>2026-04-01T00:45:06.000Z</time></trkpt>
        <trkpt lat="28.825774" lon="105.316747"><ele>438.96838</ele><time>2026-04-01T00:45:10.000Z</time></trkpt>
        <trkpt lat="28.825735" lon="105.316711"><ele>438.79785</ele><time>2026-04-01T00:45:14.000Z</time></trkpt>
        <trkpt lat="28.825688" lon="105.316676"><ele>439.65894</ele><time>2026-04-01T00:45:17.000Z</time></trkpt>
        <trkpt lat="28.825641" lon="105.316648"><ele>438.53363</ele><time>2026-04-01T00:45:21.000Z</time></trkpt>
        <trkpt lat="28.825608" lon="105.316614"><ele>437.6085</ele><time>2026-04-01T00:45:25.000Z</time></trkpt>
        <trkpt lat="28.825615" lon="105.316554"><ele>436.39508</ele><time>2026-04-01T00:45:30.000Z</time></trkpt>
        <trkpt lat="28.825628" lon="105.316497"><ele>436.18228</ele><time>2026-04-01T00:45:34.000Z</time></trkpt>
        <trkpt lat="28.825633" lon="105.316445"><ele>436.58508</ele><time>2026-04-01T00:45:37.000Z</time></trkpt>
        <trkpt lat="28.82561" lon="105.316398"><ele>436.0665</ele><time>2026-04-01T00:45:41.000Z</time></trkpt>
        <trkpt lat="28.825577" lon="105.316364"><ele>437.1431</ele><time>2026-04-01T00:45:45.000Z</time></trkpt>
        <trkpt lat="28.82553" lon="105.316343"><ele>437.45157</ele><time>2026-04-01T00:45:50.000Z</time></trkpt>
        <trkpt lat="28.825494" lon="105.316297"><ele>438.00946</ele><time>2026-04-01T00:45:58.000Z</time></trkpt>
        <trkpt lat="28.825458" lon="105.316259"><ele>437.9078</ele><time>2026-04-01T00:46:02.000Z</time></trkpt>
        <trkpt lat="28.825412" lon="105.316222"><ele>437.3534</ele><time>2026-04-01T00:46:07.000Z</time></trkpt>
        <trkpt lat="28.825379" lon="105.316187"><ele>437.18045</ele><time>2026-04-01T00:46:11.000Z</time></trkpt>
        <trkpt lat="28.825344" lon="105.316146"><ele>436.78522</ele><time>2026-04-01T00:46:15.000Z</time></trkpt>
        <trkpt lat="28.825311" lon="105.316106"><ele>436.2741</ele><time>2026-04-01T00:46:19.000Z</time></trkpt>
        <trkpt lat="28.825282" lon="105.316064"><ele>435.88138</ele><time>2026-04-01T00:46:23.000Z</time></trkpt>
        <trkpt lat="28.825257" lon="105.316021"><ele>435.57242</ele><time>2026-04-01T00:46:27.000Z</time></trkpt>
        <trkpt lat="28.825241" lon="105.315971"><ele>434.84317</ele><time>2026-04-01T00:46:31.000Z</time></trkpt>
        <trkpt lat="28.825271" lon="105.315918"><ele>434.23053</ele><time>2026-04-01T00:46:35.000Z</time></trkpt>
        <trkpt lat="28.825297" lon="105.315875"><ele>433.734</ele><time>2026-04-01T00:46:39.000Z</time></trkpt>
        <trkpt lat="28.825316" lon="105.315823"><ele>433.46057</ele><time>2026-04-01T00:46:45.000Z</time></trkpt>
        <trkpt lat="28.825336" lon="105.315771"><ele>433.72678</ele><time>2026-04-01T00:46:51.000Z</time></trkpt>
        <trkpt lat="28.825366" lon="105.315725"><ele>434.00168</ele><time>2026-04-01T00:46:58.000Z</time></trkpt>
        <trkpt lat="28.825411" lon="105.315691"><ele>434.15442</ele><time>2026-04-01T00:47:03.000Z</time></trkpt>
        <trkpt lat="28.825432" lon="105.31565"><ele>436.1504</ele><time>2026-04-01T00:47:07.000Z</time></trkpt>
        <trkpt lat="28.825408" lon="105.315607"><ele>437.16327</ele><time>2026-04-01T00:47:11.000Z</time></trkpt>
        <trkpt lat="28.825369" lon="105.315564"><ele>438.69818</ele><time>2026-04-01T00:47:16.000Z</time></trkpt>
        <trkpt lat="28.82533" lon="105.315523"><ele>439.20898</ele><time>2026-04-01T00:47:20.000Z</time></trkpt>
        <trkpt lat="28.825285" lon="105.315486"><ele>439.55707</ele><time>2026-04-01T00:47:24.000Z</time></trkpt>
        <trkpt lat="28.825246" lon="105.315436"><ele>439.7205</ele><time>2026-04-01T00:47:27.000Z</time></trkpt>
        <trkpt lat="28.825235" lon="105.315384"><ele>439.45663</ele><time>2026-04-01T00:47:30.000Z</time></trkpt>
        <trkpt lat="28.825228" lon="105.31532"><ele>440.1364</ele><time>2026-04-01T00:47:34.000Z</time></trkpt>
        <trkpt lat="28.825233" lon="105.315259"><ele>440.7489</ele><time>2026-04-01T00:47:38.000Z</time></trkpt>
        <trkpt lat="28.825233" lon="105.315206"><ele>440.97852</ele><time>2026-04-01T00:47:42.000Z</time></trkpt>
        <trkpt lat="28.825204" lon="105.315151"><ele>440.263</ele><time>2026-04-01T00:47:47.000Z</time></trkpt>
        <trkpt lat="28.825167" lon="105.315115"><ele>440.09793</ele><time>2026-04-01T00:47:51.000Z</time></trkpt>
        <trkpt lat="28.825109" lon="105.315109"><ele>440.14752</ele><time>2026-04-01T00:47:55.000Z</time></trkpt>
        <trkpt lat="28.825063" lon="105.315073"><ele>439.9975</ele><time>2026-04-01T00:47:58.000Z</time></trkpt>
        <trkpt lat="28.825032" lon="105.315027"><ele>440.83096</ele><time>2026-04-01T00:48:02.000Z</time></trkpt>
        <trkpt lat="28.825002" lon="105.314982"><ele>441.63193</ele><time>2026-04-01T00:48:06.000Z</time></trkpt>
        <trkpt lat="28.824962" lon="105.314946"><ele>442.95706</ele><time>2026-04-01T00:48:11.000Z</time></trkpt>
        <trkpt lat="28.824914" lon="105.314935"><ele>444.59537</ele><time>2026-04-01T00:48:15.000Z</time></trkpt>
        <trkpt lat="28.824866" lon="105.314929"><ele>445.79172</ele><time>2026-04-01T00:48:20.000Z</time></trkpt>
        <trkpt lat="28.824823" lon="105.314913"><ele>447.90134</ele><time>2026-04-01T00:48:27.000Z</time></trkpt>
        <trkpt lat="28.824782" lon="105.314884"><ele>449.65518</ele><time>2026-04-01T00:48:35.000Z</time></trkpt>
        <trkpt lat="28.824732" lon="105.314868"><ele>450.80237</ele><time>2026-04-01T00:48:40.000Z</time></trkpt>
        <trkpt lat="28.824693" lon="105.314844"><ele>451.8102</ele><time>2026-04-01T00:48:45.000Z</time></trkpt>
        <trkpt lat="28.824644" lon="105.314834"><ele>452.07144</ele><time>2026-04-01T00:48:52.000Z</time></trkpt>
        <trkpt lat="28.824601" lon="105.314819"><ele>453.2406</ele><time>2026-04-01T00:48:59.000Z</time></trkpt>
        <trkpt lat="28.824568" lon="105.314776"><ele>454.4632</ele><time>2026-04-01T00:49:06.000Z</time></trkpt>
        <trkpt lat="28.824532" lon="105.314729"><ele>456.64255</ele><time>2026-04-01T00:49:12.000Z</time></trkpt>
        <trkpt lat="28.824512" lon="105.314683"><ele>457.18417</ele><time>2026-04-01T00:49:15.000Z</time></trkpt>
        <trkpt lat="28.824507" lon="105.314628"><ele>458.0224</ele><time>2026-04-01T00:49:18.000Z</time></trkpt>
        <trkpt lat="28.82451" lon="105.314572"><ele>458.60617</ele><time>2026-04-01T00:49:21.000Z</time></trkpt>
        <trkpt lat="28.824503" lon="105.314504"><ele>459.65906</ele><time>2026-04-01T00:49:25.000Z</time></trkpt>
        <trkpt lat="28.824485" lon="105.314447"><ele>460.43082</ele><time>2026-04-01T00:49:28.000Z</time></trkpt>
        <trkpt lat="28.824455" lon="105.314399"><ele>460.50015</ele><time>2026-04-01T00:49:32.000Z</time></trkpt>
        <trkpt lat="28.824425" lon="105.314349"><ele>460.1369</ele><time>2026-04-01T00:49:37.000Z</time></trkpt>
        <trkpt lat="28.824391" lon="105.314299"><ele>459.52838</ele><time>2026-04-01T00:49:41.000Z</time></trkpt>
        <trkpt lat="28.824359" lon="105.314244"><ele>459.5316</ele><time>2026-04-01T00:49:45.000Z</time></trkpt>
        <trkpt lat="28.824346" lon="105.314194"><ele>459.35703</ele><time>2026-04-01T00:49:49.000Z</time></trkpt>
        <trkpt lat="28.824345" lon="105.314139"><ele>458.95267</ele><time>2026-04-01T00:49:53.000Z</time></trkpt>
        <trkpt lat="28.824345" lon="105.314077"><ele>458.46405</ele><time>2026-04-01T00:49:57.000Z</time></trkpt>
        <trkpt lat="28.824351" lon="105.314017"><ele>457.88312</ele><time>2026-04-01T00:50:01.000Z</time></trkpt>
        <trkpt lat="28.824365" lon="105.313959"><ele>457.44617</ele><time>2026-04-01T00:50:05.000Z</time></trkpt>
        <trkpt lat="28.82438" lon="105.313906"><ele>457.11447</ele><time>2026-04-01T00:50:09.000Z</time></trkpt>
        <trkpt lat="28.824399" lon="105.313851"><ele>456.62717</ele><time>2026-04-01T00:50:13.000Z</time></trkpt>
        <trkpt lat="28.824411" lon="105.3138"><ele>456.19247</ele><time>2026-04-01T00:50:17.000Z</time></trkpt>
        <trkpt lat="28.824406" lon="105.313736"><ele>455.81772</ele><time>2026-04-01T00:50:22.000Z</time></trkpt>
        <trkpt lat="28.824394" lon="105.313685"><ele>455.48108</ele><time>2026-04-01T00:50:26.000Z</time></trkpt>
        <trkpt lat="28.824381" lon="105.313623"><ele>454.82434</ele><time>2026-04-01T00:50:31.000Z</time></trkpt>
        <trkpt lat="28.824373" lon="105.313571"><ele>454.6769</ele><time>2026-04-01T00:50:35.000Z</time></trkpt>
        <trkpt lat="28.824374" lon="105.313517"><ele>454.77402</ele><time>2026-04-01T00:50:39.000Z</time></trkpt>
        <trkpt lat="28.824395" lon="105.31346"><ele>454.9012</ele><time>2026-04-01T00:50:43.000Z</time></trkpt>
        <trkpt lat="28.824429" lon="105.313411"><ele>454.9377</ele><time>2026-04-01T00:50:47.000Z</time></trkpt>
        <trkpt lat="28.824466" lon="105.313381"><ele>455.05362</ele><time>2026-04-01T00:50:50.000Z</time></trkpt>
        <trkpt lat="28.824512" lon="105.313355"><ele>454.9173</ele><time>2026-04-01T00:50:54.000Z</time></trkpt>
        <trkpt lat="28.824579" lon="105.313326"><ele>454.27966</ele><time>2026-04-01T00:50:58.000Z</time></trkpt>
        <trkpt lat="28.824632" lon="105.313315"><ele>454.14276</ele><time>2026-04-01T00:51:04.000Z</time></trkpt>
        <trkpt lat="28.824661" lon="105.313274"><ele>453.78076</ele><time>2026-04-01T00:51:09.000Z</time></trkpt>
        <trkpt lat="28.824693" lon="105.313226"><ele>452.58478</ele><time>2026-04-01T00:51:13.000Z</time></trkpt>
        <trkpt lat="28.824727" lon="105.313188"><ele>451.59653</ele><time>2026-04-01T00:51:16.000Z</time></trkpt>
        <trkpt lat="28.824762" lon="105.313152"><ele>450.6549</ele><time>2026-04-01T00:51:19.000Z</time></trkpt>
        <trkpt lat="28.824801" lon="105.313109"><ele>449.54364</ele><time>2026-04-01T00:51:23.000Z</time></trkpt>
        <trkpt lat="28.82484" lon="105.313074"><ele>449.1245</ele><time>2026-04-01T00:51:27.000Z</time></trkpt>
        <trkpt lat="28.824875" lon="105.313034"><ele>448.66605</ele><time>2026-04-01T00:51:31.000Z</time></trkpt>
        <trkpt lat="28.824906" lon="105.312989"><ele>448.4842</ele><time>2026-04-01T00:51:35.000Z</time></trkpt>
        <trkpt lat="28.824939" lon="105.31294"><ele>447.3466</ele><time>2026-04-01T00:51:39.000Z</time></trkpt>
        <trkpt lat="28.824963" lon="105.312887"><ele>448.00085</ele><time>2026-04-01T00:51:42.000Z</time></trkpt>
        <trkpt lat="28.824983" lon="105.312833"><ele>448.10754</ele><time>2026-04-01T00:51:45.000Z</time></trkpt>
        <trkpt lat="28.824996" lon="105.312783"><ele>448.37723</ele><time>2026-04-01T00:51:48.000Z</time></trkpt>
        <trkpt lat="28.825005" lon="105.312723"><ele>449.77594</ele><time>2026-04-01T00:51:52.000Z</time></trkpt>
        <trkpt lat="28.824996" lon="105.312665"><ele>451.02325</ele><time>2026-04-01T00:51:56.000Z</time></trkpt>
        <trkpt lat="28.824975" lon="105.312617"><ele>453.68567</ele><time>2026-04-01T00:52:01.000Z</time></trkpt>
        <trkpt lat="28.82495" lon="105.312575"><ele>455.8333</ele><time>2026-04-01T00:52:06.000Z</time></trkpt>
        <trkpt lat="28.824921" lon="105.312523"><ele>457.1022</ele><time>2026-04-01T00:52:11.000Z</time></trkpt>
        <trkpt lat="28.824885" lon="105.312485"><ele>458.24286</ele><time>2026-04-01T00:52:20.000Z</time></trkpt>
        <trkpt lat="28.824852" lon="105.312442"><ele>459.48758</ele><time>2026-04-01T00:52:24.000Z</time></trkpt>
        <trkpt lat="28.824808" lon="105.312403"><ele>460.22714</ele><time>2026-04-01T00:52:28.000Z</time></trkpt>
        <trkpt lat="28.824761" lon="105.312377"><ele>461.0302</ele><time>2026-04-01T00:52:32.000Z</time></trkpt>
        <trkpt lat="28.824717" lon="105.312353"><ele>461.04916</ele><time>2026-04-01T00:52:36.000Z</time></trkpt>
        <trkpt lat="28.824674" lon="105.312324"><ele>461.2048</ele><time>2026-04-01T00:52:40.000Z</time></trkpt>
        <trkpt lat="28.824643" lon="105.312277"><ele>461.53986</ele><time>2026-04-01T00:52:45.000Z</time></trkpt>
        <trkpt lat="28.824611" lon="105.312241"><ele>462.314</ele><time>2026-04-01T00:52:53.000Z</time></trkpt>
        <trkpt lat="28.824585" lon="105.312185"><ele>462.3182</ele><time>2026-04-01T00:52:59.000Z</time></trkpt>
        <trkpt lat="28.824551" lon="105.312136"><ele>462.30994</ele><time>2026-04-01T00:53:04.000Z</time></trkpt>
        <trkpt lat="28.824527" lon="105.312079"><ele>462.5868</ele><time>2026-04-01T00:53:09.000Z</time></trkpt>
        <trkpt lat="28.824497" lon="105.312026"><ele>462.01968</ele><time>2026-04-01T00:53:14.000Z</time></trkpt>
        <trkpt lat="28.82447" lon="105.311983"><ele>462.015</ele><time>2026-04-01T00:53:18.000Z</time></trkpt>
        <trkpt lat="28.824437" lon="105.311933"><ele>462.2739</ele><time>2026-04-01T00:53:23.000Z</time></trkpt>
        <trkpt lat="28.824404" lon="105.311892"><ele>459.60107</ele><time>2026-04-01T00:53:28.000Z</time></trkpt>
        <trkpt lat="28.82437" lon="105.311854"><ele>459.96698</ele><time>2026-04-01T00:53:33.000Z</time></trkpt>
        <trkpt lat="28.824344" lon="105.31181"><ele>460.1264</ele><time>2026-04-01T00:53:38.000Z</time></trkpt>
        <trkpt lat="28.824323" lon="105.311759"><ele>460.87262</ele><time>2026-04-01T00:53:43.000Z</time></trkpt>
        <trkpt lat="28.824305" lon="105.311702"><ele>461.31497</ele><time>2026-04-01T00:53:48.000Z</time></trkpt>
        <trkpt lat="28.82429" lon="105.311643"><ele>462.24844</ele><time>2026-04-01T00:53:53.000Z</time></trkpt>
        <trkpt lat="28.824277" lon="105.311583"><ele>463.2369</ele><time>2026-04-01T00:53:58.000Z</time></trkpt>
        <trkpt lat="28.824266" lon="105.31153"><ele>464.99744</ele><time>2026-04-01T00:54:09.000Z</time></trkpt>
        <trkpt lat="28.824268" lon="105.311478"><ele>466.08575</ele><time>2026-04-01T00:54:16.000Z</time></trkpt>
        <trkpt lat="28.824253" lon="105.311427"><ele>466.7781</ele><time>2026-04-01T00:54:21.000Z</time></trkpt>
        <trkpt lat="28.82423" lon="105.311383"><ele>469.69586</ele><time>2026-04-01T00:54:39.000Z</time></trkpt>
        <trkpt lat="28.824209" lon="105.311336"><ele>470.5404</ele><time>2026-04-01T00:54:44.000Z</time></trkpt>
        <trkpt lat="28.824185" lon="105.311285"><ele>471.0294</ele><time>2026-04-01T00:54:49.000Z</time></trkpt>
        <trkpt lat="28.824159" lon="105.311236"><ele>471.06924</ele><time>2026-04-01T00:54:54.000Z</time></trkpt>
        <trkpt lat="28.824144" lon="105.311179"><ele>471.3855</ele><time>2026-04-01T00:54:59.000Z</time></trkpt>
        <trkpt lat="28.824152" lon="105.311126"><ele>471.53403</ele><time>2026-04-01T00:55:03.000Z</time></trkpt>
        <trkpt lat="28.824181" lon="105.311075"><ele>471.73993</ele><time>2026-04-01T00:55:08.000Z</time></trkpt>
        <trkpt lat="28.824207" lon="105.311033"><ele>471.92188</ele><time>2026-04-01T00:55:13.000Z</time></trkpt>
        <trkpt lat="28.824163" lon="105.311031"><ele>472.64197</ele><time>2026-04-01T00:55:27.000Z</time></trkpt>
        <trkpt lat="28.824215" lon="105.311025"><ele>470.0392</ele><time>2026-04-01T00:56:09.000Z</time></trkpt>
        <trkpt lat="28.824243" lon="105.31106"><ele>467.23898</ele><time>2026-04-01T00:56:23.000Z</time></trkpt>
        <trkpt lat="28.824278" lon="105.311024"><ele>466.538</ele><time>2026-04-01T00:56:31.000Z</time></trkpt>
        <trkpt lat="28.824319" lon="105.310989"><ele>465.46274</ele><time>2026-04-01T00:56:36.000Z</time></trkpt>
        <trkpt lat="28.824356" lon="105.310949"><ele>464.66037</ele><time>2026-04-01T00:56:41.000Z</time></trkpt>
        <trkpt lat="28.824393" lon="105.310905"><ele>463.8688</ele><time>2026-04-01T00:56:46.000Z</time></trkpt>
        <trkpt lat="28.824418" lon="105.310861"><ele>464.1455</ele><time>2026-04-01T00:56:50.000Z</time></trkpt>
        <trkpt lat="28.824431" lon="105.310801"><ele>464.9411</ele><time>2026-04-01T00:56:55.000Z</time></trkpt>
        <trkpt lat="28.82443" lon="105.310744"><ele>466.05222</ele><time>2026-04-01T00:57:01.000Z</time></trkpt>
        <trkpt lat="28.824424" lon="105.310691"><ele>466.67105</ele><time>2026-04-01T00:57:12.000Z</time></trkpt>
        <trkpt lat="28.824438" lon="105.310641"><ele>466.70975</ele><time>2026-04-01T00:57:20.000Z</time></trkpt>
        <trkpt lat="28.824469" lon="105.310604"><ele>466.0685</ele><time>2026-04-01T00:57:27.000Z</time></trkpt>
        <trkpt lat="28.824518" lon="105.310583"><ele>465.32385</ele><time>2026-04-01T00:57:33.000Z</time></trkpt>
        <trkpt lat="28.824559" lon="105.310584"><ele>463.4438</ele><time>2026-04-01T00:57:38.000Z</time></trkpt>
        <trkpt lat="28.8246" lon="105.310555"><ele>461.8929</ele><time>2026-04-01T00:57:45.000Z</time></trkpt>
        <trkpt lat="28.824625" lon="105.310508"><ele>463.30646</ele><time>2026-04-01T00:57:50.000Z</time></trkpt>
        <trkpt lat="28.824635" lon="105.310447"><ele>464.54437</ele><time>2026-04-01T00:57:55.000Z</time></trkpt>
        <trkpt lat="28.824631" lon="105.310394"><ele>465.31308</ele><time>2026-04-01T00:57:59.000Z</time></trkpt>
        <trkpt lat="28.824631" lon="105.310341"><ele>466.16827</ele><time>2026-04-01T00:58:04.000Z</time></trkpt>
        <trkpt lat="28.824635" lon="105.310288"><ele>467.58932</ele><time>2026-04-01T00:58:09.000Z</time></trkpt>
        <trkpt lat="28.824651" lon="105.310238"><ele>467.57346</ele><time>2026-04-01T00:58:14.000Z</time></trkpt>
        <trkpt lat="28.824669" lon="105.31018"><ele>467.3922</ele><time>2026-04-01T00:58:19.000Z</time></trkpt>
        <trkpt lat="28.824679" lon="105.310122"><ele>467.41907</ele><time>2026-04-01T00:58:24.000Z</time></trkpt>
        <trkpt lat="28.824674" lon="105.310063"><ele>467.9813</ele><time>2026-04-01T00:58:30.000Z</time></trkpt>
        <trkpt lat="28.824669" lon="105.310005"><ele>467.6014</ele><time>2026-04-01T00:58:35.000Z</time></trkpt>
        <trkpt lat="28.824658" lon="105.309947"><ele>468.01062</ele><time>2026-04-01T00:58:40.000Z</time></trkpt>
        <trkpt lat="28.824632" lon="105.309893"><ele>468.3232</ele><time>2026-04-01T00:58:45.000Z</time></trkpt>
        <trkpt lat="28.824604" lon="105.309838"><ele>468.56714</ele><time>2026-04-01T00:58:50.000Z</time></trkpt>
        <trkpt lat="28.824587" lon="105.309785"><ele>468.9516</ele><time>2026-04-01T00:58:55.000Z</time></trkpt>
        <trkpt lat="28.824567" lon="105.309729"><ele>468.97043</ele><time>2026-04-01T00:59:00.000Z</time></trkpt>
        <trkpt lat="28.824539" lon="105.309684"><ele>469.19943</ele><time>2026-04-01T00:59:04.000Z</time></trkpt>
        <trkpt lat="28.824515" lon="105.30964"><ele>469.21875</ele><time>2026-04-01T00:59:08.000Z</time></trkpt>
        <trkpt lat="28.824489" lon="105.30959"><ele>469.3873</ele><time>2026-04-01T00:59:13.000Z</time></trkpt>
        <trkpt lat="28.824473" lon="105.309538"><ele>469.05933</ele><time>2026-04-01T00:59:17.000Z</time></trkpt>
        <trkpt lat="28.824458" lon="105.309481"><ele>469.23877</ele><time>2026-04-01T00:59:21.000Z</time></trkpt>
        <trkpt lat="28.824433" lon="105.309432"><ele>469.22415</ele><time>2026-04-01T00:59:25.000Z</time></trkpt>
        <trkpt lat="28.824389" lon="105.309419"><ele>468.37936</ele><time>2026-04-01T00:59:40.000Z</time></trkpt>
        <trkpt lat="28.824342" lon="105.309406"><ele>467.27603</ele><time>2026-04-01T00:59:48.000Z</time></trkpt>
        <trkpt lat="28.824297" lon="105.309405"><ele>467.01218</ele><time>2026-04-01T00:59:57.000Z</time></trkpt>
        <trkpt lat="28.824252" lon="105.309412"><ele>466.61777</ele><time>2026-04-01T01:00:04.000Z</time></trkpt>
        <trkpt lat="28.824198" lon="105.309422"><ele>467.12326</ele><time>2026-04-01T01:00:10.000Z</time></trkpt>
        <trkpt lat="28.82415" lon="105.309429"><ele>466.63153</ele><time>2026-04-01T01:00:16.000Z</time></trkpt>
        <trkpt lat="28.824105" lon="105.309419"><ele>467.15353</ele><time>2026-04-01T01:00:27.000Z</time></trkpt>
        <trkpt lat="28.824059" lon="105.309433"><ele>467.51715</ele><time>2026-04-01T01:00:34.000Z</time></trkpt>
        <trkpt lat="28.824011" lon="105.309437"><ele>467.54382</ele><time>2026-04-01T01:00:44.000Z</time></trkpt>
        <trkpt lat="28.82396" lon="105.309444"><ele>467.55618</ele><time>2026-04-01T01:00:49.000Z</time></trkpt>
        <trkpt lat="28.823905" lon="105.309455"><ele>467.68646</ele><time>2026-04-01T01:00:54.000Z</time></trkpt>
        <trkpt lat="28.823858" lon="105.30946"><ele>467.97018</ele><time>2026-04-01T01:00:59.000Z</time></trkpt>
        <trkpt lat="28.823808" lon="105.30947"><ele>467.56137</ele><time>2026-04-01T01:01:04.000Z</time></trkpt>
        <trkpt lat="28.823756" lon="105.309483"><ele>467.96158</ele><time>2026-04-01T01:01:09.000Z</time></trkpt>
        <trkpt lat="28.823704" lon="105.30949"><ele>468.49667</ele><time>2026-04-01T01:01:14.000Z</time></trkpt>
        <trkpt lat="28.823655" lon="105.309502"><ele>468.2525</ele><time>2026-04-01T01:01:19.000Z</time></trkpt>
        <trkpt lat="28.823609" lon="105.3095"><ele>467.52032</ele><time>2026-04-01T01:01:24.000Z</time></trkpt>
        <trkpt lat="28.823562" lon="105.309479"><ele>466.36877</ele><time>2026-04-01T01:01:29.000Z</time></trkpt>
        <trkpt lat="28.82352" lon="105.309449"><ele>465.51932</ele><time>2026-04-01T01:01:34.000Z</time></trkpt>
        <trkpt lat="28.823495" lon="105.309404"><ele>465.88416</ele><time>2026-04-01T01:01:38.000Z</time></trkpt>
        <trkpt lat="28.823476" lon="105.309347"><ele>466.05792</ele><time>2026-04-01T01:01:42.000Z</time></trkpt>
        <trkpt lat="28.823461" lon="105.30929"><ele>466.042</ele><time>2026-04-01T01:01:46.000Z</time></trkpt>
        <trkpt lat="28.823452" lon="105.309234"><ele>466.34607</ele><time>2026-04-01T01:01:50.000Z</time></trkpt>
        <trkpt lat="28.823443" lon="105.30918"><ele>466.2678</ele><time>2026-04-01T01:01:56.000Z</time></trkpt>
        <trkpt lat="28.823427" lon="105.309124"><ele>466.04712</ele><time>2026-04-01T01:02:00.000Z</time></trkpt>
        <trkpt lat="28.823416" lon="105.309071"><ele>465.69287</ele><time>2026-04-01T01:02:03.000Z</time></trkpt>
        <trkpt lat="28.8234" lon="105.309005"><ele>465.87405</ele><time>2026-04-01T01:02:07.000Z</time></trkpt>
        <trkpt lat="28.823385" lon="105.308948"><ele>465.6159</ele><time>2026-04-01T01:02:11.000Z</time></trkpt>
        <trkpt lat="28.823363" lon="105.308884"><ele>465.63452</ele><time>2026-04-01T01:02:15.000Z</time></trkpt>
        <trkpt lat="28.823344" lon="105.308836"><ele>465.60577</ele><time>2026-04-01T01:02:17.000Z</time></trkpt>
        <trkpt lat="28.823322" lon="105.308778"><ele>465.45157</ele><time>2026-04-01T01:02:20.000Z</time></trkpt>
        <trkpt lat="28.823307" lon="105.308724"><ele>465.24246</ele><time>2026-04-01T01:02:23.000Z</time></trkpt>
        <trkpt lat="28.823283" lon="105.308666"><ele>465.07095</ele><time>2026-04-01T01:02:27.000Z</time></trkpt>
        <trkpt lat="28.823251" lon="105.308613"><ele>465.2951</ele><time>2026-04-01T01:02:31.000Z</time></trkpt>
        <trkpt lat="28.823208" lon="105.30857"><ele>464.68155</ele><time>2026-04-01T01:02:35.000Z</time></trkpt>
        <trkpt lat="28.823156" lon="105.308543"><ele>463.92548</ele><time>2026-04-01T01:02:39.000Z</time></trkpt>
        <trkpt lat="28.823103" lon="105.308533"><ele>463.55548</ele><time>2026-04-01T01:02:43.000Z</time></trkpt>
        <trkpt lat="28.823052" lon="105.308541"><ele>463.56946</ele><time>2026-04-01T01:02:47.000Z</time></trkpt>
        <trkpt lat="28.823008" lon="105.308572"><ele>463.6319</ele><time>2026-04-01T01:02:51.000Z</time></trkpt>
        <trkpt lat="28.822973" lon="105.308614"><ele>462.96774</ele><time>2026-04-01T01:02:55.000Z</time></trkpt>
        <trkpt lat="28.822944" lon="105.308654"><ele>462.69974</ele><time>2026-04-01T01:02:59.000Z</time></trkpt>
        <trkpt lat="28.822917" lon="105.308697"><ele>462.58026</ele><time>2026-04-01T01:03:03.000Z</time></trkpt>
        <trkpt lat="28.822891" lon="105.30875"><ele>461.86438</ele><time>2026-04-01T01:03:07.000Z</time></trkpt>
        <trkpt lat="28.82286" lon="105.308796"><ele>461.07205</ele><time>2026-04-01T01:03:11.000Z</time></trkpt>
        <trkpt lat="28.822832" lon="105.308838"><ele>460.61017</ele><time>2026-04-01T01:03:15.000Z</time></trkpt>
        <trkpt lat="28.822802" lon="105.308888"><ele>460.25824</ele><time>2026-04-01T01:03:19.000Z</time></trkpt>
        <trkpt lat="28.822777" lon="105.308941"><ele>459.96768</ele><time>2026-04-01T01:03:23.000Z</time></trkpt>
        <trkpt lat="28.822761" lon="105.308994"><ele>460.40097</ele><time>2026-04-01T01:03:27.000Z</time></trkpt>
        <trkpt lat="28.822746" lon="105.309032"><ele>457.10977</ele><time>2026-04-01T01:03:30.000Z</time></trkpt>
        <trkpt lat="28.822725" lon="105.309082"><ele>456.85086</ele><time>2026-04-01T01:03:34.000Z</time></trkpt>
        <trkpt lat="28.822703" lon="105.309135"><ele>456.17575</ele><time>2026-04-01T01:03:38.000Z</time></trkpt>
        <trkpt lat="28.822683" lon="105.309192"><ele>455.62378</ele><time>2026-04-01T01:03:43.000Z</time></trkpt>
        <trkpt lat="28.82266" lon="105.309251"><ele>455.0096</ele><time>2026-04-01T01:03:48.000Z</time></trkpt>
        <trkpt lat="28.82264" lon="105.309302"><ele>454.6152</ele><time>2026-04-01T01:03:52.000Z</time></trkpt>
        <trkpt lat="28.822628" lon="105.309359"><ele>454.4158</ele><time>2026-04-01T01:03:56.000Z</time></trkpt>
        <trkpt lat="28.822614" lon="105.309412"><ele>454.53842</ele><time>2026-04-01T01:04:00.000Z</time></trkpt>
        <trkpt lat="28.822597" lon="105.309466"><ele>454.83197</ele><time>2026-04-01T01:04:04.000Z</time></trkpt>
        <trkpt lat="28.822578" lon="105.309518"><ele>456.41464</ele><time>2026-04-01T01:04:08.000Z</time></trkpt>
        <trkpt lat="28.822541" lon="105.309557"><ele>458.0316</ele><time>2026-04-01T01:04:13.000Z</time></trkpt>
        <trkpt lat="28.822494" lon="105.309568"><ele>458.5555</ele><time>2026-04-01T01:04:17.000Z</time></trkpt>
        <trkpt lat="28.822441" lon="105.309563"><ele>459.7283</ele><time>2026-04-01T01:04:21.000Z</time></trkpt>
        <trkpt lat="28.822389" lon="105.309554"><ele>460.6067</ele><time>2026-04-01T01:04:25.000Z</time></trkpt>
        <trkpt lat="28.822339" lon="105.309548"><ele>460.7963</ele><time>2026-04-01T01:04:29.000Z</time></trkpt>
        <trkpt lat="28.822287" lon="105.30955"><ele>460.63373</ele><time>2026-04-01T01:04:33.000Z</time></trkpt>
        <trkpt lat="28.822244" lon="105.309564"><ele>460.3428</ele><time>2026-04-01T01:04:37.000Z</time></trkpt>
        <trkpt lat="28.822207" lon="105.309595"><ele>460.20935</ele><time>2026-04-01T01:04:41.000Z</time></trkpt>
        <trkpt lat="28.822181" lon="105.309642"><ele>460.0338</ele><time>2026-04-01T01:04:45.000Z</time></trkpt>
        <trkpt lat="28.82216" lon="105.309692"><ele>460.25626</ele><time>2026-04-01T01:04:49.000Z</time></trkpt>
        <trkpt lat="28.822131" lon="105.309744"><ele>459.70004</ele><time>2026-04-01T01:04:55.000Z</time></trkpt>
        <trkpt lat="28.822117" lon="105.309795"><ele>459.736</ele><time>2026-04-01T01:04:59.000Z</time></trkpt>
        <trkpt lat="28.822097" lon="105.309851"><ele>459.7959</ele><time>2026-04-01T01:05:03.000Z</time></trkpt>
        <trkpt lat="28.822083" lon="105.309903"><ele>460.24463</ele><time>2026-04-01T01:05:07.000Z</time></trkpt>
        <trkpt lat="28.822072" lon="105.309962"><ele>460.69772</ele><time>2026-04-01T01:05:11.000Z</time></trkpt>
        <trkpt lat="28.822063" lon="105.31002"><ele>460.58423</ele><time>2026-04-01T01:05:15.000Z</time></trkpt>
        <trkpt lat="28.82206" lon="105.310082"><ele>460.12616</ele><time>2026-04-01T01:05:20.000Z</time></trkpt>
        <trkpt lat="28.822071" lon="105.310149"><ele>460.3317</ele><time>2026-04-01T01:05:24.000Z</time></trkpt>
        <trkpt lat="28.822079" lon="105.310206"><ele>460.5159</ele><time>2026-04-01T01:05:27.000Z</time></trkpt>
        <trkpt lat="28.822078" lon="105.310261"><ele>460.5818</ele><time>2026-04-01T01:05:30.000Z</time></trkpt>
        <trkpt lat="28.822038" lon="105.310234"><ele>460.43277</ele><time>2026-04-01T01:05:35.000Z</time></trkpt>
        <trkpt lat="28.822014" lon="105.31019"><ele>460.34503</ele><time>2026-04-01T01:05:38.000Z</time></trkpt>
        <trkpt lat="28.821995" lon="105.31014"><ele>460.59946</ele><time>2026-04-01T01:05:41.000Z</time></trkpt>
        <trkpt lat="28.821976" lon="105.310087"><ele>461.2028</ele><time>2026-04-01T01:05:45.000Z</time></trkpt>
        <trkpt lat="28.821961" lon="105.310031"><ele>461.4229</ele><time>2026-04-01T01:05:50.000Z</time></trkpt>
        <trkpt lat="28.821937" lon="105.309978"><ele>461.71768</ele><time>2026-04-01T01:05:55.000Z</time></trkpt>
        <trkpt lat="28.821912" lon="105.309932"><ele>461.79276</ele><time>2026-04-01T01:05:59.000Z</time></trkpt>
        <trkpt lat="28.821892" lon="105.309875"><ele>462.3478</ele><time>2026-04-01T01:06:04.000Z</time></trkpt>
        <trkpt lat="28.821873" lon="105.309816"><ele>462.92328</ele><time>2026-04-01T01:06:09.000Z</time></trkpt>
        <trkpt lat="28.82185" lon="105.309764"><ele>463.602</ele><time>2026-04-01T01:06:14.000Z</time></trkpt>
        <trkpt lat="28.821828" lon="105.309713"><ele>463.78235</ele><time>2026-04-01T01:06:19.000Z</time></trkpt>
        <trkpt lat="28.821818" lon="105.309662"><ele>463.48453</ele><time>2026-04-01T01:06:24.000Z</time></trkpt>
        <trkpt lat="28.821802" lon="105.309608"><ele>462.8188</ele><time>2026-04-01T01:06:29.000Z</time></trkpt>
        <trkpt lat="28.821781" lon="105.309563"><ele>462.9204</ele><time>2026-04-01T01:06:33.000Z</time></trkpt>
        <trkpt lat="28.821748" lon="105.309512"><ele>463.07086</ele><time>2026-04-01T01:06:38.000Z</time></trkpt>
        <trkpt lat="28.821718" lon="105.309465"><ele>462.97833</ele><time>2026-04-01T01:06:43.000Z</time></trkpt>
        <trkpt lat="28.821686" lon="105.309423"><ele>463.51498</ele><time>2026-04-01T01:06:48.000Z</time></trkpt>
        <trkpt lat="28.821648" lon="105.309384"><ele>464.42352</ele><time>2026-04-01T01:06:55.000Z</time></trkpt>
        <trkpt lat="28.821609" lon="105.309342"><ele>466.58795</ele><time>2026-04-01T01:07:00.000Z</time></trkpt>
        <trkpt lat="28.821573" lon="105.309309"><ele>467.86725</ele><time>2026-04-01T01:07:04.000Z</time></trkpt>
        <trkpt lat="28.821531" lon="105.309285"><ele>468.4206</ele><time>2026-04-01T01:07:08.000Z</time></trkpt>
        <trkpt lat="28.821487" lon="105.309256"><ele>469.89218</ele><time>2026-04-01T01:07:13.000Z</time></trkpt>
        <trkpt lat="28.821456" lon="105.309222"><ele>472.8619</ele><time>2026-04-01T01:07:18.000Z</time></trkpt>
        <trkpt lat="28.821438" lon="105.309185"><ele>475.94077</ele><time>2026-04-01T01:07:24.000Z</time></trkpt>
        <trkpt lat="28.82141" lon="105.30914"><ele>478.26633</ele><time>2026-04-01T01:07:29.000Z</time></trkpt>
        <trkpt lat="28.821382" lon="105.309094"><ele>481.07083</ele><time>2026-04-01T01:07:34.000Z</time></trkpt>
        <trkpt lat="28.821358" lon="105.309055"><ele>483.10416</ele><time>2026-04-01T01:07:42.000Z</time></trkpt>
        <trkpt lat="28.821342" lon="105.309008"><ele>484.23297</ele><time>2026-04-01T01:07:50.000Z</time></trkpt>
        <trkpt lat="28.821336" lon="105.308954"><ele>483.36078</ele><time>2026-04-01T01:11:39.000Z</time></trkpt>
        <trkpt lat="28.821327" lon="105.308904"><ele>484.24716</ele><time>2026-04-01T01:11:43.000Z</time></trkpt>
        <trkpt lat="28.821324" lon="105.308849"><ele>483.86862</ele><time>2026-04-01T01:11:48.000Z</time></trkpt>
        <trkpt lat="28.821319" lon="105.308795"><ele>483.19272</ele><time>2026-04-01T01:11:54.000Z</time></trkpt>
        <trkpt lat="28.821338" lon="105.308741"><ele>482.8483</ele><time>2026-04-01T01:12:00.000Z</time></trkpt>
        <trkpt lat="28.82135" lon="105.308685"><ele>483.47537</ele><time>2026-04-01T01:12:06.000Z</time></trkpt>
        <trkpt lat="28.821378" lon="105.308639"><ele>484.08844</ele><time>2026-04-01T01:12:12.000Z</time></trkpt>
        <trkpt lat="28.821413" lon="105.308603"><ele>484.05875</ele><time>2026-04-01T01:12:19.000Z</time></trkpt>
        <trkpt lat="28.821456" lon="105.308575"><ele>483.8202</ele><time>2026-04-01T01:12:27.000Z</time></trkpt>
        <trkpt lat="28.821506" lon="105.308568"><ele>483.47546</ele><time>2026-04-01T01:12:34.000Z</time></trkpt>
        <trkpt lat="28.821556" lon="105.308572"><ele>482.7505</ele><time>2026-04-01T01:12:41.000Z</time></trkpt>
        <trkpt lat="28.821605" lon="105.308574"><ele>482.62268</ele><time>2026-04-01T01:12:48.000Z</time></trkpt>
        <trkpt lat="28.82165" lon="105.308568"><ele>482.55136</ele><time>2026-04-01T01:12:55.000Z</time></trkpt>
        <trkpt lat="28.821697" lon="105.308556"><ele>482.33304</ele><time>2026-04-01T01:13:01.000Z</time></trkpt>
        <trkpt lat="28.821739" lon="105.308534"><ele>483.13486</ele><time>2026-04-01T01:13:06.000Z</time></trkpt>
        <trkpt lat="28.82178" lon="105.308499"><ele>484.33926</ele><time>2026-04-01T01:13:11.000Z</time></trkpt>
        <trkpt lat="28.821816" lon="105.308461"><ele>487.18756</ele><time>2026-04-01T01:13:16.000Z</time></trkpt>
        <trkpt lat="28.821843" lon="105.308418"><ele>487.49475</ele><time>2026-04-01T01:13:17.000Z</time></trkpt>
        <trkpt lat="28.821856" lon="105.308382"><ele>491.42154</ele><time>2026-04-01T01:13:25.000Z</time></trkpt>
        <trkpt lat="28.821883" lon="105.308341"><ele>492.4316</ele><time>2026-04-01T01:13:31.000Z</time></trkpt>
        <trkpt lat="28.821887" lon="105.30829"><ele>493.02032</ele><time>2026-04-01T01:13:44.000Z</time></trkpt>
        <trkpt lat="28.821869" lon="105.308238"><ele>493.7644</ele><time>2026-04-01T01:13:50.000Z</time></trkpt>
        <trkpt lat="28.821855" lon="105.308184"><ele>494.3072</ele><time>2026-04-01T01:13:56.000Z</time></trkpt>
        <trkpt lat="28.821844" lon="105.308127"><ele>495.42868</ele><time>2026-04-01T01:14:02.000Z</time></trkpt>
        <trkpt lat="28.821823" lon="105.308078"><ele>495.6691</ele><time>2026-04-01T01:14:08.000Z</time></trkpt>
        <trkpt lat="28.821794" lon="105.308028"><ele>496.08804</ele><time>2026-04-01T01:14:13.000Z</time></trkpt>
        <trkpt lat="28.821785" lon="105.307978"><ele>496.48642</ele><time>2026-04-01T01:14:17.000Z</time></trkpt>
        <trkpt lat="28.821765" lon="105.307926"><ele>498.65118</ele><time>2026-04-01T01:14:23.000Z</time></trkpt>
        <trkpt lat="28.821738" lon="105.307886"><ele>500.26782</ele><time>2026-04-01T01:14:27.000Z</time></trkpt>
        <trkpt lat="28.821714" lon="105.307845"><ele>502.1055</ele><time>2026-04-01T01:14:31.000Z</time></trkpt>
        <trkpt lat="28.821691" lon="105.307793"><ele>503.45673</ele><time>2026-04-01T01:14:36.000Z</time></trkpt>
        <trkpt lat="28.821668" lon="105.307737"><ele>504.2308</ele><time>2026-04-01T01:14:41.000Z</time></trkpt>
        <trkpt lat="28.821648" lon="105.307677"><ele>504.73215</ele><time>2026-04-01T01:14:46.000Z</time></trkpt>
        <trkpt lat="28.821643" lon="105.307618"><ele>505.1586</ele><time>2026-04-01T01:14:51.000Z</time></trkpt>
        <trkpt lat="28.821641" lon="105.307565"><ele>505.14423</ele><time>2026-04-01T01:14:56.000Z</time></trkpt>
        <trkpt lat="28.821651" lon="105.307505"><ele>504.8551</ele><time>2026-04-01T01:15:02.000Z</time></trkpt>
        <trkpt lat="28.821668" lon="105.307464"><ele>508.6591</ele><time>2026-04-01T01:15:06.000Z</time></trkpt>
        <trkpt lat="28.821687" lon="105.307414"><ele>510.20468</ele><time>2026-04-01T01:15:11.000Z</time></trkpt>
        <trkpt lat="28.821701" lon="105.307356"><ele>512.03735</ele><time>2026-04-01T01:15:16.000Z</time></trkpt>
        <trkpt lat="28.821706" lon="105.307306"><ele>513.63434</ele><time>2026-04-01T01:15:20.000Z</time></trkpt>
        <trkpt lat="28.821707" lon="105.307256"><ele>515.2113</ele><time>2026-04-01T01:15:24.000Z</time></trkpt>
        <trkpt lat="28.821711" lon="105.307199"><ele>516.60504</ele><time>2026-04-01T01:15:29.000Z</time></trkpt>
        <trkpt lat="28.821714" lon="105.30714"><ele>518.3401</ele><time>2026-04-01T01:15:34.000Z</time></trkpt>
        <trkpt lat="28.821708" lon="105.307081"><ele>519.48737</ele><time>2026-04-01T01:15:39.000Z</time></trkpt>
        <trkpt lat="28.821697" lon="105.307033"><ele>521.2664</ele><time>2026-04-01T01:15:43.000Z</time></trkpt>
        <trkpt lat="28.821675" lon="105.306979"><ele>522.16943</ele><time>2026-04-01T01:15:48.000Z</time></trkpt>
        <trkpt lat="28.821654" lon="105.306921"><ele>522.66394</ele><time>2026-04-01T01:15:53.000Z</time></trkpt>
        <trkpt lat="28.82165" lon="105.306859"><ele>523.5007</ele><time>2026-04-01T01:15:58.000Z</time></trkpt>
        <trkpt lat="28.82166" lon="105.306808"><ele>523.1877</ele><time>2026-04-01T01:16:02.000Z</time></trkpt>
        <trkpt lat="28.821671" lon="105.306757"><ele>523.20233</ele><time>2026-04-01T01:16:06.000Z</time></trkpt>
        <trkpt lat="28.82168" lon="105.306696"><ele>523.52246</ele><time>2026-04-01T01:16:11.000Z</time></trkpt>
        <trkpt lat="28.821686" lon="105.306642"><ele>522.9177</ele><time>2026-04-01T01:16:16.000Z</time></trkpt>
        <trkpt lat="28.821688" lon="105.30659"><ele>522.68805</ele><time>2026-04-01T01:16:21.000Z</time></trkpt>
        <trkpt lat="28.82169" lon="105.306534"><ele>522.72156</ele><time>2026-04-01T01:16:26.000Z</time></trkpt>
        <trkpt lat="28.821684" lon="105.306475"><ele>523.05664</ele><time>2026-04-01T01:16:31.000Z</time></trkpt>
        <trkpt lat="28.821678" lon="105.306413"><ele>522.5336</ele><time>2026-04-01T01:16:36.000Z</time></trkpt>
        <trkpt lat="28.821675" lon="105.306351"><ele>522.8101</ele><time>2026-04-01T01:16:41.000Z</time></trkpt>
        <trkpt lat="28.821669" lon="105.306289"><ele>523.0711</ele><time>2026-04-01T01:16:46.000Z</time></trkpt>
        <trkpt lat="28.821654" lon="105.306237"><ele>522.9748</ele><time>2026-04-01T01:16:51.000Z</time></trkpt>
        <trkpt lat="28.821644" lon="105.306176"><ele>523.1685</ele><time>2026-04-01T01:16:57.000Z</time></trkpt>
        <trkpt lat="28.821639" lon="105.306123"><ele>523.6762</ele><time>2026-04-01T01:17:02.000Z</time></trkpt>
        <trkpt lat="28.82163" lon="105.306071"><ele>524.80817</ele><time>2026-04-01T01:17:08.000Z</time></trkpt>
        <trkpt lat="28.821619" lon="105.306013"><ele>526.31793</ele><time>2026-04-01T01:17:16.000Z</time></trkpt>
        <trkpt lat="28.821608" lon="105.305957"><ele>527.8228</ele><time>2026-04-01T01:17:21.000Z</time></trkpt>
        <trkpt lat="28.821599" lon="105.305907"><ele>528.12964</ele><time>2026-04-01T01:17:29.000Z</time></trkpt>
        <trkpt lat="28.821605" lon="105.305848"><ele>527.71124</ele><time>2026-04-01T01:17:35.000Z</time></trkpt>
        <trkpt lat="28.8216" lon="105.305787"><ele>528.03564</ele><time>2026-04-01T01:17:40.000Z</time></trkpt>
        <trkpt lat="28.821596" lon="105.305735"><ele>528.4712</ele><time>2026-04-01T01:17:44.000Z</time></trkpt>
        <trkpt lat="28.82159" lon="105.305673"><ele>528.95764</ele><time>2026-04-01T01:17:49.000Z</time></trkpt>
        <trkpt lat="28.821582" lon="105.305622"><ele>530.2506</ele><time>2026-04-01T01:17:54.000Z</time></trkpt>
        <trkpt lat="28.821574" lon="105.305567"><ele>531.3981</ele><time>2026-04-01T01:17:59.000Z</time></trkpt>
        <trkpt lat="28.82156" lon="105.305517"><ele>533.73804</ele><time>2026-04-01T01:18:03.000Z</time></trkpt>
        <trkpt lat="28.821539" lon="105.305473"><ele>535.23956</ele><time>2026-04-01T01:18:07.000Z</time></trkpt>
        <trkpt lat="28.821503" lon="105.305441"><ele>536.4789</ele><time>2026-04-01T01:18:11.000Z</time></trkpt>
        <trkpt lat="28.821455" lon="105.305424"><ele>537.5512</ele><time>2026-04-01T01:18:16.000Z</time></trkpt>
        <trkpt lat="28.821412" lon="105.305418"><ele>539.4605</ele><time>2026-04-01T01:18:21.000Z</time></trkpt>
        <trkpt lat="28.821366" lon="105.305399"><ele>540.8285</ele><time>2026-04-01T01:18:26.000Z</time></trkpt>
        <trkpt lat="28.821324" lon="105.305376"><ele>540.5094</ele><time>2026-04-01T01:18:31.000Z</time></trkpt>
        <trkpt lat="28.821293" lon="105.305332"><ele>540.3575</ele><time>2026-04-01T01:18:36.000Z</time></trkpt>
        <trkpt lat="28.821263" lon="105.305279"><ele>540.3678</ele><time>2026-04-01T01:18:41.000Z</time></trkpt>
        <trkpt lat="28.821238" lon="105.305231"><ele>539.9931</ele><time>2026-04-01T01:18:46.000Z</time></trkpt>
        <trkpt lat="28.821223" lon="105.305176"><ele>540.0778</ele><time>2026-04-01T01:18:52.000Z</time></trkpt>
        <trkpt lat="28.821209" lon="105.305122"><ele>540.4187</ele><time>2026-04-01T01:18:57.000Z</time></trkpt>
        <trkpt lat="28.821198" lon="105.305067"><ele>540.89484</ele><time>2026-04-01T01:19:02.000Z</time></trkpt>
        <trkpt lat="28.821188" lon="105.305016"><ele>541.1377</ele><time>2026-04-01T01:19:06.000Z</time></trkpt>
        <trkpt lat="28.821185" lon="105.304955"><ele>541.4077</ele><time>2026-04-01T01:19:11.000Z</time></trkpt>
        <trkpt lat="28.821186" lon="105.3049"><ele>542.6516</ele><time>2026-04-01T01:19:17.000Z</time></trkpt>
        <trkpt lat="28.821183" lon="105.304842"><ele>543.7122</ele><time>2026-04-01T01:19:24.000Z</time></trkpt>
        <trkpt lat="28.821167" lon="105.304794"><ele>544.9239</ele><time>2026-04-01T01:19:31.000Z</time></trkpt>
        <trkpt lat="28.821161" lon="105.304742"><ele>544.3248</ele><time>2026-04-01T01:19:40.000Z</time></trkpt>
        <trkpt lat="28.82116" lon="105.30469"><ele>545.87354</ele><time>2026-04-01T01:19:47.000Z</time></trkpt>
        <trkpt lat="28.821155" lon="105.304637"><ele>546.3501</ele><time>2026-04-01T01:19:53.000Z</time></trkpt>
        <trkpt lat="28.82114" lon="105.304578"><ele>548.0014</ele><time>2026-04-01T01:19:58.000Z</time></trkpt>
        <trkpt lat="28.821121" lon="105.304531"><ele>549.2625</ele><time>2026-04-01T01:20:02.000Z</time></trkpt>
        <trkpt lat="28.8211" lon="105.304487"><ele>550.15295</ele><time>2026-04-01T01:20:07.000Z</time></trkpt>
        <trkpt lat="28.821072" lon="105.304447"><ele>551.30414</ele><time>2026-04-01T01:20:12.000Z</time></trkpt>
        <trkpt lat="28.821047" lon="105.304396"><ele>551.0022</ele><time>2026-04-01T01:20:17.000Z</time></trkpt>
        <trkpt lat="28.821028" lon="105.304338"><ele>550.8029</ele><time>2026-04-01T01:20:22.000Z</time></trkpt>
        <trkpt lat="28.821015" lon="105.304282"><ele>550.7205</ele><time>2026-04-01T01:20:26.000Z</time></trkpt>
        <trkpt lat="28.821004" lon="105.304229"><ele>550.6141</ele><time>2026-04-01T01:20:30.000Z</time></trkpt>
        <trkpt lat="28.820989" lon="105.304168"><ele>550.2786</ele><time>2026-04-01T01:20:35.000Z</time></trkpt>
        <trkpt lat="28.820964" lon="105.304114"><ele>550.40546</ele><time>2026-04-01T01:20:40.000Z</time></trkpt>
        <trkpt lat="28.820935" lon="105.304066"><ele>551.12756</ele><time>2026-04-01T01:20:45.000Z</time></trkpt>
        <trkpt lat="28.820911" lon="105.304016"><ele>551.44415</ele><time>2026-04-01T01:20:50.000Z</time></trkpt>
        <trkpt lat="28.820889" lon="105.303964"><ele>551.8985</ele><time>2026-04-01T01:20:55.000Z</time></trkpt>
        <trkpt lat="28.820871" lon="105.303911"><ele>551.88544</ele><time>2026-04-01T01:21:00.000Z</time></trkpt>
        <trkpt lat="28.820858" lon="105.30386"><ele>552.55145</ele><time>2026-04-01T01:21:04.000Z</time></trkpt>
        <trkpt lat="28.82086" lon="105.303801"><ele>553.1042</ele><time>2026-04-01T01:21:08.000Z</time></trkpt>
        <trkpt lat="28.820873" lon="105.303743"><ele>552.9869</ele><time>2026-04-01T01:21:12.000Z</time></trkpt>
        <trkpt lat="28.820887" lon="105.303687"><ele>552.43195</ele><time>2026-04-01T01:21:16.000Z</time></trkpt>
        <trkpt lat="28.820908" lon="105.303639"><ele>552.25916</ele><time>2026-04-01T01:21:20.000Z</time></trkpt>
        <trkpt lat="28.82094" lon="105.303588"><ele>551.54767</ele><time>2026-04-01T01:21:25.000Z</time></trkpt>
        <trkpt lat="28.82097" lon="105.303537"><ele>551.2136</ele><time>2026-04-01T01:21:30.000Z</time></trkpt>
        <trkpt lat="28.821" lon="105.30349"><ele>549.75574</ele><time>2026-04-01T01:21:35.000Z</time></trkpt>
        <trkpt lat="28.821032" lon="105.303452"><ele>547.55725</ele><time>2026-04-01T01:21:39.000Z</time></trkpt>
        <trkpt lat="28.821071" lon="105.303406"><ele>545.6333</ele><time>2026-04-01T01:21:43.000Z</time></trkpt>
        <trkpt lat="28.821107" lon="105.303361"><ele>543.5158</ele><time>2026-04-01T01:21:47.000Z</time></trkpt>
        <trkpt lat="28.821137" lon="105.303311"><ele>541.8938</ele><time>2026-04-01T01:21:51.000Z</time></trkpt>
        <trkpt lat="28.821158" lon="105.30326"><ele>540.0464</ele><time>2026-04-01T01:21:55.000Z</time></trkpt>
        <trkpt lat="28.821171" lon="105.303202"><ele>538.2861</ele><time>2026-04-01T01:21:59.000Z</time></trkpt>
        <trkpt lat="28.821188" lon="105.30315"><ele>536.8876</ele><time>2026-04-01T01:22:03.000Z</time></trkpt>
        <trkpt lat="28.821211" lon="105.303098"><ele>535.9339</ele><time>2026-04-01T01:22:07.000Z</time></trkpt>
        <trkpt lat="28.821239" lon="105.303045"><ele>534.83685</ele><time>2026-04-01T01:22:11.000Z</time></trkpt>
        <trkpt lat="28.821269" lon="105.303"><ele>533.1018</ele><time>2026-04-01T01:22:15.000Z</time></trkpt>
        <trkpt lat="28.821311" lon="105.302981"><ele>531.4958</ele><time>2026-04-01T01:22:19.000Z</time></trkpt>
        <trkpt lat="28.821356" lon="105.30298"><ele>530.7084</ele><time>2026-04-01T01:22:22.000Z</time></trkpt>
        <trkpt lat="28.8214" lon="105.302986"><ele>529.7284</ele><time>2026-04-01T01:22:25.000Z</time></trkpt>
        <trkpt lat="28.821456" lon="105.302995"><ele>528.1545</ele><time>2026-04-01T01:22:29.000Z</time></trkpt>
        <trkpt lat="28.821511" lon="105.303004"><ele>527.2478</ele><time>2026-04-01T01:22:33.000Z</time></trkpt>
        <trkpt lat="28.821556" lon="105.302992"><ele>525.80133</ele><time>2026-04-01T01:22:37.000Z</time></trkpt>
        <trkpt lat="28.821608" lon="105.302969"><ele>524.87897</ele><time>2026-04-01T01:22:41.000Z</time></trkpt>
        <trkpt lat="28.821661" lon="105.302946"><ele>523.8714</ele><time>2026-04-01T01:22:45.000Z</time></trkpt>
        <trkpt lat="28.821704" lon="105.302905"><ele>522.6403</ele><time>2026-04-01T01:22:49.000Z</time></trkpt>
        <trkpt lat="28.821733" lon="105.302847"><ele>521.81476</ele><time>2026-04-01T01:22:53.000Z</time></trkpt>
        <trkpt lat="28.821743" lon="105.302797"><ele>521.1542</ele><time>2026-04-01T01:22:56.000Z</time></trkpt>
        <trkpt lat="28.82174" lon="105.302744"><ele>520.63257</ele><time>2026-04-01T01:23:00.000Z</time></trkpt>
        <trkpt lat="28.821758" lon="105.302695"><ele>519.12006</ele><time>2026-04-01T01:23:20.000Z</time></trkpt>
        <trkpt lat="28.821819" lon="105.302674"><ele>518.65466</ele><time>2026-04-01T01:23:28.000Z</time></trkpt>
        <trkpt lat="28.82187" lon="105.302647"><ele>517.8802</ele><time>2026-04-01T01:23:35.000Z</time></trkpt>
        <trkpt lat="28.821917" lon="105.302611"><ele>516.8898</ele><time>2026-04-01T01:23:38.000Z</time></trkpt>
        <trkpt lat="28.821956" lon="105.30256"><ele>516.188</ele><time>2026-04-01T01:23:41.000Z</time></trkpt>
        <trkpt lat="28.821997" lon="105.30253"><ele>515.3562</ele><time>2026-04-01T01:23:44.000Z</time></trkpt>
        <trkpt lat="28.822051" lon="105.302485"><ele>514.70044</ele><time>2026-04-01T01:23:47.000Z</time></trkpt>
        <trkpt lat="28.822093" lon="105.302453"><ele>514.0769</ele><time>2026-04-01T01:23:51.000Z</time></trkpt>
        <trkpt lat="28.822137" lon="105.30244"><ele>513.2324</ele><time>2026-04-01T01:23:56.000Z</time></trkpt>
        <trkpt lat="28.822192" lon="105.30243"><ele>512.0089</ele><time>2026-04-01T01:24:00.000Z</time></trkpt>
        <trkpt lat="28.822243" lon="105.302448"><ele>510.92108</ele><time>2026-04-01T01:24:04.000Z</time></trkpt>
        <trkpt lat="28.822283" lon="105.302476"><ele>510.46106</ele><time>2026-04-01T01:24:08.000Z</time></trkpt>
        <trkpt lat="28.822316" lon="105.302512"><ele>509.98016</ele><time>2026-04-01T01:24:16.000Z</time></trkpt>
        <trkpt lat="28.822354" lon="105.302556"><ele>509.46796</ele><time>2026-04-01T01:24:21.000Z</time></trkpt>
        <trkpt lat="28.822388" lon="105.302591"><ele>508.56293</ele><time>2026-04-01T01:24:25.000Z</time></trkpt>
        <trkpt lat="28.822418" lon="105.302634"><ele>507.61536</ele><time>2026-04-01T01:24:29.000Z</time></trkpt>
        <trkpt lat="28.822462" lon="105.302664"><ele>506.3991</ele><time>2026-04-01T01:24:33.000Z</time></trkpt>
        <trkpt lat="28.822506" lon="105.302677"><ele>505.17523</ele><time>2026-04-01T01:24:37.000Z</time></trkpt>
        <trkpt lat="28.822565" lon="105.302679"><ele>503.39368</ele><time>2026-04-01T01:24:41.000Z</time></trkpt>
        <trkpt lat="28.822609" lon="105.302684"><ele>502.3755</ele><time>2026-04-01T01:24:44.000Z</time></trkpt>
        <trkpt lat="28.822655" lon="105.302685"><ele>501.52533</ele><time>2026-04-01T01:24:47.000Z</time></trkpt>
        <trkpt lat="28.822703" lon="105.302689"><ele>500.624</ele><time>2026-04-01T01:24:50.000Z</time></trkpt>
        <trkpt lat="28.822747" lon="105.302698"><ele>499.4171</ele><time>2026-04-01T01:24:53.000Z</time></trkpt>
        <trkpt lat="28.822801" lon="105.302714"><ele>498.3763</ele><time>2026-04-01T01:24:57.000Z</time></trkpt>
        <trkpt lat="28.822856" lon="105.302721"><ele>497.95148</ele><time>2026-04-01T01:25:01.000Z</time></trkpt>
        <trkpt lat="28.822901" lon="105.302713"><ele>497.656</ele><time>2026-04-01T01:25:04.000Z</time></trkpt>
        <trkpt lat="28.822951" lon="105.302678"><ele>498.52142</ele><time>2026-04-01T01:25:08.000Z</time></trkpt>
        <trkpt lat="28.822987" lon="105.302642"><ele>500.10373</ele><time>2026-04-01T01:25:11.000Z</time></trkpt>
        <trkpt lat="28.823015" lon="105.3026"><ele>501.49487</ele><time>2026-04-01T01:25:14.000Z</time></trkpt>
        <trkpt lat="28.82304" lon="105.302539"><ele>502.63974</ele><time>2026-04-01T01:25:18.000Z</time></trkpt>
        <trkpt lat="28.823055" lon="105.30249"><ele>503.5781</ele><time>2026-04-01T01:25:21.000Z</time></trkpt>
        <trkpt lat="28.823077" lon="105.302437"><ele>503.78564</ele><time>2026-04-01T01:25:25.000Z</time></trkpt>
        <trkpt lat="28.823094" lon="105.302379"><ele>504.78433</ele><time>2026-04-01T01:25:29.000Z</time></trkpt>
        <trkpt lat="28.823112" lon="105.302322"><ele>505.1679</ele><time>2026-04-01T01:25:33.000Z</time></trkpt>
        <trkpt lat="28.823126" lon="105.30227"><ele>505.7655</ele><time>2026-04-01T01:25:37.000Z</time></trkpt>
        <trkpt lat="28.82313" lon="105.302209"><ele>506.57495</ele><time>2026-04-01T01:25:41.000Z</time></trkpt>
        <trkpt lat="28.823141" lon="105.302159"><ele>506.87363</ele><time>2026-04-01T01:25:44.000Z</time></trkpt>
        <trkpt lat="28.823147" lon="105.302098"><ele>507.2538</ele><time>2026-04-01T01:25:48.000Z</time></trkpt>
        <trkpt lat="28.823145" lon="105.302039"><ele>507.46994</ele><time>2026-04-01T01:25:52.000Z</time></trkpt>
        <trkpt lat="28.823158" lon="105.301982"><ele>507.22784</ele><time>2026-04-01T01:25:56.000Z</time></trkpt>
        <trkpt lat="28.82318" lon="105.301926"><ele>507.46246</ele><time>2026-04-01T01:26:00.000Z</time></trkpt>
        <trkpt lat="28.823214" lon="105.301873"><ele>507.81082</ele><time>2026-04-01T01:26:04.000Z</time></trkpt>
        <trkpt lat="28.823246" lon="105.301822"><ele>508.00613</ele><time>2026-04-01T01:26:08.000Z</time></trkpt>
        <trkpt lat="28.823272" lon="105.301774"><ele>508.21896</ele><time>2026-04-01T01:26:12.000Z</time></trkpt>
        <trkpt lat="28.823285" lon="105.301722"><ele>508.29373</ele><time>2026-04-01T01:26:16.000Z</time></trkpt>
        <trkpt lat="28.823297" lon="105.301661"><ele>508.17224</ele><time>2026-04-01T01:26:21.000Z</time></trkpt>
        <trkpt lat="28.823311" lon="105.3016"><ele>508.50748</ele><time>2026-04-01T01:26:26.000Z</time></trkpt>
        <trkpt lat="28.823334" lon="105.30155"><ele>508.59836</ele><time>2026-04-01T01:26:30.000Z</time></trkpt>
        <trkpt lat="28.823366" lon="105.301505"><ele>508.96808</ele><time>2026-04-01T01:26:34.000Z</time></trkpt>
        <trkpt lat="28.823399" lon="105.301468"><ele>509.25574</ele><time>2026-04-01T01:26:38.000Z</time></trkpt>
        <trkpt lat="28.823448" lon="105.301436"><ele>509.1206</ele><time>2026-04-01T01:26:43.000Z</time></trkpt>
        <trkpt lat="28.823493" lon="105.301421"><ele>508.43234</ele><time>2026-04-01T01:26:47.000Z</time></trkpt>
        <trkpt lat="28.823543" lon="105.301419"><ele>507.42392</ele><time>2026-04-01T01:26:51.000Z</time></trkpt>
        <trkpt lat="28.823593" lon="105.301428"><ele>506.61874</ele><time>2026-04-01T01:26:55.000Z</time></trkpt>
        <trkpt lat="28.823638" lon="105.301454"><ele>505.65018</ele><time>2026-04-01T01:26:59.000Z</time></trkpt>
        <trkpt lat="28.823678" lon="105.301488"><ele>504.8529</ele><time>2026-04-01T01:27:03.000Z</time></trkpt>
        <trkpt lat="28.823708" lon="105.301529"><ele>504.02145</ele><time>2026-04-01T01:27:07.000Z</time></trkpt>
        <trkpt lat="28.823745" lon="105.30157"><ele>502.9719</ele><time>2026-04-01T01:27:12.000Z</time></trkpt>
        <trkpt lat="28.823785" lon="105.301601"><ele>502.4622</ele><time>2026-04-01T01:27:17.000Z</time></trkpt>
        <trkpt lat="28.823824" lon="105.301632"><ele>502.0911</ele><time>2026-04-01T01:27:22.000Z</time></trkpt>
        <trkpt lat="28.823867" lon="105.301656"><ele>502.1002</ele><time>2026-04-01T01:27:28.000Z</time></trkpt>
        <trkpt lat="28.823913" lon="105.301673"><ele>502.12125</ele><time>2026-04-01T01:27:34.000Z</time></trkpt>
        <trkpt lat="28.823964" lon="105.301688"><ele>501.72403</ele><time>2026-04-01T01:27:39.000Z</time></trkpt>
        <trkpt lat="28.824019" lon="105.301695"><ele>501.14694</ele><time>2026-04-01T01:27:44.000Z</time></trkpt>
        <trkpt lat="28.824068" lon="105.301703"><ele>500.9293</ele><time>2026-04-01T01:27:48.000Z</time></trkpt>
        <trkpt lat="28.824117" lon="105.301721"><ele>500.93942</ele><time>2026-04-01T01:27:52.000Z</time></trkpt>
        <trkpt lat="28.824164" lon="105.301747"><ele>501.08972</ele><time>2026-04-01T01:27:56.000Z</time></trkpt>
        <trkpt lat="28.824209" lon="105.301781"><ele>500.77457</ele><time>2026-04-01T01:28:00.000Z</time></trkpt>
        <trkpt lat="28.82425" lon="105.301814"><ele>500.6445</ele><time>2026-04-01T01:28:04.000Z</time></trkpt>
        <trkpt lat="28.824289" lon="105.301847"><ele>500.45813</ele><time>2026-04-01T01:28:08.000Z</time></trkpt>
        <trkpt lat="28.824338" lon="105.301874"><ele>500.04355</ele><time>2026-04-01T01:28:13.000Z</time></trkpt>
        <trkpt lat="28.824392" lon="105.301866"><ele>500.32214</ele><time>2026-04-01T01:28:17.000Z</time></trkpt>
        <trkpt lat="28.824441" lon="105.301858"><ele>500.1121</ele><time>2026-04-01T01:28:21.000Z</time></trkpt>
        <trkpt lat="28.824491" lon="105.301851"><ele>499.64276</ele><time>2026-04-01T01:28:25.000Z</time></trkpt>
        <trkpt lat="28.824543" lon="105.301829"><ele>499.32825</ele><time>2026-04-01T01:28:29.000Z</time></trkpt>
        <trkpt lat="28.824582" lon="105.301793"><ele>499.35718</ele><time>2026-04-01T01:28:33.000Z</time></trkpt>
        <trkpt lat="28.824614" lon="105.301743"><ele>501.44217</ele><time>2026-04-01T01:28:37.000Z</time></trkpt>
        <trkpt lat="28.824629" lon="105.301701"><ele>505.6234</ele><time>2026-04-01T01:28:42.000Z</time></trkpt>
        <trkpt lat="28.824642" lon="105.301665"><ele>509.52542</ele><time>2026-04-01T01:28:50.000Z</time></trkpt>
        <trkpt lat="28.824664" lon="105.301626"><ele>511.54834</ele><time>2026-04-01T01:28:56.000Z</time></trkpt>
        <trkpt lat="28.824679" lon="105.301576"><ele>512.3725</ele><time>2026-04-01T01:29:02.000Z</time></trkpt>
        <trkpt lat="28.824696" lon="105.301528"><ele>513.74084</ele><time>2026-04-01T01:29:07.000Z</time></trkpt>
        <trkpt lat="28.824694" lon="105.301474"><ele>514.59796</ele><time>2026-04-01T01:29:13.000Z</time></trkpt>
        <trkpt lat="28.82469" lon="105.301422"><ele>515.16943</ele><time>2026-04-01T01:29:18.000Z</time></trkpt>
        <trkpt lat="28.824676" lon="105.301371"><ele>515.61206</ele><time>2026-04-01T01:29:23.000Z</time></trkpt>
        <trkpt lat="28.824668" lon="105.301319"><ele>515.59735</ele><time>2026-04-01T01:29:28.000Z</time></trkpt>
        <trkpt lat="28.824647" lon="105.301274"><ele>515.36237</ele><time>2026-04-01T01:29:32.000Z</time></trkpt>
        <trkpt lat="28.824635" lon="105.301223"><ele>514.91345</ele><time>2026-04-01T01:29:35.000Z</time></trkpt>
        <trkpt lat="28.824633" lon="105.301169"><ele>515.04065</ele><time>2026-04-01T01:29:38.000Z</time></trkpt>
        <trkpt lat="28.824622" lon="105.301103"><ele>515.4943</ele><time>2026-04-01T01:29:42.000Z</time></trkpt>
        <trkpt lat="28.824623" lon="105.301048"><ele>515.8895</ele><time>2026-04-01T01:29:46.000Z</time></trkpt>
        <trkpt lat="28.824605" lon="105.300992"><ele>516.64386</ele><time>2026-04-01T01:29:58.000Z</time></trkpt>
        <trkpt lat="28.824573" lon="105.300946"><ele>516.77216</ele><time>2026-04-01T01:30:02.000Z</time></trkpt>
        <trkpt lat="28.824558" lon="105.300895"><ele>516.4507</ele><time>2026-04-01T01:30:06.000Z</time></trkpt>
        <trkpt lat="28.824585" lon="105.300854"><ele>516.1054</ele><time>2026-04-01T01:30:11.000Z</time></trkpt>
        <trkpt lat="28.824598" lon="105.300799"><ele>515.48724</ele><time>2026-04-01T01:30:17.000Z</time></trkpt>
        <trkpt lat="28.824631" lon="105.30075"><ele>515.5759</ele><time>2026-04-01T01:30:22.000Z</time></trkpt>
        <trkpt lat="28.824682" lon="105.300736"><ele>515.8358</ele><time>2026-04-01T01:30:26.000Z</time></trkpt>
        <trkpt lat="28.824727" lon="105.300718"><ele>515.76355</ele><time>2026-04-01T01:30:31.000Z</time></trkpt>
        <trkpt lat="28.824778" lon="105.300701"><ele>515.5631</ele><time>2026-04-01T01:30:36.000Z</time></trkpt>
        <trkpt lat="28.824824" lon="105.300682"><ele>515.1776</ele><time>2026-04-01T01:30:42.000Z</time></trkpt>
        <trkpt lat="28.824872" lon="105.300654"><ele>516.45496</ele><time>2026-04-01T01:30:46.000Z</time></trkpt>
        <trkpt lat="28.824913" lon="105.300612"><ele>517.1494</ele><time>2026-04-01T01:30:51.000Z</time></trkpt>
        <trkpt lat="28.824949" lon="105.300569"><ele>516.61505</ele><time>2026-04-01T01:30:56.000Z</time></trkpt>
        <trkpt lat="28.824988" lon="105.300528"><ele>515.6245</ele><time>2026-04-01T01:31:01.000Z</time></trkpt>
        <trkpt lat="28.825025" lon="105.300485"><ele>514.85016</ele><time>2026-04-01T01:31:06.000Z</time></trkpt>
        <trkpt lat="28.825066" lon="105.300438"><ele>515.9943</ele><time>2026-04-01T01:31:10.000Z</time></trkpt>
        <trkpt lat="28.825095" lon="105.300396"><ele>516.6043</ele><time>2026-04-01T01:31:13.000Z</time></trkpt>
        <trkpt lat="28.825122" lon="105.300349"><ele>517.69965</ele><time>2026-04-01T01:31:16.000Z</time></trkpt>
        <trkpt lat="28.825163" lon="105.300303"><ele>517.919</ele><time>2026-04-01T01:31:20.000Z</time></trkpt>
        <trkpt lat="28.825209" lon="105.300271"><ele>517.8452</ele><time>2026-04-01T01:31:24.000Z</time></trkpt>
        <trkpt lat="28.825261" lon="105.300246"><ele>517.38605</ele><time>2026-04-01T01:31:28.000Z</time></trkpt>
        <trkpt lat="28.82531" lon="105.300227"><ele>517.4733</ele><time>2026-04-01T01:31:32.000Z</time></trkpt>
        <trkpt lat="28.825354" lon="105.300197"><ele>516.8204</ele><time>2026-04-01T01:31:36.000Z</time></trkpt>
        <trkpt lat="28.825396" lon="105.300175"><ele>516.1807</ele><time>2026-04-01T01:31:40.000Z</time></trkpt>
        <trkpt lat="28.825441" lon="105.300157"><ele>515.92194</ele><time>2026-04-01T01:31:44.000Z</time></trkpt>
        <trkpt lat="28.825476" lon="105.300121"><ele>515.7845</ele><time>2026-04-01T01:31:48.000Z</time></trkpt>
        <trkpt lat="28.825518" lon="105.300085"><ele>515.4806</ele><time>2026-04-01T01:31:53.000Z</time></trkpt>
        <trkpt lat="28.825554" lon="105.300054"><ele>514.27484</ele><time>2026-04-01T01:31:58.000Z</time></trkpt>
        <trkpt lat="28.825526" lon="105.30001"><ele>513.81006</ele><time>2026-04-01T01:32:03.000Z</time></trkpt>
        <trkpt lat="28.825554" lon="105.299966"><ele>513.237</ele><time>2026-04-01T01:32:07.000Z</time></trkpt>
        <trkpt lat="28.825604" lon="105.299958"><ele>512.11676</ele><time>2026-04-01T01:32:11.000Z</time></trkpt>
        <trkpt lat="28.825649" lon="105.299969"><ele>510.5104</ele><time>2026-04-01T01:32:14.000Z</time></trkpt>
        <trkpt lat="28.825701" lon="105.299983"><ele>508.60428</ele><time>2026-04-01T01:32:18.000Z</time></trkpt>
        <trkpt lat="28.825747" lon="105.299988"><ele>506.8103</ele><time>2026-04-01T01:32:22.000Z</time></trkpt>
        <trkpt lat="28.825793" lon="105.299984"><ele>505.73886</ele><time>2026-04-01T01:32:26.000Z</time></trkpt>
        <trkpt lat="28.825842" lon="105.299969"><ele>504.54803</ele><time>2026-04-01T01:32:31.000Z</time></trkpt>
        <trkpt lat="28.825882" lon="105.299942"><ele>503.59436</ele><time>2026-04-01T01:32:37.000Z</time></trkpt>
        <trkpt lat="28.825929" lon="105.299927"><ele>501.17133</ele><time>2026-04-01T01:32:43.000Z</time></trkpt>
        <trkpt lat="28.825946" lon="105.299895"><ele>497.15695</ele><time>2026-04-01T01:33:28.000Z</time></trkpt>
        <trkpt lat="28.825995" lon="105.299897"><ele>495.17822</ele><time>2026-04-01T01:33:35.000Z</time></trkpt>
        <trkpt lat="28.826036" lon="105.299842"><ele>494.41306</ele><time>2026-04-01T01:33:39.000Z</time></trkpt>
        <trkpt lat="28.826076" lon="105.299798"><ele>494.4739</ele><time>2026-04-01T01:33:42.000Z</time></trkpt>
        <trkpt lat="28.826107" lon="105.299758"><ele>495.02914</ele><time>2026-04-01T01:33:45.000Z</time></trkpt>
        <trkpt lat="28.826149" lon="105.299729"><ele>494.75055</ele><time>2026-04-01T01:33:49.000Z</time></trkpt>
        <trkpt lat="28.826191" lon="105.29971"><ele>494.79007</ele><time>2026-04-01T01:33:53.000Z</time></trkpt>
        <trkpt lat="28.826235" lon="105.29968"><ele>494.6965</ele><time>2026-04-01T01:33:57.000Z</time></trkpt>
        <trkpt lat="28.826267" lon="105.299632"><ele>494.65378</ele><time>2026-04-01T01:34:01.000Z</time></trkpt>
        <trkpt lat="28.826307" lon="105.299584"><ele>494.5351</ele><time>2026-04-01T01:34:05.000Z</time></trkpt>
        <trkpt lat="28.826346" lon="105.299534"><ele>494.8112</ele><time>2026-04-01T01:34:09.000Z</time></trkpt>
        <trkpt lat="28.826383" lon="105.299489"><ele>495.30405</ele><time>2026-04-01T01:34:13.000Z</time></trkpt>
        <trkpt lat="28.826435" lon="105.299466"><ele>495.42685</ele><time>2026-04-01T01:34:17.000Z</time></trkpt>
        <trkpt lat="28.826489" lon="105.299445"><ele>495.6549</ele><time>2026-04-01T01:34:21.000Z</time></trkpt>
        <trkpt lat="28.826533" lon="105.299426"><ele>495.6979</ele><time>2026-04-01T01:34:24.000Z</time></trkpt>
        <trkpt lat="28.82658" lon="105.299374"><ele>495.51218</ele><time>2026-04-01T01:34:26.000Z</time></trkpt>
        <trkpt lat="28.826616" lon="105.299333"><ele>495.52536</ele><time>2026-04-01T01:34:28.000Z</time></trkpt>
        <trkpt lat="28.826656" lon="105.299296"><ele>494.838</ele><time>2026-04-01T01:34:31.000Z</time></trkpt>
        <trkpt lat="28.826705" lon="105.299278"><ele>494.20682</ele><time>2026-04-01T01:34:34.000Z</time></trkpt>
        <trkpt lat="28.82678" lon="105.299258"><ele>493.64276</ele><time>2026-04-01T01:34:36.000Z</time></trkpt>
        <trkpt lat="28.826861" lon="105.299255"><ele>492.85828</ele><time>2026-04-01T01:34:38.000Z</time></trkpt>
        <trkpt lat="28.826928" lon="105.299273"><ele>492.12216</ele><time>2026-04-01T01:34:40.000Z</time></trkpt>
        <trkpt lat="28.826997" lon="105.299268"><ele>491.53168</ele><time>2026-04-01T01:34:43.000Z</time></trkpt>
        <trkpt lat="28.827043" lon="105.299239"><ele>491.35992</ele><time>2026-04-01T01:34:45.000Z</time></trkpt>
        <trkpt lat="28.827095" lon="105.29922"><ele>490.93512</ele><time>2026-04-01T01:34:47.000Z</time></trkpt>
        <trkpt lat="28.827146" lon="105.299213"><ele>490.2703</ele><time>2026-04-01T01:34:49.000Z</time></trkpt>
        <trkpt lat="28.827195" lon="105.299203"><ele>489.68277</ele><time>2026-04-01T01:34:51.000Z</time></trkpt>
        <trkpt lat="28.82724" lon="105.299197"><ele>489.22644</ele><time>2026-04-01T01:34:53.000Z</time></trkpt>
        <trkpt lat="28.827297" lon="105.299192"><ele>488.7626</ele><time>2026-04-01T01:34:56.000Z</time></trkpt>
        <trkpt lat="28.827339" lon="105.299211"><ele>488.42398</ele><time>2026-04-01T01:35:00.000Z</time></trkpt>
        <trkpt lat="28.827383" lon="105.299245"><ele>488.12347</ele><time>2026-04-01T01:35:03.000Z</time></trkpt>
        <trkpt lat="28.827428" lon="105.299274"><ele>487.31927</ele><time>2026-04-01T01:35:08.000Z</time></trkpt>
        <trkpt lat="28.827472" lon="105.299285"><ele>486.08438</ele><time>2026-04-01T01:35:13.000Z</time></trkpt>
        <trkpt lat="28.827487" lon="105.299338"><ele>485.43793</ele><time>2026-04-01T01:35:17.000Z</time></trkpt>
        <trkpt lat="28.827491" lon="105.299392"><ele>484.94608</ele><time>2026-04-01T01:35:21.000Z</time></trkpt>
        <trkpt lat="28.827506" lon="105.299444"><ele>484.66446</ele><time>2026-04-01T01:35:26.000Z</time></trkpt>
        <trkpt lat="28.827546" lon="105.299487"><ele>484.2733</ele><time>2026-04-01T01:35:33.000Z</time></trkpt>
        <trkpt lat="28.827582" lon="105.29952"><ele>483.49744</ele><time>2026-04-01T01:35:37.000Z</time></trkpt>
        <trkpt lat="28.827626" lon="105.299522"><ele>482.17996</ele><time>2026-04-01T01:35:42.000Z</time></trkpt>
        <trkpt lat="28.827677" lon="105.299526"><ele>481.0951</ele><time>2026-04-01T01:35:47.000Z</time></trkpt>
        <trkpt lat="28.827722" lon="105.299559"><ele>480.41156</ele><time>2026-04-01T01:35:51.000Z</time></trkpt>
        <trkpt lat="28.827741" lon="105.299615"><ele>480.29453</ele><time>2026-04-01T01:35:55.000Z</time></trkpt>
        <trkpt lat="28.82774" lon="105.299672"><ele>480.36484</ele><time>2026-04-01T01:35:59.000Z</time></trkpt>
        <trkpt lat="28.827744" lon="105.299728"><ele>479.63138</ele><time>2026-04-01T01:36:05.000Z</time></trkpt>
        <trkpt lat="28.827778" lon="105.299773"><ele>479.3503</ele><time>2026-04-01T01:36:09.000Z</time></trkpt>
        <trkpt lat="28.827803" lon="105.299815"><ele>478.5119</ele><time>2026-04-01T01:36:14.000Z</time></trkpt>
        <trkpt lat="28.827838" lon="105.299847"><ele>477.3909</ele><time>2026-04-01T01:36:23.000Z</time></trkpt>
        <trkpt lat="28.827885" lon="105.299849"><ele>477.33374</ele><time>2026-04-01T01:36:38.000Z</time></trkpt>
        <trkpt lat="28.82793" lon="105.29982"><ele>476.41632</ele><time>2026-04-01T01:36:44.000Z</time></trkpt>
        <trkpt lat="28.827957" lon="105.299779"><ele>476.69672</ele><time>2026-04-01T01:36:48.000Z</time></trkpt>
        <trkpt lat="28.827984" lon="105.299733"><ele>476.79694</ele><time>2026-04-01T01:36:52.000Z</time></trkpt>
        <trkpt lat="28.828028" lon="105.299706"><ele>475.91306</ele><time>2026-04-01T01:36:57.000Z</time></trkpt>
        <trkpt lat="28.828072" lon="105.299693"><ele>474.73004</ele><time>2026-04-01T01:37:02.000Z</time></trkpt>
        <trkpt lat="28.828117" lon="105.299684"><ele>473.13132</ele><time>2026-04-01T01:37:07.000Z</time></trkpt>
        <trkpt lat="28.828165" lon="105.299659"><ele>472.8427</ele><time>2026-04-01T01:37:13.000Z</time></trkpt>
        <trkpt lat="28.82821" lon="105.299631"><ele>472.39368</ele><time>2026-04-01T01:37:18.000Z</time></trkpt>
        <trkpt lat="28.828237" lon="105.299588"><ele>471.93338</ele><time>2026-04-01T01:37:24.000Z</time></trkpt>
        <trkpt lat="28.828256" lon="105.299535"><ele>470.75995</ele><time>2026-04-01T01:37:31.000Z</time></trkpt>
        <trkpt lat="28.828265" lon="105.299488"><ele>468.86502</ele><time>2026-04-01T01:37:37.000Z</time></trkpt>
        <trkpt lat="28.828311" lon="105.299471"><ele>466.2678</ele><time>2026-04-01T01:37:43.000Z</time></trkpt>
        <trkpt lat="28.828355" lon="105.29946"><ele>464.4168</ele><time>2026-04-01T01:37:47.000Z</time></trkpt>
        <trkpt lat="28.828401" lon="105.299437"><ele>463.4141</ele><time>2026-04-01T01:37:52.000Z</time></trkpt>
        <trkpt lat="28.828443" lon="105.299401"><ele>462.2597</ele><time>2026-04-01T01:37:57.000Z</time></trkpt>
        <trkpt lat="28.828479" lon="105.299363"><ele>460.95883</ele><time>2026-04-01T01:38:03.000Z</time></trkpt>
        <trkpt lat="28.828506" lon="105.299321"><ele>461.5677</ele><time>2026-04-01T01:38:10.000Z</time></trkpt>
        <trkpt lat="28.828528" lon="105.299266"><ele>462.27774</ele><time>2026-04-01T01:38:18.000Z</time></trkpt>
        <trkpt lat="28.828557" lon="105.299227"><ele>461.43558</ele><time>2026-04-01T01:38:22.000Z</time></trkpt>
        <trkpt lat="28.828597" lon="105.299194"><ele>460.36234</ele><time>2026-04-01T01:38:27.000Z</time></trkpt>
        <trkpt lat="28.828611" lon="105.299136"><ele>459.3254</ele><time>2026-04-01T01:38:33.000Z</time></trkpt>
        <trkpt lat="28.828615" lon="105.299075"><ele>458.2494</ele><time>2026-04-01T01:38:39.000Z</time></trkpt>
        <trkpt lat="28.828608" lon="105.299022"><ele>456.94464</ele><time>2026-04-01T01:38:44.000Z</time></trkpt>
        <trkpt lat="28.82858" lon="105.298977"><ele>455.49918</ele><time>2026-04-01T01:38:50.000Z</time></trkpt>
        <trkpt lat="28.82855" lon="105.298935"><ele>453.84256</ele><time>2026-04-01T01:38:56.000Z</time></trkpt>
        <trkpt lat="28.82858" lon="105.298905"><ele>451.02582</ele><time>2026-04-01T01:39:11.000Z</time></trkpt>
        <trkpt lat="28.828613" lon="105.298865"><ele>448.89066</ele><time>2026-04-01T01:39:15.000Z</time></trkpt>
        <trkpt lat="28.828649" lon="105.298823"><ele>447.67194</ele><time>2026-04-01T01:39:19.000Z</time></trkpt>
        <trkpt lat="28.82868" lon="105.298787"><ele>446.9408</ele><time>2026-04-01T01:39:23.000Z</time></trkpt>
        <trkpt lat="28.828708" lon="105.298733"><ele>447.4513</ele><time>2026-04-01T01:39:27.000Z</time></trkpt>
        <trkpt lat="28.82871" lon="105.298675"><ele>447.62274</ele><time>2026-04-01T01:39:31.000Z</time></trkpt>
        <trkpt lat="28.828728" lon="105.298618"><ele>447.58813</ele><time>2026-04-01T01:39:36.000Z</time></trkpt>
        <trkpt lat="28.828772" lon="105.298575"><ele>446.9831</ele><time>2026-04-01T01:39:40.000Z</time></trkpt>
        <trkpt lat="28.828819" lon="105.298542"><ele>445.98016</ele><time>2026-04-01T01:39:44.000Z</time></trkpt>
        <trkpt lat="28.828869" lon="105.298534"><ele>445.14572</ele><time>2026-04-01T01:39:48.000Z</time></trkpt>
        <trkpt lat="28.828909" lon="105.298564"><ele>444.35712</ele><time>2026-04-01T01:39:52.000Z</time></trkpt>
        <trkpt lat="28.828948" lon="105.298588"><ele>443.38922</ele><time>2026-04-01T01:39:56.000Z</time></trkpt>
        <trkpt lat="28.828992" lon="105.298598"><ele>442.2937</ele><time>2026-04-01T01:40:00.000Z</time></trkpt>
        <trkpt lat="28.829046" lon="105.298597"><ele>441.946</ele><time>2026-04-01T01:40:05.000Z</time></trkpt>
        <trkpt lat="28.829079" lon="105.298559"><ele>441.75647</ele><time>2026-04-01T01:40:09.000Z</time></trkpt>
        <trkpt lat="28.829106" lon="105.298509"><ele>441.63525</ele><time>2026-04-01T01:40:13.000Z</time></trkpt>
        <trkpt lat="28.829134" lon="105.298462"><ele>441.97888</ele><time>2026-04-01T01:40:17.000Z</time></trkpt>
        <trkpt lat="28.829143" lon="105.298405"><ele>442.38657</ele><time>2026-04-01T01:40:21.000Z</time></trkpt>
        <trkpt lat="28.829156" lon="105.298348"><ele>442.5987</ele><time>2026-04-01T01:40:25.000Z</time></trkpt>
        <trkpt lat="28.829182" lon="105.298297"><ele>442.23236</ele><time>2026-04-01T01:40:29.000Z</time></trkpt>
        <trkpt lat="28.829211" lon="105.298251"><ele>441.76303</ele><time>2026-04-01T01:40:33.000Z</time></trkpt>
        <trkpt lat="28.829253" lon="105.298224"><ele>441.56332</ele><time>2026-04-01T01:40:38.000Z</time></trkpt>
        <trkpt lat="28.829289" lon="105.29818"><ele>441.43033</ele><time>2026-04-01T01:40:43.000Z</time></trkpt>
        <trkpt lat="28.829317" lon="105.298137"><ele>442.32236</ele><time>2026-04-01T01:40:47.000Z</time></trkpt>
        <trkpt lat="28.829355" lon="105.298081"><ele>443.45956</ele><time>2026-04-01T01:40:52.000Z</time></trkpt>
        <trkpt lat="28.829351" lon="105.298018"><ele>443.35986</ele><time>2026-04-01T01:40:56.000Z</time></trkpt>
        <trkpt lat="28.829357" lon="105.297957"><ele>442.89655</ele><time>2026-04-01T01:41:00.000Z</time></trkpt>
        <trkpt lat="28.82938" lon="105.297905"><ele>441.265</ele><time>2026-04-01T01:41:05.000Z</time></trkpt>
        <trkpt lat="28.829402" lon="105.297859"><ele>440.1125</ele><time>2026-04-01T01:41:10.000Z</time></trkpt>
        <trkpt lat="28.829444" lon="105.297821"><ele>439.3162</ele><time>2026-04-01T01:41:15.000Z</time></trkpt>
        <trkpt lat="28.829479" lon="105.297789"><ele>438.81027</ele><time>2026-04-01T01:41:19.000Z</time></trkpt>
        <trkpt lat="28.829513" lon="105.297744"><ele>438.42487</ele><time>2026-04-01T01:41:24.000Z</time></trkpt>
        <trkpt lat="28.829549" lon="105.29771"><ele>437.24417</ele><time>2026-04-01T01:41:28.000Z</time></trkpt>
        <trkpt lat="28.829586" lon="105.29768"><ele>436.55374</ele><time>2026-04-01T01:41:32.000Z</time></trkpt>
        <trkpt lat="28.829617" lon="105.297644"><ele>436.36945</ele><time>2026-04-01T01:41:36.000Z</time></trkpt>
        <trkpt lat="28.82963" lon="105.297588"><ele>436.96732</ele><time>2026-04-01T01:41:40.000Z</time></trkpt>
        <trkpt lat="28.829635" lon="105.297531"><ele>437.1326</ele><time>2026-04-01T01:41:44.000Z</time></trkpt>
        <trkpt lat="28.829656" lon="105.297481"><ele>437.15866</ele><time>2026-04-01T01:41:49.000Z</time></trkpt>
        <trkpt lat="28.829672" lon="105.297417"><ele>437.19336</ele><time>2026-04-01T01:41:54.000Z</time></trkpt>
        <trkpt lat="28.829676" lon="105.297353"><ele>437.4656</ele><time>2026-04-01T01:41:58.000Z</time></trkpt>
        <trkpt lat="28.829681" lon="105.297291"><ele>437.21118</ele><time>2026-04-01T01:42:03.000Z</time></trkpt>
        <trkpt lat="28.829692" lon="105.297234"><ele>436.80072</ele><time>2026-04-01T01:42:07.000Z</time></trkpt>
        <trkpt lat="28.82972" lon="105.297181"><ele>435.8659</ele><time>2026-04-01T01:42:12.000Z</time></trkpt>
        <trkpt lat="28.82974" lon="105.297132"><ele>434.22754</ele><time>2026-04-01T01:42:16.000Z</time></trkpt>
        <trkpt lat="28.829773" lon="105.29708"><ele>432.9649</ele><time>2026-04-01T01:42:20.000Z</time></trkpt>
        <trkpt lat="28.829806" lon="105.297037"><ele>432.55264</ele><time>2026-04-01T01:42:24.000Z</time></trkpt>
        <trkpt lat="28.829842" lon="105.296998"><ele>431.4971</ele><time>2026-04-01T01:42:28.000Z</time></trkpt>
        <trkpt lat="28.82987" lon="105.296954"><ele>431.19766</ele><time>2026-04-01T01:42:33.000Z</time></trkpt>
        <trkpt lat="28.829896" lon="105.296912"><ele>429.68854</ele><time>2026-04-01T01:42:37.000Z</time></trkpt>
        <trkpt lat="28.829933" lon="105.296861"><ele>428.00372</ele><time>2026-04-01T01:42:41.000Z</time></trkpt>
        <trkpt lat="28.829968" lon="105.29682"><ele>427.39246</ele><time>2026-04-01T01:42:45.000Z</time></trkpt>
        <trkpt lat="28.830002" lon="105.296786"><ele>426.5542</ele><time>2026-04-01T01:42:51.000Z</time></trkpt>
        <trkpt lat="28.830022" lon="105.296737"><ele>425.10806</ele><time>2026-04-01T01:42:57.000Z</time></trkpt>
        <trkpt lat="28.830056" lon="105.296702"><ele>423.3575</ele><time>2026-04-01T01:43:02.000Z</time></trkpt>
        <trkpt lat="28.830097" lon="105.296668"><ele>421.478</ele><time>2026-04-01T01:43:08.000Z</time></trkpt>
        <trkpt lat="28.830115" lon="105.29662"><ele>420.1996</ele><time>2026-04-01T01:43:14.000Z</time></trkpt>
        <trkpt lat="28.830131" lon="105.296568"><ele>419.24973</ele><time>2026-04-01T01:43:19.000Z</time></trkpt>
        <trkpt lat="28.830146" lon="105.296516"><ele>419.83908</ele><time>2026-04-01T01:43:24.000Z</time></trkpt>
        <trkpt lat="28.83015" lon="105.296465"><ele>420.1904</ele><time>2026-04-01T01:43:28.000Z</time></trkpt>
        <trkpt lat="28.830129" lon="105.296415"><ele>422.0276</ele><time>2026-04-01T01:43:32.000Z</time></trkpt>
        <trkpt lat="28.830107" lon="105.296365"><ele>421.80435</ele><time>2026-04-01T01:43:37.000Z</time></trkpt>
        <trkpt lat="28.830106" lon="105.29631"><ele>420.20157</ele><time>2026-04-01T01:43:42.000Z</time></trkpt>
        <trkpt lat="28.830117" lon="105.296266"><ele>417.37946</ele><time>2026-04-01T01:43:46.000Z</time></trkpt>
        <trkpt lat="28.830133" lon="105.296226"><ele>414.89383</ele><time>2026-04-01T01:43:50.000Z</time></trkpt>
        <trkpt lat="28.830165" lon="105.296179"><ele>414.07935</ele><time>2026-04-01T01:43:55.000Z</time></trkpt>
        <trkpt lat="28.830187" lon="105.296125"><ele>414.1541</ele><time>2026-04-01T01:44:00.000Z</time></trkpt>
        <trkpt lat="28.830201" lon="105.296075"><ele>413.70193</ele><time>2026-04-01T01:44:04.000Z</time></trkpt>
        <trkpt lat="28.830207" lon="105.296019"><ele>412.8585</ele><time>2026-04-01T01:44:09.000Z</time></trkpt>
        <trkpt lat="28.830196" lon="105.295969"><ele>411.90027</ele><time>2026-04-01T01:44:14.000Z</time></trkpt>
        <trkpt lat="28.830201" lon="105.295915"><ele>410.1778</ele><time>2026-04-01T01:44:20.000Z</time></trkpt>
        <trkpt lat="28.830204" lon="105.295859"><ele>408.24313</ele><time>2026-04-01T01:44:26.000Z</time></trkpt>
        <trkpt lat="28.830185" lon="105.295815"><ele>406.46194</ele><time>2026-04-01T01:44:30.000Z</time></trkpt>
        <trkpt lat="28.830186" lon="105.295759"><ele>404.43698</ele><time>2026-04-01T01:44:34.000Z</time></trkpt>
        <trkpt lat="28.830217" lon="105.295721"><ele>402.2366</ele><time>2026-04-01T01:44:38.000Z</time></trkpt>
        <trkpt lat="28.830249" lon="105.29568"><ele>400.54385</ele><time>2026-04-01T01:44:42.000Z</time></trkpt>
        <trkpt lat="28.830265" lon="105.295625"><ele>399.07266</ele><time>2026-04-01T01:44:46.000Z</time></trkpt>
        <trkpt lat="28.83027" lon="105.295571"><ele>397.91125</ele><time>2026-04-01T01:44:50.000Z</time></trkpt>
        <trkpt lat="28.830286" lon="105.295514"><ele>396.00708</ele><time>2026-04-01T01:44:54.000Z</time></trkpt>
        <trkpt lat="28.83031" lon="105.295465"><ele>394.26242</ele><time>2026-04-01T01:44:58.000Z</time></trkpt>
        <trkpt lat="28.830315" lon="105.295415"><ele>393.26218</ele><time>2026-04-01T01:45:02.000Z</time></trkpt>
        <trkpt lat="28.830319" lon="105.295359"><ele>391.87766</ele><time>2026-04-01T01:45:06.000Z</time></trkpt>
        <trkpt lat="28.830317" lon="105.295305"><ele>390.5335</ele><time>2026-04-01T01:45:10.000Z</time></trkpt>
        <trkpt lat="28.830316" lon="105.295254"><ele>389.67944</ele><time>2026-04-01T01:45:14.000Z</time></trkpt>
        <trkpt lat="28.830348" lon="105.295203"><ele>388.46768</ele><time>2026-04-01T01:45:19.000Z</time></trkpt>
        <trkpt lat="28.830388" lon="105.295166"><ele>388.00076</ele><time>2026-04-01T01:45:23.000Z</time></trkpt>
        <trkpt lat="28.830421" lon="105.295116"><ele>387.27917</ele><time>2026-04-01T01:45:27.000Z</time></trkpt>
        <trkpt lat="28.830459" lon="105.295064"><ele>387.50723</ele><time>2026-04-01T01:45:31.000Z</time></trkpt>
        <trkpt lat="28.8305" lon="105.295026"><ele>387.25247</ele><time>2026-04-01T01:45:35.000Z</time></trkpt>
        <trkpt lat="28.830543" lon="105.294994"><ele>387.13687</ele><time>2026-04-01T01:45:39.000Z</time></trkpt>
        <trkpt lat="28.830585" lon="105.294959"><ele>386.03815</ele><time>2026-04-01T01:45:43.000Z</time></trkpt>
        <trkpt lat="28.830622" lon="105.294912"><ele>385.1139</ele><time>2026-04-01T01:45:47.000Z</time></trkpt>
        <trkpt lat="28.830641" lon="105.294855"><ele>384.21616</ele><time>2026-04-01T01:45:51.000Z</time></trkpt>
        <trkpt lat="28.830658" lon="105.294802"><ele>383.84906</ele><time>2026-04-01T01:45:55.000Z</time></trkpt>
        <trkpt lat="28.830686" lon="105.294758"><ele>383.19937</ele><time>2026-04-01T01:45:59.000Z</time></trkpt>
        <trkpt lat="28.830731" lon="105.29475"><ele>382.7183</ele><time>2026-04-01T01:46:03.000Z</time></trkpt>
        <trkpt lat="28.830772" lon="105.294769"><ele>381.85666</ele><time>2026-04-01T01:46:07.000Z</time></trkpt>
        <trkpt lat="28.830818" lon="105.294776"><ele>381.07352</ele><time>2026-04-01T01:46:11.000Z</time></trkpt>
        <trkpt lat="28.830867" lon="105.294803"><ele>380.03366</ele><time>2026-04-01T01:46:16.000Z</time></trkpt>
        <trkpt lat="28.830907" lon="105.294839"><ele>379.04526</ele><time>2026-04-01T01:46:21.000Z</time></trkpt>
        <trkpt lat="28.830957" lon="105.294858"><ele>377.92685</ele><time>2026-04-01T01:46:26.000Z</time></trkpt>
        <trkpt lat="28.830998" lon="105.294892"><ele>377.4224</ele><time>2026-04-01T01:46:30.000Z</time></trkpt>
        <trkpt lat="28.831042" lon="105.294933"><ele>376.7328</ele><time>2026-04-01T01:46:34.000Z</time></trkpt>
        <trkpt lat="28.831098" lon="105.294955"><ele>376.67035</ele><time>2026-04-01T01:46:38.000Z</time></trkpt>
        <trkpt lat="28.831142" lon="105.294942"><ele>376.68338</ele><time>2026-04-01T01:46:41.000Z</time></trkpt>
        <trkpt lat="28.831185" lon="105.294908"><ele>376.5668</ele><time>2026-04-01T01:46:45.000Z</time></trkpt>
        <trkpt lat="28.83123" lon="105.294872"><ele>377.04016</ele><time>2026-04-01T01:46:49.000Z</time></trkpt>
        <trkpt lat="28.831271" lon="105.29484"><ele>377.72748</ele><time>2026-04-01T01:46:53.000Z</time></trkpt>
        <trkpt lat="28.831313" lon="105.294816"><ele>378.30182</ele><time>2026-04-01T01:46:57.000Z</time></trkpt>
        <trkpt lat="28.831367" lon="105.294816"><ele>378.08914</ele><time>2026-04-01T01:47:02.000Z</time></trkpt>
        <trkpt lat="28.831416" lon="105.294832"><ele>378.1863</ele><time>2026-04-01T01:47:07.000Z</time></trkpt>
        <trkpt lat="28.831463" lon="105.294841"><ele>378.20212</ele><time>2026-04-01T01:47:11.000Z</time></trkpt>
        <trkpt lat="28.831511" lon="105.294846"><ele>378.09592</ele><time>2026-04-01T01:47:15.000Z</time></trkpt>
        <trkpt lat="28.831562" lon="105.294871"><ele>377.71832</ele><time>2026-04-01T01:47:20.000Z</time></trkpt>
        <trkpt lat="28.831605" lon="105.294903"><ele>377.3428</ele><time>2026-04-01T01:47:25.000Z</time></trkpt>
        <trkpt lat="28.831644" lon="105.294936"><ele>377.9561</ele><time>2026-04-01T01:47:30.000Z</time></trkpt>
        <trkpt lat="28.831654" lon="105.294988"><ele>378.1708</ele><time>2026-04-01T01:47:35.000Z</time></trkpt>
        <trkpt lat="28.831698" lon="105.295018"><ele>380.2837</ele><time>2026-04-01T01:47:42.000Z</time></trkpt>
        <trkpt lat="28.831746" lon="105.295015"><ele>380.657</ele><time>2026-04-01T01:47:48.000Z</time></trkpt>
        <trkpt lat="28.831794" lon="105.295024"><ele>380.47586</ele><time>2026-04-01T01:47:53.000Z</time></trkpt>
        <trkpt lat="28.831846" lon="105.295016"><ele>380.02786</ele><time>2026-04-01T01:47:59.000Z</time></trkpt>
        <trkpt lat="28.831895" lon="105.295007"><ele>379.14984</ele><time>2026-04-01T01:48:03.000Z</time></trkpt>
        <trkpt lat="28.83196" lon="105.29494"><ele>378.4999</ele><time>2026-04-01T01:48:06.000Z</time></trkpt>
        <trkpt lat="28.83199" lon="105.294872"><ele>378.54175</ele><time>2026-04-01T01:48:07.000Z</time></trkpt>
        <trkpt lat="28.832023" lon="105.29482"><ele>378.83826</ele><time>2026-04-01T01:48:08.000Z</time></trkpt>
        <trkpt lat="28.832071" lon="105.294781"><ele>378.59174</ele><time>2026-04-01T01:48:10.000Z</time></trkpt>
        <trkpt lat="28.832118" lon="105.294765"><ele>378.71594</ele><time>2026-04-01T01:48:12.000Z</time></trkpt>
        <trkpt lat="28.832174" lon="105.294733"><ele>378.7642</ele><time>2026-04-01T01:48:15.000Z</time></trkpt>
        <trkpt lat="28.832216" lon="105.294721"><ele>376.97015</ele><time>2026-04-01T01:48:20.000Z</time></trkpt>
        <trkpt lat="28.832254" lon="105.294689"><ele>376.1178</ele><time>2026-04-01T01:48:23.000Z</time></trkpt>
        <trkpt lat="28.832297" lon="105.294661"><ele>375.62823</ele><time>2026-04-01T01:48:28.000Z</time></trkpt>
        <trkpt lat="28.832339" lon="105.294621"><ele>374.29697</ele><time>2026-04-01T01:48:32.000Z</time></trkpt>
        <trkpt lat="28.832383" lon="105.294568"><ele>372.53668</ele><time>2026-04-01T01:48:37.000Z</time></trkpt>
        <trkpt lat="28.832438" lon="105.294545"><ele>371.78732</ele><time>2026-04-01T01:48:39.000Z</time></trkpt>
        <trkpt lat="28.832474" lon="105.294508"><ele>370.60034</ele><time>2026-04-01T01:48:40.000Z</time></trkpt>
        <trkpt lat="28.832522" lon="105.294469"><ele>368.9424</ele><time>2026-04-01T01:48:42.000Z</time></trkpt>
        <trkpt lat="28.832559" lon="105.294442"><ele>367.6919</ele><time>2026-04-01T01:48:44.000Z</time></trkpt>
        <trkpt lat="28.832585" lon="105.294396"><ele>366.3409</ele><time>2026-04-01T01:48:46.000Z</time></trkpt>
        <trkpt lat="28.832604" lon="105.294313"><ele>364.7836</ele><time>2026-04-01T01:48:49.000Z</time></trkpt>
        <trkpt lat="28.832598" lon="105.294254"><ele>363.9316</ele><time>2026-04-01T01:48:51.000Z</time></trkpt>
        <trkpt lat="28.832598" lon="105.294186"><ele>362.94904</ele><time>2026-04-01T01:48:53.000Z</time></trkpt>
        <trkpt lat="28.832592" lon="105.294115"><ele>362.20197</ele><time>2026-04-01T01:48:55.000Z</time></trkpt>
        <trkpt lat="28.832593" lon="105.294051"><ele>361.56772</ele><time>2026-04-01T01:48:57.000Z</time></trkpt>
        <trkpt lat="28.832618" lon="105.294006"><ele>359.19913</ele><time>2026-04-01T01:49:00.000Z</time></trkpt>
        <trkpt lat="28.832608" lon="105.293942"><ele>357.36655</ele><time>2026-04-01T01:49:03.000Z</time></trkpt>
        <trkpt lat="28.832593" lon="105.293888"><ele>356.22977</ele><time>2026-04-01T01:49:05.000Z</time></trkpt>
        <trkpt lat="28.832566" lon="105.293841"><ele>355.27942</ele><time>2026-04-01T01:49:07.000Z</time></trkpt>
        <trkpt lat="28.832541" lon="105.293782"><ele>354.29468</ele><time>2026-04-01T01:49:09.000Z</time></trkpt>
        <trkpt lat="28.832507" lon="105.293719"><ele>352.09036</ele><time>2026-04-01T01:49:12.000Z</time></trkpt>
        <trkpt lat="28.832478" lon="105.293664"><ele>350.59442</ele><time>2026-04-01T01:49:15.000Z</time></trkpt>
        <trkpt lat="28.832456" lon="105.293566"><ele>349.5692</ele><time>2026-04-01T01:49:18.000Z</time></trkpt>
        <trkpt lat="28.832448" lon="105.293494"><ele>348.60678</ele><time>2026-04-01T01:49:20.000Z</time></trkpt>
        <trkpt lat="28.832452" lon="105.293417"><ele>347.67548</ele><time>2026-04-01T01:49:22.000Z</time></trkpt>
        <trkpt lat="28.832467" lon="105.293332"><ele>346.87244</ele><time>2026-04-01T01:49:24.000Z</time></trkpt>
        <trkpt lat="28.832484" lon="105.293257"><ele>345.94492</ele><time>2026-04-01T01:49:26.000Z</time></trkpt>
        <trkpt lat="28.832526" lon="105.293196"><ele>343.30295</ele><time>2026-04-01T01:49:29.000Z</time></trkpt>
        <trkpt lat="28.832564" lon="105.293163"><ele>342.1021</ele><time>2026-04-01T01:49:30.000Z</time></trkpt>
        <trkpt lat="28.832609" lon="105.293131"><ele>341.4084</ele><time>2026-04-01T01:49:31.000Z</time></trkpt>
        <trkpt lat="28.832653" lon="105.293105"><ele>340.53625</ele><time>2026-04-01T01:49:32.000Z</time></trkpt>
        <trkpt lat="28.832714" lon="105.293075"><ele>338.7623</ele><time>2026-04-01T01:49:34.000Z</time></trkpt>
        <trkpt lat="28.832766" lon="105.293036"><ele>337.29306</ele><time>2026-04-01T01:49:36.000Z</time></trkpt>
        <trkpt lat="28.832805" lon="105.292992"><ele>336.12097</ele><time>2026-04-01T01:49:38.000Z</time></trkpt>
        <trkpt lat="28.832815" lon="105.292927"><ele>334.58646</ele><time>2026-04-01T01:49:40.000Z</time></trkpt>
        <trkpt lat="28.83278" lon="105.292867"><ele>333.3537</ele><time>2026-04-01T01:49:42.000Z</time></trkpt>
        <trkpt lat="28.832745" lon="105.292811"><ele>331.88293</ele><time>2026-04-01T01:49:44.000Z</time></trkpt>
        <trkpt lat="28.832703" lon="105.292762"><ele>330.6335</ele><time>2026-04-01T01:49:46.000Z</time></trkpt>
        <trkpt lat="28.832655" lon="105.292716"><ele>329.38028</ele><time>2026-04-01T01:49:48.000Z</time></trkpt>
        <trkpt lat="28.832606" lon="105.292669"><ele>328.31348</ele><time>2026-04-01T01:49:50.000Z</time></trkpt>
        <trkpt lat="28.83255" lon="105.29262"><ele>326.98795</ele><time>2026-04-01T01:49:52.000Z</time></trkpt>
        <trkpt lat="28.832496" lon="105.292563"><ele>325.66248</ele><time>2026-04-01T01:49:54.000Z</time></trkpt>
        <trkpt lat="28.832445" lon="105.292509"><ele>324.41885</ele><time>2026-04-01T01:49:56.000Z</time></trkpt>
        <trkpt lat="28.832396" lon="105.292455"><ele>323.00497</ele><time>2026-04-01T01:49:58.000Z</time></trkpt>
        <trkpt lat="28.832346" lon="105.29239"><ele>321.87894</ele><time>2026-04-01T01:50:00.000Z</time></trkpt>
        <trkpt lat="28.832309" lon="105.292331"><ele>319.94766</ele><time>2026-04-01T01:50:03.000Z</time></trkpt>
        <trkpt lat="28.832293" lon="105.292241"><ele>318.96255</ele><time>2026-04-01T01:50:05.000Z</time></trkpt>
        <trkpt lat="28.832314" lon="105.292196"><ele>318.35806</ele><time>2026-04-01T01:50:06.000Z</time></trkpt>
        <trkpt lat="28.832359" lon="105.292155"><ele>317.09647</ele><time>2026-04-01T01:50:08.000Z</time></trkpt>
        <trkpt lat="28.832425" lon="105.292163"><ele>315.62653</ele><time>2026-04-01T01:50:10.000Z</time></trkpt>
        <trkpt lat="28.832517" lon="105.292191"><ele>314.05408</ele><time>2026-04-01T01:50:13.000Z</time></trkpt>
        <trkpt lat="28.832578" lon="105.292206"><ele>312.8392</ele><time>2026-04-01T01:50:15.000Z</time></trkpt>
        <trkpt lat="28.832637" lon="105.292202"><ele>310.91266</ele><time>2026-04-01T01:50:18.000Z</time></trkpt>
        <trkpt lat="28.832702" lon="105.292124"><ele>309.66895</ele><time>2026-04-01T01:50:20.000Z</time></trkpt>
        <trkpt lat="28.832721" lon="105.292061"><ele>309.02765</ele><time>2026-04-01T01:50:21.000Z</time></trkpt>
        <trkpt lat="28.832749" lon="105.291975"><ele>307.9077</ele><time>2026-04-01T01:50:23.000Z</time></trkpt>
        <trkpt lat="28.832765" lon="105.291887"><ele>306.53473</ele><time>2026-04-01T01:50:25.000Z</time></trkpt>
        <trkpt lat="28.832754" lon="105.291833"><ele>304.9873</ele><time>2026-04-01T01:50:27.000Z</time></trkpt>
        <trkpt lat="28.832707" lon="105.291751"><ele>303.7177</ele><time>2026-04-01T01:50:29.000Z</time></trkpt>
        <trkpt lat="28.832645" lon="105.291709"><ele>302.44003</ele><time>2026-04-01T01:50:31.000Z</time></trkpt>
        <trkpt lat="28.832577" lon="105.291671"><ele>301.148</ele><time>2026-04-01T01:50:33.000Z</time></trkpt>
        <trkpt lat="28.832512" lon="105.291625"><ele>299.77185</ele><time>2026-04-01T01:50:35.000Z</time></trkpt>
        <trkpt lat="28.832456" lon="105.291577"><ele>298.24432</ele><time>2026-04-01T01:50:37.000Z</time></trkpt>
        <trkpt lat="28.832387" lon="105.291497"><ele>296.43063</ele><time>2026-04-01T01:50:40.000Z</time></trkpt>
        <trkpt lat="28.832351" lon="105.291437"><ele>295.21817</ele><time>2026-04-01T01:50:42.000Z</time></trkpt>
        <trkpt lat="28.832326" lon="105.291367"><ele>294.33337</ele><time>2026-04-01T01:50:44.000Z</time></trkpt>
        <trkpt lat="28.83231" lon="105.291298"><ele>293.3692</ele><time>2026-04-01T01:50:46.000Z</time></trkpt>
        <trkpt lat="28.832304" lon="105.291227"><ele>292.23264</ele><time>2026-04-01T01:50:48.000Z</time></trkpt>
        <trkpt lat="28.8323" lon="105.29115"><ele>290.87982</ele><time>2026-04-01T01:50:50.000Z</time></trkpt>
        <trkpt lat="28.832298" lon="105.291069"><ele>289.39423</ele><time>2026-04-01T01:50:52.000Z</time></trkpt>
        <trkpt lat="28.832315" lon="105.290991"><ele>288.10422</ele><time>2026-04-01T01:50:54.000Z</time></trkpt>
        <trkpt lat="28.83234" lon="105.290946"><ele>286.78763</ele><time>2026-04-01T01:50:56.000Z</time></trkpt>
        <trkpt lat="28.832443" lon="105.290872"><ele>285.4675</ele><time>2026-04-01T01:50:58.000Z</time></trkpt>
        <trkpt lat="28.83249" lon="105.290851"><ele>283.9645</ele><time>2026-04-01T01:51:00.000Z</time></trkpt>
        <trkpt lat="28.832561" lon="105.290824"><ele>282.7341</ele><time>2026-04-01T01:51:02.000Z</time></trkpt>
        <trkpt lat="28.832622" lon="105.290803"><ele>282.20248</ele><time>2026-04-01T01:51:03.000Z</time></trkpt>
        <trkpt lat="28.832681" lon="105.290789"><ele>281.45657</ele><time>2026-04-01T01:51:05.000Z</time></trkpt>
        <trkpt lat="28.832772" lon="105.290774"><ele>280.15298</ele><time>2026-04-01T01:51:08.000Z</time></trkpt>
        <trkpt lat="28.832848" lon="105.290728"><ele>278.57047</ele><time>2026-04-01T01:51:11.000Z</time></trkpt>
        <trkpt lat="28.832906" lon="105.290661"><ele>277.0608</ele><time>2026-04-01T01:51:14.000Z</time></trkpt>
        <trkpt lat="28.832926" lon="105.2906"><ele>276.0303</ele><time>2026-04-01T01:51:16.000Z</time></trkpt>
        <trkpt lat="28.832924" lon="105.290545"><ele>274.7855</ele><time>2026-04-01T01:51:18.000Z</time></trkpt>
        <trkpt lat="28.832915" lon="105.29049"><ele>273.5396</ele><time>2026-04-01T01:51:20.000Z</time></trkpt>
        <trkpt lat="28.832901" lon="105.290428"><ele>272.67624</ele><time>2026-04-01T01:51:22.000Z</time></trkpt>
        <trkpt lat="28.832892" lon="105.290368"><ele>272.14236</ele><time>2026-04-01T01:51:24.000Z</time></trkpt>
        <trkpt lat="28.832877" lon="105.290304"><ele>271.4157</ele><time>2026-04-01T01:51:26.000Z</time></trkpt>
        <trkpt lat="28.832853" lon="105.290241"><ele>270.38815</ele><time>2026-04-01T01:51:28.000Z</time></trkpt>
        <trkpt lat="28.832832" lon="105.290181"><ele>269.82352</ele><time>2026-04-01T01:51:30.000Z</time></trkpt>
        <trkpt lat="28.832815" lon="105.290118"><ele>269.06036</ele><time>2026-04-01T01:51:32.000Z</time></trkpt>
        <trkpt lat="28.832791" lon="105.290055"><ele>268.51288</ele><time>2026-04-01T01:51:34.000Z</time></trkpt>
        <trkpt lat="28.832769" lon="105.289989"><ele>267.77637</ele><time>2026-04-01T01:51:36.000Z</time></trkpt>
        <trkpt lat="28.832754" lon="105.289918"><ele>266.9433</ele><time>2026-04-01T01:51:38.000Z</time></trkpt>
        <trkpt lat="28.832741" lon="105.289845"><ele>266.3117</ele><time>2026-04-01T01:51:40.000Z</time></trkpt>
        <trkpt lat="28.832726" lon="105.289781"><ele>266.02707</ele><time>2026-04-01T01:51:42.000Z</time></trkpt>
        <trkpt lat="28.832722" lon="105.289721"><ele>264.9902</ele><time>2026-04-01T01:51:47.000Z</time></trkpt>
      </trkseg>
  </trk>
</gpx>